Wetterdaten: Dienstag, 12.01.2021
Datum Zeit Temp. 2m Temp +5 cm Feuchte A. Luftdruck Regen Wind Richtung Richtung Sonnenschein UV Solar Taupunkt Windchill Windben
12.01.2021 00:00 0,3 C 0,0 C 96 % 1017,7 hPa 0,0 l/m 24,1 km/h (4 Bft) SW 225 0 min 0,0 UV-I 0 W/m -0,3 C -11,0 C 37,0 km/h (5 Bft)
12.01.2021 00:01 0,3 C 0,0 C 96 % 1017,7 hPa 0,0 l/m 29,0 km/h (5 Bft) SW 225 0 min 0,0 UV-I 0 W/m -0,3 C -12,7 C 33,8 km/h (5 Bft)
12.01.2021 00:02 0,3 C 0,0 C 96 % 1017,7 hPa 0,0 l/m 22,5 km/h (4 Bft) S-SW 202 0 min 0,0 UV-I 0 W/m -0,3 C -10,3 C 33,8 km/h (5 Bft)
12.01.2021 00:03 0,3 C 0,0 C 96 % 1017,6 hPa 0,0 l/m 22,5 km/h (4 Bft) S-SW 202 0 min 0,0 UV-I 0 W/m -0,3 C -10,3 C 32,2 km/h (5 Bft)
12.01.2021 00:04 0,3 C 0,0 C 96 % 1017,6 hPa 0,0 l/m 25,7 km/h (4 Bft) SW 225 0 min 0,0 UV-I 0 W/m -0,3 C -11,6 C 32,2 km/h (5 Bft)
12.01.2021 00:05 0,3 C 0,0 C 96 % 1017,6 hPa 0,0 l/m 20,9 km/h (4 Bft) S-SW 202 0 min 0,0 UV-I 0 W/m -0,3 C -9,7 C 27,4 km/h (4 Bft)
12.01.2021 00:06 0,3 C 0,0 C 96 % 1017,6 hPa 0,0 l/m 22,5 km/h (4 Bft) S-SW 202 0 min 0,0 UV-I 0 W/m -0,3 C -10,3 C 32,2 km/h (5 Bft)
12.01.2021 00:07 0,4 C 0,0 C 96 % 1017,6 hPa 0,0 l/m 20,9 km/h (4 Bft) S-SW 202 0 min 0,0 UV-I 0 W/m -0,2 C -9,5 C 27,4 km/h (4 Bft)
12.01.2021 00:08 0,3 C 0,0 C 96 % 1017,6 hPa 0,0 l/m 19,3 km/h (3 Bft) S-SW 202 0 min 0,0 UV-I 0 W/m -0,3 C -8,9 C 27,4 km/h (4 Bft)
12.01.2021 00:09 0,3 C 0,0 C 96 % 1017,6 hPa 0,0 l/m 19,3 km/h (3 Bft) S-SW 202 0 min 0,0 UV-I 0 W/m -0,3 C -8,9 C 27,4 km/h (4 Bft)
12.01.2021 00:10 0,4 C 0,0 C 96 % 1017,6 hPa 0,0 l/m 25,7 km/h (4 Bft) S-SW 202 0 min 0,0 UV-I 0 W/m -0,2 C -11,4 C 35,4 km/h (5 Bft)
12.01.2021 00:11 0,3 C 0,0 C 96 % 1017,5 hPa 0,0 l/m 27,4 km/h (4 Bft) S-SW 202 0 min 0,0 UV-I 0 W/m -0,3 C -12,2 C 37,0 km/h (5 Bft)
12.01.2021 00:12 0,4 C 0,0 C 96 % 1017,5 hPa 0,0 l/m 25,7 km/h (4 Bft) SW 225 0 min 0,0 UV-I 0 W/m -0,2 C -11,4 C 30,6 km/h (5 Bft)
12.01.2021 00:13 0,4 C 0,0 C 96 % 1017,6 hPa 0,0 l/m 24,1 km/h (4 Bft) SW 225 0 min 0,0 UV-I 0 W/m -0,2 C -10,8 C 29,0 km/h (5 Bft)
12.01.2021 00:14 0,3 C 0,0 C 96 % 1017,7 hPa 0,0 l/m 19,3 km/h (3 Bft) SW 225 0 min 0,0 UV-I 0 W/m -0,3 C -8,9 C 27,4 km/h (4 Bft)
12.01.2021 00:15 0,3 C 0,0 C 96 % 1017,5 hPa 0,0 l/m 20,9 km/h (4 Bft) SW 225 0 min 0,0 UV-I 0 W/m -0,3 C -9,7 C 29,0 km/h (5 Bft)
12.01.2021 00:16 0,4 C 0,0 C 96 % 1017,6 hPa 0,0 l/m 20,9 km/h (4 Bft) SW 225 0 min 0,0 UV-I 0 W/m -0,2 C -9,5 C 29,0 km/h (5 Bft)
12.01.2021 00:17 0,3 C 0,0 C 96 % 1017,5 hPa 0,0 l/m 24,1 km/h (4 Bft) S-SW 202 0 min 0,0 UV-I 0 W/m -0,3 C -11,0 C 32,2 km/h (5 Bft)
12.01.2021 00:18 0,4 C 0,0 C 96 % 1017,5 hPa 0,0 l/m 24,1 km/h (4 Bft) S-SW 202 0 min 0,0 UV-I 0 W/m -0,2 C -10,8 C 32,2 km/h (5 Bft)
12.01.2021 00:19 0,4 C 0,0 C 96 % 1017,5 hPa 0,0 l/m 22,5 km/h (4 Bft) SW 225 0 min 0,0 UV-I 0 W/m -0,2 C -10,2 C 30,6 km/h (5 Bft)
12.01.2021 00:20 0,4 C 0,0 C 96 % 1017,5 hPa 0,0 l/m 17,7 km/h (3 Bft) S-SW 202 0 min 0,0 UV-I 0 W/m -0,2 C -8,0 C 24,1 km/h (4 Bft)
12.01.2021 00:21 0,4 C 0,0 C 96 % 1017,5 hPa 0,0 l/m 17,7 km/h (3 Bft) S-SW 202 0 min 0,0 UV-I 0 W/m -0,2 C -8,0 C 25,7 km/h (4 Bft)
12.01.2021 00:22 0,4 C 0,0 C 96 % 1017,5 hPa 0,0 l/m 19,3 km/h (3 Bft) S-SW 202 0 min 0,0 UV-I 0 W/m -0,2 C -8,8 C 25,7 km/h (4 Bft)
12.01.2021 00:23 0,4 C 0,0 C 96 % 1017,5 hPa 0,0 l/m 20,9 km/h (4 Bft) S-SW 202 0 min 0,0 UV-I 0 W/m -0,2 C -9,5 C 27,4 km/h (4 Bft)
12.01.2021 00:24 0,4 C 0,0 C 96 % 1017,5 hPa 0,0 l/m 19,3 km/h (3 Bft) S-SW 202 0 min 0,0 UV-I 0 W/m -0,2 C -8,8 C 25,7 km/h (4 Bft)
12.01.2021 00:25 0,4 C 0,0 C 96 % 1017,5 hPa 0,0 l/m 17,7 km/h (3 Bft) S-SW 202 0 min 0,0 UV-I 0 W/m -0,2 C -8,0 C 27,4 km/h (4 Bft)
12.01.2021 00:26 0,4 C 0,0 C 96 % 1017,4 hPa 0,0 l/m 22,5 km/h (4 Bft) S-SW 202 0 min 0,0 UV-I 0 W/m -0,2 C -10,2 C 25,7 km/h (4 Bft)
12.01.2021 00:27 0,4 C 0,0 C 96 % 1017,4 hPa 0,0 l/m 17,7 km/h (3 Bft) S-SW 202 0 min 0,0 UV-I 0 W/m -0,2 C -8,0 C 25,7 km/h (4 Bft)
12.01.2021 00:28 0,4 C 0,0 C 96 % 1017,5 hPa 0,0 l/m 22,5 km/h (4 Bft) SW 225 0 min 0,0 UV-I 0 W/m -0,2 C -10,2 C 29,0 km/h (5 Bft)
12.01.2021 00:29 0,4 C 0,0 C 96 % 1017,4 hPa 0,0 l/m 24,1 km/h (4 Bft) SW 225 0 min 0,0 UV-I 0 W/m -0,2 C -10,8 C 33,8 km/h (5 Bft)
12.01.2021 00:30 0,4 C 0,0 C 96 % 1017,3 hPa 0,0 l/m 22,5 km/h (4 Bft) S-SW 202 0 min 0,0 UV-I 0 W/m -0,2 C -10,2 C 30,6 km/h (5 Bft)
12.01.2021 00:31 0,4 C 0,0 C 96 % 1017,3 hPa 0,0 l/m 20,9 km/h (4 Bft) SW 225 0 min 0,0 UV-I 0 W/m -0,2 C -9,5 C 30,6 km/h (5 Bft)
12.01.2021 00:32 0,4 C 0,0 C 96 % 1017,4 hPa 0,0 l/m 20,9 km/h (4 Bft) S-SW 202 0 min 0,0 UV-I 0 W/m -0,2 C -9,5 C 29,0 km/h (5 Bft)
12.01.2021 00:33 0,4 C 0,0 C 96 % 1017,3 hPa 0,0 l/m 17,7 km/h (3 Bft) SW 225 0 min 0,0 UV-I 0 W/m -0,2 C -8,0 C 22,5 km/h (4 Bft)
12.01.2021 00:34 0,4 C 0,0 C 96 % 1017,3 hPa 0,0 l/m 19,3 km/h (3 Bft) SW 225 0 min 0,0 UV-I 0 W/m -0,2 C -8,8 C 29,0 km/h (5 Bft)
12.01.2021 00:35 0,4 C 0,0 C 96 % 1017,3 hPa 0,0 l/m 16,1 km/h (3 Bft) SW 225 0 min 0,0 UV-I 0 W/m -0,2 C -7,1 C 22,5 km/h (4 Bft)
12.01.2021 00:36 0,4 C 0,0 C 96 % 1017,3 hPa 0,0 l/m 17,7 km/h (3 Bft) S-SW 202 0 min 0,0 UV-I 0 W/m -0,2 C -8,0 C 24,1 km/h (4 Bft)
12.01.2021 00:37 0,4 C 0,0 C 96 % 1017,3 hPa 0,0 l/m 17,7 km/h (3 Bft) S-SW 202 0 min 0,0 UV-I 0 W/m -0,2 C -8,0 C 29,0 km/h (5 Bft)
12.01.2021 00:38 0,4 C 0,0 C 96 % 1017,3 hPa 0,0 l/m 19,3 km/h (3 Bft) S-SW 202 0 min 0,0 UV-I 0 W/m -0,2 C -8,8 C 33,8 km/h (5 Bft)
12.01.2021 00:39 0,4 C 0,0 C 96 % 1017,3 hPa 0,0 l/m 17,7 km/h (3 Bft) S-SW 202 0 min 0,0 UV-I 0 W/m -0,2 C -8,0 C 22,5 km/h (4 Bft)
12.01.2021 00:40 0,4 C 0,0 C 96 % 1017,2 hPa 0,0 l/m 16,1 km/h (3 Bft) S-SW 202 0 min 0,0 UV-I 0 W/m -0,2 C -7,1 C 25,7 km/h (4 Bft)
12.01.2021 00:41 0,4 C 0,0 C 96 % 1017,2 hPa 0,0 l/m 17,7 km/h (3 Bft) SW 225 0 min 0,0 UV-I 0 W/m -0,2 C -8,0 C 24,1 km/h (4 Bft)
12.01.2021 00:42 0,4 C 0,0 C 96 % 1017,2 hPa 0,0 l/m 17,7 km/h (3 Bft) SW 225 0 min 0,0 UV-I 0 W/m -0,2 C -8,0 C 25,7 km/h (4 Bft)
12.01.2021 00:43 0,4 C 0,0 C 96 % 1017,3 hPa 0,0 l/m 17,7 km/h (3 Bft) S-SW 202 0 min 0,0 UV-I 0 W/m -0,2 C -8,0 C 27,4 km/h (4 Bft)
12.01.2021 00:44 0,4 C 0,0 C 96 % 1017,2 hPa 0,0 l/m 16,1 km/h (3 Bft) S-SW 202 0 min 0,0 UV-I 0 W/m -0,2 C -7,1 C 22,5 km/h (4 Bft)
12.01.2021 00:45 0,4 C 0,0 C 96 % 1017,2 hPa 0,0 l/m 20,9 km/h (4 Bft) SW 225 0 min 0,0 UV-I 0 W/m -0,2 C -9,5 C 33,8 km/h (5 Bft)
12.01.2021 00:46 0,4 C 0,0 C 96 % 1017,2 hPa 0,0 l/m 20,9 km/h (4 Bft) SW 225 0 min 0,0 UV-I 0 W/m -0,2 C -9,5 C 25,7 km/h (4 Bft)
12.01.2021 00:47 0,4 C 0,0 C 96 % 1017,2 hPa 0,0 l/m 17,7 km/h (3 Bft) SW 225 0 min 0,0 UV-I 0 W/m -0,2 C -8,0 C 25,7 km/h (4 Bft)
12.01.2021 00:48 0,5 C 0,0 C 96 % 1017,2 hPa 0,0 l/m 16,1 km/h (3 Bft) SW 225 0 min 0,0 UV-I 0 W/m -0,1 C -7,0 C 20,9 km/h (4 Bft)
12.01.2021 00:49 0,4 C 0,0 C 96 % 1017,2 hPa 0,0 l/m 20,9 km/h (4 Bft) S-SW 202 0 min 0,0 UV-I 0 W/m -0,2 C -9,5 C 29,0 km/h (5 Bft)
12.01.2021 00:50 0,5 C 0,0 C 96 % 1017,2 hPa 0,0 l/m 17,7 km/h (3 Bft) S-SW 202 0 min 0,0 UV-I 0 W/m -0,1 C -7,9 C 25,7 km/h (4 Bft)
12.01.2021 00:51 0,5 C 0,0 C 96 % 1017,2 hPa 0,0 l/m 17,7 km/h (3 Bft) SW 225 0 min 0,0 UV-I 0 W/m -0,1 C -7,9 C 22,5 km/h (4 Bft)
12.01.2021 00:52 0,5 C 0,0 C 96 % 1017,2 hPa 0,0 l/m 19,3 km/h (3 Bft) S-SW 202 0 min 0,0 UV-I 0 W/m -0,1 C -8,7 C 29,0 km/h (5 Bft)
12.01.2021 00:53 0,5 C 0,0 C 96 % 1017,1 hPa 0,0 l/m 25,7 km/h (4 Bft) SW 225 0 min 0,0 UV-I 0 W/m -0,1 C -11,3 C 30,6 km/h (5 Bft)
12.01.2021 00:54 0,6 C 0,0 C 96 % 1017,1 hPa 0,0 l/m 22,5 km/h (4 Bft) S-SW 202 0 min 0,0 UV-I 0 W/m 0,0 C -9,9 C 29,0 km/h (5 Bft)
12.01.2021 00:55 0,6 C 0,0 C 96 % 1017,0 hPa 0,0 l/m 19,3 km/h (3 Bft) S-SW 202 0 min 0,0 UV-I 0 W/m 0,0 C -8,5 C 24,1 km/h (4 Bft)
12.01.2021 00:56 0,5 C 0,0 C 96 % 1017,1 hPa 0,0 l/m 17,7 km/h (3 Bft) S-SW 202 0 min 0,0 UV-I 0 W/m -0,1 C -7,9 C 24,1 km/h (4 Bft)
12.01.2021 00:57 0,6 C 0,0 C 96 % 1017,0 hPa 0,0 l/m 19,3 km/h (3 Bft) S-SW 202 0 min 0,0 UV-I 0 W/m 0,0 C -8,5 C 24,1 km/h (4 Bft)
12.01.2021 00:58 0,5 C 0,0 C 96 % 1017,1 hPa 0,0 l/m 17,7 km/h (3 Bft) S-SW 202 0 min 0,0 UV-I 0 W/m -0,1 C -7,9 C 22,5 km/h (4 Bft)
12.01.2021 00:59 0,6 C 0,0 C 96 % 1017,0 hPa 0,0 l/m 22,5 km/h (4 Bft) S-SW 202 0 min 0,0 UV-I 0 W/m 0,0 C -9,9 C 33,8 km/h (5 Bft)
12.01.2021 01:00 0,6 C 0,0 C 96 % 1017,0 hPa 0,0 l/m 19,3 km/h (3 Bft) S-SW 202 0 min 0,0 UV-I 0 W/m 0,0 C -8,5 C 24,1 km/h (4 Bft)
12.01.2021 01:01 0,6 C 0,0 C 96 % 1016,9 hPa 0,0 l/m 19,3 km/h (3 Bft) S-SW 202 0 min 0,0 UV-I 0 W/m 0,0 C -8,5 C 25,7 km/h (4 Bft)
12.01.2021 01:02 0,6 C 0,0 C 96 % 1016,9 hPa 0,0 l/m 20,9 km/h (4 Bft) SW 225 0 min 0,0 UV-I 0 W/m 0,0 C -9,3 C 24,1 km/h (4 Bft)
12.01.2021 01:03 0,6 C 0,0 C 96 % 1016,9 hPa 0,0 l/m 17,7 km/h (3 Bft) S-SW 202 0 min 0,0 UV-I 0 W/m 0,0 C -7,7 C 24,1 km/h (4 Bft)
12.01.2021 01:04 0,6 C 0,0 C 96 % 1016,8 hPa 0,0 l/m 19,3 km/h (3 Bft) S-SW 202 0 min 0,0 UV-I 0 W/m 0,0 C -8,5 C 22,5 km/h (4 Bft)
12.01.2021 01:05 0,6 C 0,0 C 96 % 1016,7 hPa 0,0 l/m 12,9 km/h (3 Bft) S-SW 202 0 min 0,0 UV-I 0 W/m 0,0 C -4,9 C 19,3 km/h (3 Bft)
12.01.2021 01:06 0,6 C 0,0 C 96 % 1016,7 hPa 0,0 l/m 19,3 km/h (3 Bft) SW 225 0 min 0,0 UV-I 0 W/m 0,0 C -8,5 C 24,1 km/h (4 Bft)
12.01.2021 01:07 0,6 C 0,0 C 96 % 1016,7 hPa 0,0 l/m 17,7 km/h (3 Bft) S-SW 202 0 min 0,0 UV-I 0 W/m 0,0 C -7,7 C 22,5 km/h (4 Bft)
12.01.2021 01:08 0,6 C 0,0 C 96 % 1016,7 hPa 0,0 l/m 19,3 km/h (3 Bft) SW 225 0 min 0,0 UV-I 0 W/m 0,0 C -8,5 C 24,1 km/h (4 Bft)
12.01.2021 01:09 0,6 C 0,0 C 96 % 1016,6 hPa 0,0 l/m 16,1 km/h (3 Bft) S-SW 202 0 min 0,0 UV-I 0 W/m 0,0 C -6,9 C 24,1 km/h (4 Bft)
12.01.2021 01:10 0,6 C 0,0 C 96 % 1016,5 hPa 0,0 l/m 19,3 km/h (3 Bft) S-SW 202 0 min 0,0 UV-I 0 W/m 0,0 C -8,5 C 22,5 km/h (4 Bft)
12.01.2021 01:11 0,6 C 0,0 C 96 % 1016,7 hPa 0,0 l/m 14,5 km/h (3 Bft) S-SW 202 0 min 0,0 UV-I 0 W/m 0,0 C -6,0 C 17,7 km/h (3 Bft)
12.01.2021 01:12 0,6 C 0,0 C 96 % 1016,6 hPa 0,0 l/m 17,7 km/h (3 Bft) S-SW 202 0 min 0,0 UV-I 0 W/m 0,0 C -7,7 C 24,1 km/h (4 Bft)
12.01.2021 01:13 0,6 C 0,0 C 96 % 1016,6 hPa 0,0 l/m 20,9 km/h (4 Bft) S-SW 202 0 min 0,0 UV-I 0 W/m 0,0 C -9,3 C 25,7 km/h (4 Bft)
12.01.2021 01:14 0,6 C 0,0 C 96 % 1016,5 hPa 0,0 l/m 20,9 km/h (4 Bft) S-SW 202 0 min 0,0 UV-I 0 W/m 0,0 C -9,3 C 29,0 km/h (5 Bft)
12.01.2021 01:15 0,6 C 0,0 C 96 % 1016,6 hPa 0,0 l/m 17,7 km/h (3 Bft) S-SW 202 0 min 0,0 UV-I 0 W/m 0,0 C -7,7 C 25,7 km/h (4 Bft)
12.01.2021 01:16 0,5 C 0,0 C 96 % 1016,5 hPa 0,0 l/m 16,1 km/h (3 Bft) S-SW 202 0 min 0,0 UV-I 0 W/m -0,1 C -7,0 C 20,9 km/h (4 Bft)
12.01.2021 01:17 0,6 C 0,0 C 96 % 1016,5 hPa 0,0 l/m 19,3 km/h (3 Bft) S-SW 202 0 min 0,0 UV-I 0 W/m 0,0 C -8,5 C 22,5 km/h (4 Bft)
12.01.2021 01:18 0,6 C 0,0 C 96 % 1016,5 hPa 0,0 l/m 22,5 km/h (4 Bft) S-SW 202 0 min 0,0 UV-I 0 W/m 0,0 C -9,9 C 25,7 km/h (4 Bft)
12.01.2021 01:19 0,6 C 0,0 C 96 % 1016,5 hPa 0,0 l/m 17,7 km/h (3 Bft) S-SW 202 0 min 0,0 UV-I 0 W/m 0,0 C -7,7 C 22,5 km/h (4 Bft)
12.01.2021 01:20 0,6 C 0,0 C 96 % 1016,5 hPa 0,0 l/m 19,3 km/h (3 Bft) SW 225 0 min 0,0 UV-I 0 W/m 0,0 C -8,5 C 25,7 km/h (4 Bft)
12.01.2021 01:21 0,6 C 0,0 C 96 % 1016,5 hPa 0,0 l/m 19,3 km/h (3 Bft) S-SW 202 0 min 0,0 UV-I 0 W/m 0,0 C -8,5 C 22,5 km/h (4 Bft)
12.01.2021 01:22 0,6 C 0,0 C 96 % 1016,3 hPa 0,0 l/m 25,7 km/h (4 Bft) S-SW 202 0 min 0,0 UV-I 0 W/m 0,0 C -11,2 C 30,6 km/h (5 Bft)
12.01.2021 01:23 0,6 C 0,0 C 96 % 1016,3 hPa 0,0 l/m 22,5 km/h (4 Bft) S-SW 202 0 min 0,0 UV-I 0 W/m 0,0 C -9,9 C 27,4 km/h (4 Bft)
12.01.2021 01:24 0,6 C 0,0 C 96 % 1016,3 hPa 0,0 l/m 20,9 km/h (4 Bft) S-SW 202 0 min 0,0 UV-I 0 W/m 0,0 C -9,3 C 29,0 km/h (5 Bft)
12.01.2021 01:25 0,6 C 0,0 C 96 % 1016,2 hPa 0,0 l/m 20,9 km/h (4 Bft) S-SW 202 0 min 0,0 UV-I 0 W/m 0,0 C -9,3 C 25,7 km/h (4 Bft)
12.01.2021 01:26 0,6 C 0,0 C 96 % 1016,2 hPa 0,0 l/m 20,9 km/h (4 Bft) S-SW 202 0 min 0,0 UV-I 0 W/m 0,0 C -9,3 C 30,6 km/h (5 Bft)
12.01.2021 01:27 0,6 C 0,0 C 96 % 1016,2 hPa 0,0 l/m 24,1 km/h (4 Bft) S-SW 202 0 min 0,0 UV-I 0 W/m 0,0 C -10,6 C 32,2 km/h (5 Bft)
12.01.2021 01:28 0,6 C 0,0 C 96 % 1016,2 hPa 0,0 l/m 22,5 km/h (4 Bft) S-SW 202 0 min 0,0 UV-I 0 W/m 0,0 C -9,9 C 29,0 km/h (5 Bft)
12.01.2021 01:29 0,6 C 0,0 C 96 % 1016,1 hPa 0,0 l/m 24,1 km/h (4 Bft) S-SW 202 0 min 0,0 UV-I 0 W/m 0,0 C -10,6 C 27,4 km/h (4 Bft)
12.01.2021 01:30 0,6 C 0,0 C 96 % 1016,2 hPa 0,0 l/m 22,5 km/h (4 Bft) S-SW 202 0 min 0,0 UV-I 0 W/m 0,0 C -9,9 C 25,7 km/h (4 Bft)
12.01.2021 01:31 0,6 C 0,0 C 96 % 1016,1 hPa 0,0 l/m 22,5 km/h (4 Bft) S-SW 202 0 min 0,0 UV-I 0 W/m 0,0 C -9,9 C 33,8 km/h (5 Bft)
12.01.2021 01:32 0,6 C 0,0 C 96 % 1016,1 hPa 0,0 l/m 17,7 km/h (3 Bft) S-SW 202 0 min 0,0 UV-I 0 W/m 0,0 C -7,7 C 22,5 km/h (4 Bft)
12.01.2021 01:33 0,6 C 0,0 C 96 % 1016,1 hPa 0,0 l/m 25,7 km/h (4 Bft) S-SW 202 0 min 0,0 UV-I 0 W/m 0,0 C -11,2 C 33,8 km/h (5 Bft)
12.01.2021 01:34 0,6 C 0,0 C 96 % 1016,0 hPa 0,0 l/m 22,5 km/h (4 Bft) S-SW 202 0 min 0,0 UV-I 0 W/m 0,0 C -9,9 C 29,0 km/h (5 Bft)
12.01.2021 01:35 0,6 C 0,0 C 96 % 1016,0 hPa 0,0 l/m 17,7 km/h (3 Bft) S-SW 202 0 min 0,0 UV-I 0 W/m 0,0 C -7,7 C 25,7 km/h (4 Bft)
12.01.2021 01:36 0,6 C 0,0 C 96 % 1015,9 hPa 0,0 l/m 19,3 km/h (3 Bft) S-SW 202 0 min 0,0 UV-I 0 W/m 0,0 C -8,5 C 27,4 km/h (4 Bft)
12.01.2021 01:37 0,6 C 0,0 C 96 % 1015,9 hPa 0,0 l/m 19,3 km/h (3 Bft) S-SW 202 0 min 0,0 UV-I 0 W/m 0,0 C -8,5 C 27,4 km/h (4 Bft)
12.01.2021 01:38 0,6 C 0,0 C 96 % 1016,0 hPa 0,0 l/m 20,9 km/h (4 Bft) S-SW 202 0 min 0,0 UV-I 0 W/m 0,0 C -9,3 C 27,4 km/h (4 Bft)
12.01.2021 01:39 0,7 C 0,0 C 96 % 1015,8 hPa 0,0 l/m 20,9 km/h (4 Bft) S-SW 202 0 min 0,0 UV-I 0 W/m 0,1 C -9,1 C 29,0 km/h (5 Bft)
12.01.2021 01:40 0,7 C 0,0 C 96 % 1015,8 hPa 0,0 l/m 25,7 km/h (4 Bft) S-SW 202 0 min 0,0 UV-I 0 W/m 0,1 C -11,0 C 37,0 km/h (5 Bft)
12.01.2021 01:41 0,7 C 0,0 C 96 % 1015,8 hPa 0,0 l/m 24,1 km/h (4 Bft) S-SW 202 0 min 0,0 UV-I 0 W/m 0,1 C -10,4 C 29,0 km/h (5 Bft)
12.01.2021 01:42 0,7 C 0,0 C 96 % 1015,8 hPa 0,0 l/m 24,1 km/h (4 Bft) S-SW 202 0 min 0,0 UV-I 0 W/m 0,1 C -10,4 C 33,8 km/h (5 Bft)
12.01.2021 01:43 0,7 C 0,0 C 96 % 1015,8 hPa 0,0 l/m 22,5 km/h (4 Bft) S-SW 202 0 min 0,0 UV-I 0 W/m 0,1 C -9,8 C 30,6 km/h (5 Bft)
12.01.2021 01:44 0,7 C 0,0 C 96 % 1015,9 hPa 0,0 l/m 25,7 km/h (4 Bft) S-SW 202 0 min 0,0 UV-I 0 W/m 0,1 C -11,0 C 37,0 km/h (5 Bft)
12.01.2021 01:45 0,7 C 0,0 C 96 % 1015,9 hPa 0,0 l/m 24,1 km/h (4 Bft) S-SW 202 0 min 0,0 UV-I 0 W/m 0,1 C -10,4 C 32,2 km/h (5 Bft)
12.01.2021 01:46 0,7 C 0,0 C 96 % 1015,8 hPa 0,0 l/m 24,1 km/h (4 Bft) S-SW 202 0 min 0,0 UV-I 0 W/m 0,1 C -10,4 C 30,6 km/h (5 Bft)
12.01.2021 01:47 0,7 C 0,0 C 96 % 1015,8 hPa 0,0 l/m 24,1 km/h (4 Bft) S-SW 202 0 min 0,0 UV-I 0 W/m 0,1 C -10,4 C 38,6 km/h (5 Bft)
12.01.2021 01:48 0,7 C 0,0 C 96 % 1015,8 hPa 0,0 l/m 20,9 km/h (4 Bft) S-SW 202 0 min 0,0 UV-I 0 W/m 0,1 C -9,1 C 30,6 km/h (5 Bft)
12.01.2021 01:49 0,7 C 0,0 C 96 % 1015,8 hPa 0,0 l/m 20,9 km/h (4 Bft) SW 225 0 min 0,0 UV-I 0 W/m 0,1 C -9,1 C 30,6 km/h (5 Bft)
12.01.2021 01:50 0,7 C 0,0 C 96 % 1015,8 hPa 0,0 l/m 22,5 km/h (4 Bft) S-SW 202 0 min 0,0 UV-I 0 W/m 0,1 C -9,8 C 27,4 km/h (4 Bft)
12.01.2021 01:51 0,6 C 0,0 C 96 % 1015,9 hPa 0,0 l/m 27,4 km/h (4 Bft) S-SW 202 0 min 0,0 UV-I 0 W/m 0,0 C -11,7 C 46,7 km/h (6 Bft)
12.01.2021 01:52 0,6 C 0,0 C 96 % 1015,8 hPa 0,0 l/m 22,5 km/h (4 Bft) SW 225 0 min 0,0 UV-I 0 W/m 0,0 C -9,9 C 45,1 km/h (6 Bft)
12.01.2021 01:53 0,6 C 0,0 C 96 % 1015,9 hPa 0,0 l/m 25,7 km/h (4 Bft) S-SW 202 0 min 0,0 UV-I 0 W/m 0,0 C -11,2 C 35,4 km/h (5 Bft)
12.01.2021 01:54 0,6 C 0,0 C 96 % 1015,8 hPa 0,0 l/m 22,5 km/h (4 Bft) S-SW 202 0 min 0,0 UV-I 0 W/m 0,0 C -9,9 C 32,2 km/h (5 Bft)
12.01.2021 01:55 0,6 C 0,0 C 96 % 1015,8 hPa 0,0 l/m 20,9 km/h (4 Bft) S-SW 202 0 min 0,0 UV-I 0 W/m 0,0 C -9,3 C 30,6 km/h (5 Bft)
12.01.2021 01:56 0,6 C 0,0 C 96 % 1015,9 hPa 0,0 l/m 24,1 km/h (4 Bft) S-SW 202 0 min 0,0 UV-I 0 W/m 0,0 C -10,6 C 40,2 km/h (6 Bft)
12.01.2021 01:57 0,6 C 0,0 C 96 % 1015,7 hPa 0,0 l/m 22,5 km/h (4 Bft) S-SW 202 0 min 0,0 UV-I 0 W/m 0,0 C -9,9 C 29,0 km/h (5 Bft)
12.01.2021 01:58 0,6 C 0,0 C 96 % 1015,8 hPa 0,0 l/m 25,7 km/h (4 Bft) S-SW 202 0 min 0,0 UV-I 0 W/m 0,0 C -11,2 C 35,4 km/h (5 Bft)
12.01.2021 01:59 0,6 C 0,0 C 96 % 1015,8 hPa 0,0 l/m 25,7 km/h (4 Bft) SW 225 0 min 0,0 UV-I 0 W/m 0,0 C -11,2 C 35,4 km/h (5 Bft)
12.01.2021 02:00 0,6 C 0,0 C 96 % 1015,8 hPa 0,0 l/m 25,7 km/h (4 Bft) S-SW 202 0 min 0,0 UV-I 0 W/m 0,0 C -11,2 C 35,4 km/h (5 Bft)
12.01.2021 02:01 0,6 C 0,0 C 96 % 1015,7 hPa 0,0 l/m 25,7 km/h (4 Bft) S-SW 202 0 min 0,0 UV-I 0 W/m 0,0 C -11,2 C 38,6 km/h (5 Bft)
12.01.2021 02:02 0,6 C 0,0 C 96 % 1015,8 hPa 0,0 l/m 24,1 km/h (4 Bft) SW 225 0 min 0,0 UV-I 0 W/m 0,0 C -10,6 C 30,6 km/h (5 Bft)
12.01.2021 02:03 0,6 C 0,0 C 96 % 1015,8 hPa 0,0 l/m 30,6 km/h (5 Bft) S-SW 202 0 min 0,0 UV-I 0 W/m 0,0 C -12,7 C 43,5 km/h (6 Bft)
12.01.2021 02:04 0,6 C 0,0 C 96 % 1015,7 hPa 0,0 l/m 29,0 km/h (5 Bft) SW 225 0 min 0,0 UV-I 0 W/m 0,0 C -12,3 C 41,8 km/h (6 Bft)
12.01.2021 02:05 0,6 C 0,0 C 96 % 1015,8 hPa 0,0 l/m 32,2 km/h (5 Bft) SW 225 0 min 0,0 UV-I 0 W/m 0,0 C -13,2 C 43,5 km/h (6 Bft)
12.01.2021 02:06 0,7 C 0,0 C 96 % 1015,8 hPa 0,0 l/m 25,7 km/h (4 Bft) S-SW 202 0 min 0,0 UV-I 0 W/m 0,1 C -11,0 C 37,0 km/h (5 Bft)
12.01.2021 02:07 0,7 C 0,0 C 96 % 1015,7 hPa 0,0 l/m 27,4 km/h (4 Bft) S-SW 202 0 min 0,0 UV-I 0 W/m 0,1 C -11,6 C 33,8 km/h (5 Bft)
12.01.2021 02:08 0,6 C 0,0 C 96 % 1015,7 hPa 0,0 l/m 24,1 km/h (4 Bft) S-SW 202 0 min 0,0 UV-I 0 W/m 0,0 C -10,6 C 27,4 km/h (4 Bft)
12.01.2021 02:09 0,6 C 0,0 C 96 % 1015,7 hPa 0,0 l/m 24,1 km/h (4 Bft) SW 225 0 min 0,0 UV-I 0 W/m 0,0 C -10,6 C 33,8 km/h (5 Bft)
12.01.2021 02:10 0,7 C 0,0 C 96 % 1015,7 hPa 0,0 l/m 25,7 km/h (4 Bft) S-SW 202 0 min 0,0 UV-I 0 W/m 0,1 C -11,0 C 32,2 km/h (5 Bft)
12.01.2021 02:11 0,6 C 0,0 C 96 % 1015,6 hPa 0,0 l/m 24,1 km/h (4 Bft) S-SW 202 0 min 0,0 UV-I 0 W/m 0,0 C -10,6 C 32,2 km/h (5 Bft)
12.01.2021 02:12 0,7 C 0,0 C 96 % 1015,6 hPa 0,0 l/m 25,7 km/h (4 Bft) S-SW 202 0 min 0,0 UV-I 0 W/m 0,1 C -11,0 C 32,2 km/h (5 Bft)
12.01.2021 02:13 0,6 C 0,0 C 96 % 1015,6 hPa 0,0 l/m 32,2 km/h (5 Bft) S-SW 202 0 min 0,0 UV-I 0 W/m 0,0 C -13,2 C 40,2 km/h (6 Bft)
12.01.2021 02:14 0,6 C 0,0 C 96 % 1015,6 hPa 0,0 l/m 29,0 km/h (5 Bft) SW 225 0 min 0,0 UV-I 0 W/m 0,0 C -12,3 C 37,0 km/h (5 Bft)
12.01.2021 02:15 0,6 C 0,0 C 96 % 1015,6 hPa 0,0 l/m 27,4 km/h (4 Bft) SW 225 0 min 0,0 UV-I 0 W/m 0,0 C -11,7 C 40,2 km/h (6 Bft)
12.01.2021 02:16 0,6 C 0,0 C 96 % 1015,5 hPa 0,0 l/m 27,4 km/h (4 Bft) S-SW 202 0 min 0,0 UV-I 0 W/m 0,0 C -11,7 C 37,0 km/h (5 Bft)
12.01.2021 02:17 0,7 C 0,0 C 96 % 1015,5 hPa 0,0 l/m 24,1 km/h (4 Bft) S-SW 202 0 min 0,0 UV-I 0 W/m 0,1 C -10,4 C 33,8 km/h (5 Bft)
12.01.2021 02:18 0,7 C 0,0 C 96 % 1015,6 hPa 0,0 l/m 27,4 km/h (4 Bft) S-SW 202 0 min 0,0 UV-I 0 W/m 0,1 C -11,6 C 38,6 km/h (5 Bft)
12.01.2021 02:19 0,7 C 0,0 C 96 % 1015,5 hPa 0,0 l/m 30,6 km/h (5 Bft) S-SW 202 0 min 0,0 UV-I 0 W/m 0,1 C -12,6 C 45,1 km/h (6 Bft)
12.01.2021 02:20 0,7 C 0,0 C 96 % 1015,5 hPa 0,0 l/m 29,0 km/h (5 Bft) S-SW 202 0 min 0,0 UV-I 0 W/m 0,1 C -12,1 C 35,4 km/h (5 Bft)
12.01.2021 02:21 0,7 C 0,0 C 96 % 1015,6 hPa 0,0 l/m 25,7 km/h (4 Bft) SW 225 0 min 0,0 UV-I 0 W/m 0,1 C -11,0 C 29,0 km/h (5 Bft)
12.01.2021 02:22 0,7 C 0,0 C 96 % 1015,5 hPa 0,0 l/m 24,1 km/h (4 Bft) S-SW 202 0 min 0,0 UV-I 0 W/m 0,1 C -10,4 C 35,4 km/h (5 Bft)
12.01.2021 02:23 0,7 C 0,0 C 96 % 1015,5 hPa 0,0 l/m 22,5 km/h (4 Bft) S-SW 202 0 min 0,0 UV-I 0 W/m 0,1 C -9,8 C 27,4 km/h (4 Bft)
12.01.2021 02:24 0,6 C 0,0 C 96 % 1015,5 hPa 0,0 l/m 20,9 km/h (4 Bft) S-SW 202 0 min 0,0 UV-I 0 W/m 0,0 C -9,3 C 30,6 km/h (5 Bft)
12.01.2021 02:25 0,6 C 0,0 C 96 % 1015,5 hPa 0,0 l/m 22,5 km/h (4 Bft) SW 225 0 min 0,0 UV-I 0 W/m 0,0 C -9,9 C 32,2 km/h (5 Bft)
12.01.2021 02:26 0,6 C 0,0 C 96 % 1015,4 hPa 0,0 l/m 27,4 km/h (4 Bft) S-SW 202 0 min 0,0 UV-I 0 W/m 0,0 C -11,7 C 37,0 km/h (5 Bft)
12.01.2021 02:27 0,7 C 0,0 C 96 % 1015,4 hPa 0,0 l/m 30,6 km/h (5 Bft) S-SW 202 0 min 0,0 UV-I 0 W/m 0,1 C -12,6 C 35,4 km/h (5 Bft)
12.01.2021 02:28 0,7 C 0,0 C 96 % 1015,4 hPa 0,0 l/m 32,2 km/h (5 Bft) SW 225 0 min 0,0 UV-I 0 W/m 0,1 C -13,1 C 46,7 km/h (6 Bft)
12.01.2021 02:29 0,7 C 0,0 C 96 % 1015,4 hPa 0,0 l/m 27,4 km/h (4 Bft) S-SW 202 0 min 0,0 UV-I 0 W/m 0,1 C -11,6 C 35,4 km/h (5 Bft)
12.01.2021 02:30 0,7 C 0,0 C 96 % 1015,4 hPa 0,0 l/m 30,6 km/h (5 Bft) S-SW 202 0 min 0,0 UV-I 0 W/m 0,1 C -12,6 C 37,0 km/h (5 Bft)
12.01.2021 02:31 0,7 C 0,0 C 96 % 1015,4 hPa 0,0 l/m 22,5 km/h (4 Bft) S-SW 202 0 min 0,0 UV-I 0 W/m 0,1 C -9,8 C 40,2 km/h (6 Bft)
12.01.2021 02:32 0,7 C 0,0 C 96 % 1015,3 hPa 0,0 l/m 22,5 km/h (4 Bft) S-SW 202 0 min 0,0 UV-I 0 W/m 0,1 C -9,8 C 30,6 km/h (5 Bft)
12.01.2021 02:33 0,7 C 0,0 C 96 % 1015,3 hPa 0,0 l/m 25,7 km/h (4 Bft) S-SW 202 0 min 0,0 UV-I 0 W/m 0,1 C -11,0 C 33,8 km/h (5 Bft)
12.01.2021 02:34 0,7 C 0,0 C 96 % 1015,4 hPa 0,0 l/m 22,5 km/h (4 Bft) S-SW 202 0 min 0,0 UV-I 0 W/m 0,1 C -9,8 C 29,0 km/h (5 Bft)
12.01.2021 02:35 0,7 C 0,0 C 96 % 1015,4 hPa 0,0 l/m 27,4 km/h (4 Bft) S-SW 202 0 min 0,0 UV-I 0 W/m 0,1 C -11,6 C 35,4 km/h (5 Bft)
12.01.2021 02:36 0,7 C 0,0 C 96 % 1015,3 hPa 0,0 l/m 29,0 km/h (5 Bft) S-SW 202 0 min 0,0 UV-I 0 W/m 0,1 C -12,1 C 38,6 km/h (5 Bft)
12.01.2021 02:37 0,7 C 0,0 C 96 % 1015,2 hPa 0,0 l/m 27,4 km/h (4 Bft) S-SW 202 0 min 0,0 UV-I 0 W/m 0,1 C -11,6 C 37,0 km/h (5 Bft)
12.01.2021 02:38 0,7 C 0,0 C 96 % 1015,2 hPa 0,0 l/m 22,5 km/h (4 Bft) S-SW 202 0 min 0,0 UV-I 0 W/m 0,1 C -9,8 C 32,2 km/h (5 Bft)
12.01.2021 02:39 0,7 C 0,0 C 96 % 1015,2 hPa 0,0 l/m 24,1 km/h (4 Bft) S-SW 202 0 min 0,0 UV-I 0 W/m 0,1 C -10,4 C 32,2 km/h (5 Bft)
12.01.2021 02:40 0,7 C 0,0 C 96 % 1015,2 hPa 0,0 l/m 29,0 km/h (5 Bft) S-SW 202 0 min 0,0 UV-I 0 W/m 0,1 C -12,1 C 40,2 km/h (6 Bft)
12.01.2021 02:41 0,7 C 0,0 C 96 % 1015,2 hPa 0,0 l/m 32,2 km/h (5 Bft) S-SW 202 0 min 0,0 UV-I 0 W/m 0,1 C -13,1 C 43,5 km/h (6 Bft)
12.01.2021 02:42 0,7 C 0,0 C 96 % 1015,2 hPa 0,0 l/m 22,5 km/h (4 Bft) S-SW 202 0 min 0,0 UV-I 0 W/m 0,1 C -9,8 C 35,4 km/h (5 Bft)
12.01.2021 02:43 0,7 C 0,0 C 96 % 1015,3 hPa 0,0 l/m 22,5 km/h (4 Bft) S-SW 202 0 min 0,0 UV-I 0 W/m 0,1 C -9,8 C 32,2 km/h (5 Bft)
12.01.2021 02:44 0,7 C 0,0 C 96 % 1015,2 hPa 0,0 l/m 20,9 km/h (4 Bft) S-SW 202 0 min 0,0 UV-I 0 W/m 0,1 C -9,1 C 25,7 km/h (4 Bft)
12.01.2021 02:45 0,7 C 0,0 C 96 % 1015,2 hPa 0,0 l/m 27,4 km/h (4 Bft) S-SW 202 0 min 0,0 UV-I 0 W/m 0,1 C -11,6 C 32,2 km/h (5 Bft)
12.01.2021 02:46 0,7 C 0,0 C 96 % 1015,2 hPa 0,0 l/m 25,7 km/h (4 Bft) SW 225 0 min 0,0 UV-I 0 W/m 0,1 C -11,0 C 38,6 km/h (5 Bft)
12.01.2021 02:47 0,7 C 0,0 C 96 % 1015,2 hPa 0,0 l/m 22,5 km/h (4 Bft) S-SW 202 0 min 0,0 UV-I 0 W/m 0,1 C -9,8 C 32,2 km/h (5 Bft)
12.01.2021 02:48 0,7 C 0,0 C 96 % 1015,2 hPa 0,0 l/m 22,5 km/h (4 Bft) S-SW 202 0 min 0,0 UV-I 0 W/m 0,1 C -9,8 C 30,6 km/h (5 Bft)
12.01.2021 02:49 0,7 C 0,0 C 96 % 1015,1 hPa 0,0 l/m 19,3 km/h (3 Bft) S-SW 202 0 min 0,0 UV-I 0 W/m 0,1 C -8,4 C 24,1 km/h (4 Bft)
12.01.2021 02:50 0,7 C 0,0 C 96 % 1015,2 hPa 0,0 l/m 22,5 km/h (4 Bft) S-SW 202 0 min 0,0 UV-I 0 W/m 0,1 C -9,8 C 30,6 km/h (5 Bft)
12.01.2021 02:51 0,7 C 0,0 C 96 % 1015,2 hPa 0,0 l/m 17,7 km/h (3 Bft) S-SW 202 0 min 0,0 UV-I 0 W/m 0,1 C -7,6 C 22,5 km/h (4 Bft)
12.01.2021 02:52 0,7 C 0,0 C 96 % 1015,0 hPa 0,0 l/m 25,7 km/h (4 Bft) S-SW 202 0 min 0,0 UV-I 0 W/m 0,1 C -11,0 C 32,2 km/h (5 Bft)
12.01.2021 02:53 0,7 C 0,0 C 96 % 1015,2 hPa 0,0 l/m 19,3 km/h (3 Bft) S-SW 202 0 min 0,0 UV-I 0 W/m 0,1 C -8,4 C 25,7 km/h (4 Bft)
12.01.2021 02:54 0,7 C 0,0 C 96 % 1015,1 hPa 0,0 l/m 24,1 km/h (4 Bft) S-SW 202 0 min 0,0 UV-I 0 W/m 0,1 C -10,4 C 32,2 km/h (5 Bft)
12.01.2021 02:55 0,7 C 0,0 C 96 % 1015,0 hPa 0,0 l/m 22,5 km/h (4 Bft) SW 225 0 min 0,0 UV-I 0 W/m 0,1 C -9,8 C 33,8 km/h (5 Bft)
12.01.2021 02:56 0,7 C 0,0 C 96 % 1015,1 hPa 0,0 l/m 19,3 km/h (3 Bft) S-SW 202 0 min 0,0 UV-I 0 W/m 0,1 C -8,4 C 27,4 km/h (4 Bft)
12.01.2021 02:57 0,7 C 0,0 C 96 % 1015,0 hPa 0,0 l/m 24,1 km/h (4 Bft) S-SW 202 0 min 0,0 UV-I 0 W/m 0,1 C -10,4 C 32,2 km/h (5 Bft)
12.01.2021 02:58 0,7 C 0,0 C 96 % 1015,0 hPa 0,0 l/m 19,3 km/h (3 Bft) S-SW 202 0 min 0,0 UV-I 0 W/m 0,1 C -8,4 C 27,4 km/h (4 Bft)
12.01.2021 02:59 0,7 C 0,0 C 96 % 1015,0 hPa 0,0 l/m 17,7 km/h (3 Bft) S-SW 202 0 min 0,0 UV-I 0 W/m 0,1 C -7,6 C 22,5 km/h (4 Bft)
12.01.2021 03:00 0,7 C 0,0 C 96 % 1014,9 hPa 0,0 l/m 22,5 km/h (4 Bft) S-SW 202 0 min 0,0 UV-I 0 W/m 0,1 C -9,8 C 33,8 km/h (5 Bft)
12.01.2021 03:01 0,7 C 0,0 C 96 % 1014,8 hPa 0,0 l/m 20,9 km/h (4 Bft) S-SW 202 0 min 0,0 UV-I 0 W/m 0,1 C -9,1 C 27,4 km/h (4 Bft)
12.01.2021 03:02 0,7 C 0,0 C 96 % 1014,9 hPa 0,0 l/m 19,3 km/h (3 Bft) S-SW 202 0 min 0,0 UV-I 0 W/m 0,1 C -8,4 C 25,7 km/h (4 Bft)
12.01.2021 03:03 0,7 C 0,0 C 96 % 1014,9 hPa 0,2 l/m 24,1 km/h (4 Bft) S-SW 202 0 min 0,0 UV-I 0 W/m 0,1 C -10,4 C 35,4 km/h (5 Bft)
12.01.2021 03:04 0,7 C 0,0 C 96 % 1014,8 hPa 0,0 l/m 19,3 km/h (3 Bft) S-SW 202 0 min 0,0 UV-I 0 W/m 0,1 C -8,4 C 30,6 km/h (5 Bft)
12.01.2021 03:05 0,7 C 0,0 C 96 % 1014,9 hPa 0,0 l/m 22,5 km/h (4 Bft) S-SW 202 0 min 0,0 UV-I 0 W/m 0,1 C -9,8 C 30,6 km/h (5 Bft)
12.01.2021 03:06 0,7 C 0,0 C 96 % 1014,8 hPa 0,0 l/m 22,5 km/h (4 Bft) S-SW 202 0 min 0,0 UV-I 0 W/m 0,1 C -9,8 C 32,2 km/h (5 Bft)
12.01.2021 03:07 0,7 C 0,0 C 96 % 1014,8 hPa 0,0 l/m 19,3 km/h (3 Bft) S-SW 202 0 min 0,0 UV-I 0 W/m 0,1 C -8,4 C 25,7 km/h (4 Bft)
12.01.2021 03:08 0,7 C 0,0 C 96 % 1014,8 hPa 0,0 l/m 17,7 km/h (3 Bft) S-SW 202 0 min 0,0 UV-I 0 W/m 0,1 C -7,6 C 25,7 km/h (4 Bft)
12.01.2021 03:09 0,7 C 0,0 C 96 % 1014,8 hPa 0,0 l/m 17,7 km/h (3 Bft) S-SW 202 0 min 0,0 UV-I 0 W/m 0,1 C -7,6 C 29,0 km/h (5 Bft)
12.01.2021 03:10 0,7 C 0,0 C 96 % 1014,7 hPa 0,0 l/m 22,5 km/h (4 Bft) S-SW 202 0 min 0,0 UV-I 0 W/m 0,1 C -9,8 C 37,0 km/h (5 Bft)
12.01.2021 03:11 0,7 C 0,0 C 96 % 1014,8 hPa 0,0 l/m 24,1 km/h (4 Bft) S-SW 202 0 min 0,0 UV-I 0 W/m 0,1 C -10,4 C 35,4 km/h (5 Bft)
12.01.2021 03:12 0,7 C 0,0 C 96 % 1014,7 hPa 0,0 l/m 24,1 km/h (4 Bft) S-SW 202 0 min 0,0 UV-I 0 W/m 0,1 C -10,4 C 35,4 km/h (5 Bft)
12.01.2021 03:13 0,7 C 0,0 C 96 % 1014,7 hPa 0,0 l/m 25,7 km/h (4 Bft) S-SW 202 0 min 0,0 UV-I 0 W/m 0,1 C -11,0 C 30,6 km/h (5 Bft)
12.01.2021 03:14 0,7 C 0,0 C 96 % 1014,8 hPa 0,0 l/m 20,9 km/h (4 Bft) S-SW 202 0 min 0,0 UV-I 0 W/m 0,1 C -9,1 C 27,4 km/h (4 Bft)
12.01.2021 03:15 0,7 C 0,0 C 96 % 1014,7 hPa 0,0 l/m 20,9 km/h (4 Bft) S-SW 202 0 min 0,0 UV-I 0 W/m 0,1 C -9,1 C 33,8 km/h (5 Bft)
12.01.2021 03:16 0,7 C 0,0 C 96 % 1014,7 hPa 0,0 l/m 27,4 km/h (4 Bft) S-SW 202 0 min 0,0 UV-I 0 W/m 0,1 C -11,6 C 37,0 km/h (5 Bft)
12.01.2021 03:17 0,7 C 0,0 C 96 % 1014,7 hPa 0,0 l/m 19,3 km/h (3 Bft) S-SW 202 0 min 0,0 UV-I 0 W/m 0,1 C -8,4 C 22,5 km/h (4 Bft)
12.01.2021 03:18 0,7 C 0,0 C 96 % 1014,6 hPa 0,2 l/m 24,1 km/h (4 Bft) S-SW 202 0 min 0,0 UV-I 0 W/m 0,1 C -10,4 C 30,6 km/h (5 Bft)
12.01.2021 03:19 0,7 C 0,0 C 96 % 1014,6 hPa 0,0 l/m 20,9 km/h (4 Bft) S 180 0 min 0,0 UV-I 0 W/m 0,1 C -9,1 C 32,2 km/h (5 Bft)
12.01.2021 03:20 0,7 C 0,0 C 96 % 1014,5 hPa 0,0 l/m 14,5 km/h (3 Bft) S 180 0 min 0,0 UV-I 0 W/m 0,1 C -5,8 C 25,7 km/h (4 Bft)
12.01.2021 03:21 0,7 C 0,0 C 96 % 1014,5 hPa 0,0 l/m 20,9 km/h (4 Bft) S-SW 202 0 min 0,0 UV-I 0 W/m 0,1 C -9,1 C 33,8 km/h (5 Bft)
12.01.2021 03:22 0,7 C 0,0 C 96 % 1014,5 hPa 0,0 l/m 19,3 km/h (3 Bft) S-SW 202 0 min 0,0 UV-I 0 W/m 0,1 C -8,4 C 30,6 km/h (5 Bft)
12.01.2021 03:23 0,7 C 0,0 C 96 % 1014,5 hPa 0,0 l/m 22,5 km/h (4 Bft) S-SW 202 0 min 0,0 UV-I 0 W/m 0,1 C -9,8 C 33,8 km/h (5 Bft)
12.01.2021 03:24 0,7 C 0,0 C 96 % 1014,5 hPa 0,0 l/m 17,7 km/h (3 Bft) S-SW 202 0 min 0,0 UV-I 0 W/m 0,1 C -7,6 C 22,5 km/h (4 Bft)
12.01.2021 03:25 0,6 C 0,0 C 96 % 1014,6 hPa 0,0 l/m 17,7 km/h (3 Bft) S-SW 202 0 min 0,0 UV-I 0 W/m 0,0 C -7,7 C 25,7 km/h (4 Bft)
12.01.2021 03:26 0,7 C 0,0 C 96 % 1014,5 hPa 0,0 l/m 22,5 km/h (4 Bft) S-SW 202 0 min 0,0 UV-I 0 W/m 0,1 C -9,8 C 37,0 km/h (5 Bft)
12.01.2021 03:27 0,7 C 0,0 C 96 % 1014,5 hPa 0,0 l/m 20,9 km/h (4 Bft) S-SW 202 0 min 0,0 UV-I 0 W/m 0,1 C -9,1 C 27,4 km/h (4 Bft)
12.01.2021 03:28 0,7 C 0,0 C 96 % 1014,5 hPa 0,0 l/m 19,3 km/h (3 Bft) S-SW 202 0 min 0,0 UV-I 0 W/m 0,1 C -8,4 C 22,5 km/h (4 Bft)
12.01.2021 03:29 0,7 C 0,0 C 96 % 1014,4 hPa 0,2 l/m 22,5 km/h (4 Bft) S-SW 202 0 min 0,0 UV-I 0 W/m 0,1 C -9,8 C 30,6 km/h (5 Bft)
12.01.2021 03:30 0,7 C 0,0 C 96 % 1014,4 hPa 0,0 l/m 22,5 km/h (4 Bft) S-SW 202 0 min 0,0 UV-I 0 W/m 0,1 C -9,8 C 30,6 km/h (5 Bft)
12.01.2021 03:31 0,7 C 0,0 C 96 % 1014,4 hPa 0,0 l/m 19,3 km/h (3 Bft) S 180 0 min 0,0 UV-I 0 W/m 0,1 C -8,4 C 37,0 km/h (5 Bft)
12.01.2021 03:32 0,7 C 0,0 C 96 % 1014,5 hPa 0,0 l/m 19,3 km/h (3 Bft) S-SW 202 0 min 0,0 UV-I 0 W/m 0,1 C -8,4 C 27,4 km/h (4 Bft)
12.01.2021 03:33 0,7 C 0,0 C 96 % 1014,4 hPa 0,0 l/m 22,5 km/h (4 Bft) S-SW 202 0 min 0,0 UV-I 0 W/m 0,1 C -9,8 C 38,6 km/h (5 Bft)
12.01.2021 03:34 0,7 C 0,0 C 96 % 1014,3 hPa 0,0 l/m 22,5 km/h (4 Bft) S-SW 202 0 min 0,0 UV-I 0 W/m 0,1 C -9,8 C 38,6 km/h (5 Bft)
12.01.2021 03:35 0,7 C 0,0 C 96 % 1014,4 hPa 0,0 l/m 20,9 km/h (4 Bft) S-SW 202 0 min 0,0 UV-I 0 W/m 0,1 C -9,1 C 27,4 km/h (4 Bft)
12.01.2021 03:36 0,7 C 0,0 C 96 % 1014,4 hPa 0,0 l/m 19,3 km/h (3 Bft) S-SW 202 0 min 0,0 UV-I 0 W/m 0,1 C -8,4 C 30,6 km/h (5 Bft)
12.01.2021 03:37 0,7 C 0,0 C 96 % 1014,4 hPa 0,0 l/m 22,5 km/h (4 Bft) S-SW 202 0 min 0,0 UV-I 0 W/m 0,1 C -9,8 C 30,6 km/h (5 Bft)
12.01.2021 03:38 0,7 C 0,0 C 96 % 1014,4 hPa 0,0 l/m 29,0 km/h (5 Bft) S-SW 202 0 min 0,0 UV-I 0 W/m 0,1 C -12,1 C 40,2 km/h (6 Bft)
12.01.2021 03:39 0,7 C 0,0 C 96 % 1014,3 hPa 0,0 l/m 25,7 km/h (4 Bft) S-SW 202 0 min 0,0 UV-I 0 W/m 0,1 C -11,0 C 33,8 km/h (5 Bft)
12.01.2021 03:40 0,7 C 0,0 C 96 % 1014,4 hPa 0,0 l/m 20,9 km/h (4 Bft) S-SW 202 0 min 0,0 UV-I 0 W/m 0,1 C -9,1 C 32,2 km/h (5 Bft)
12.01.2021 03:41 0,7 C 0,0 C 96 % 1014,3 hPa 0,0 l/m 20,9 km/h (4 Bft) S-SW 202 0 min 0,0 UV-I 0 W/m 0,1 C -9,1 C 27,4 km/h (4 Bft)
12.01.2021 03:42 0,7 C 0,0 C 96 % 1014,4 hPa 0,0 l/m 16,1 km/h (3 Bft) S-SW 202 0 min 0,0 UV-I 0 W/m 0,1 C -6,8 C 24,1 km/h (4 Bft)
12.01.2021 03:43 0,7 C 0,0 C 96 % 1014,3 hPa 0,0 l/m 20,9 km/h (4 Bft) S-SW 202 0 min 0,0 UV-I 0 W/m 0,1 C -9,1 C 29,0 km/h (5 Bft)
12.01.2021 03:44 0,7 C 0,0 C 96 % 1014,3 hPa 0,0 l/m 30,6 km/h (5 Bft) S-SW 202 0 min 0,0 UV-I 0 W/m 0,1 C -12,6 C 37,0 km/h (5 Bft)
12.01.2021 03:45 0,7 C 0,0 C 96 % 1014,4 hPa 0,2 l/m 22,5 km/h (4 Bft) S-SW 202 0 min 0,0 UV-I 0 W/m 0,1 C -9,8 C 30,6 km/h (5 Bft)
12.01.2021 03:46 0,7 C 0,0 C 96 % 1014,2 hPa 0,0 l/m 19,3 km/h (3 Bft) S-SW 202 0 min 0,0 UV-I 0 W/m 0,1 C -8,4 C 24,1 km/h (4 Bft)
12.01.2021 03:47 0,7 C 0,0 C 96 % 1014,2 hPa 0,0 l/m 16,1 km/h (3 Bft) S-SW 202 0 min 0,0 UV-I 0 W/m 0,1 C -6,8 C 24,1 km/h (4 Bft)
12.01.2021 03:48 0,7 C 0,0 C 96 % 1014,3 hPa 0,0 l/m 19,3 km/h (3 Bft) S-SW 202 0 min 0,0 UV-I 0 W/m 0,1 C -8,4 C 30,6 km/h (5 Bft)
12.01.2021 03:49 0,7 C 0,0 C 96 % 1014,3 hPa 0,0 l/m 22,5 km/h (4 Bft) S-SW 202 0 min 0,0 UV-I 0 W/m 0,1 C -9,8 C 29,0 km/h (5 Bft)
12.01.2021 03:50 0,7 C 0,0 C 96 % 1014,2 hPa 0,0 l/m 22,5 km/h (4 Bft) S-SW 202 0 min 0,0 UV-I 0 W/m 0,1 C -9,8 C 30,6 km/h (5 Bft)
12.01.2021 03:51 0,7 C 0,0 C 96 % 1014,3 hPa 0,0 l/m 20,9 km/h (4 Bft) S-SW 202 0 min 0,0 UV-I 0 W/m 0,1 C -9,1 C 29,0 km/h (5 Bft)
12.01.2021 03:52 0,7 C 0,0 C 96 % 1014,3 hPa 0,0 l/m 19,3 km/h (3 Bft) S-SW 202 0 min 0,0 UV-I 0 W/m 0,1 C -8,4 C 25,7 km/h (4 Bft)
12.01.2021 03:53 0,7 C 0,0 C 96 % 1014,3 hPa 0,0 l/m 17,7 km/h (3 Bft) S-SW 202 0 min 0,0 UV-I 0 W/m 0,1 C -7,6 C 24,1 km/h (4 Bft)
12.01.2021 03:54 0,7 C 0,0 C 96 % 1014,3 hPa 0,0 l/m 19,3 km/h (3 Bft) S-SW 202 0 min 0,0 UV-I 0 W/m 0,1 C -8,4 C 25,7 km/h (4 Bft)
12.01.2021 03:55 0,7 C 0,0 C 96 % 1014,2 hPa 0,0 l/m 20,9 km/h (4 Bft) S-SW 202 0 min 0,0 UV-I 0 W/m 0,1 C -9,1 C 27,4 km/h (4 Bft)
12.01.2021 03:56 0,7 C 0,0 C 96 % 1014,2 hPa 0,0 l/m 20,9 km/h (4 Bft) S-SW 202 0 min 0,0 UV-I 0 W/m 0,1 C -9,1 C 25,7 km/h (4 Bft)
12.01.2021 03:57 0,7 C 0,0 C 96 % 1014,2 hPa 0,0 l/m 20,9 km/h (4 Bft) S-SW 202 0 min 0,0 UV-I 0 W/m 0,1 C -9,1 C 27,4 km/h (4 Bft)
12.01.2021 03:58 0,7 C 0,0 C 96 % 1014,2 hPa 0,0 l/m 17,7 km/h (3 Bft) S-SW 202 0 min 0,0 UV-I 0 W/m 0,1 C -7,6 C 24,1 km/h (4 Bft)
12.01.2021 03:59 0,7 C 0,0 C 96 % 1014,2 hPa 0,0 l/m 22,5 km/h (4 Bft) S-SW 202 0 min 0,0 UV-I 0 W/m 0,1 C -9,8 C 30,6 km/h (5 Bft)
12.01.2021 04:00 0,7 C 0,0 C 96 % 1014,2 hPa 0,2 l/m 17,7 km/h (3 Bft) S-SW 202 0 min 0,0 UV-I 0 W/m 0,1 C -7,6 C 24,1 km/h (4 Bft)
12.01.2021 04:01 0,7 C 0,0 C 96 % 1014,2 hPa 0,0 l/m 24,1 km/h (4 Bft) S-SW 202 0 min 0,0 UV-I 0 W/m 0,1 C -10,4 C 30,6 km/h (5 Bft)
12.01.2021 04:02 0,7 C 0,0 C 96 % 1014,1 hPa 0,0 l/m 24,1 km/h (4 Bft) S-SW 202 0 min 0,0 UV-I 0 W/m 0,1 C -10,4 C 37,0 km/h (5 Bft)
12.01.2021 04:03 0,7 C 0,0 C 96 % 1014,2 hPa 0,0 l/m 19,3 km/h (3 Bft) S-SW 202 0 min 0,0 UV-I 0 W/m 0,1 C -8,4 C 29,0 km/h (5 Bft)
12.01.2021 04:04 0,7 C 0,0 C 96 % 1014,0 hPa 0,0 l/m 19,3 km/h (3 Bft) S 180 0 min 0,0 UV-I 0 W/m 0,1 C -8,4 C 29,0 km/h (5 Bft)
12.01.2021 04:05 0,7 C 0,0 C 96 % 1014,0 hPa 0,0 l/m 19,3 km/h (3 Bft) S-SW 202 0 min 0,0 UV-I 0 W/m 0,1 C -8,4 C 29,0 km/h (5 Bft)
12.01.2021 04:06 0,7 C 0,0 C 96 % 1013,9 hPa 0,0 l/m 19,3 km/h (3 Bft) S-SW 202 0 min 0,0 UV-I 0 W/m 0,1 C -8,4 C 24,1 km/h (4 Bft)
12.01.2021 04:07 0,7 C 0,0 C 96 % 1013,9 hPa 0,0 l/m 19,3 km/h (3 Bft) S-SW 202 0 min 0,0 UV-I 0 W/m 0,1 C -8,4 C 25,7 km/h (4 Bft)
12.01.2021 04:08 0,7 C 0,0 C 96 % 1013,9 hPa 0,2 l/m 16,1 km/h (3 Bft) S-SW 202 0 min 0,0 UV-I 0 W/m 0,1 C -6,8 C 24,1 km/h (4 Bft)
12.01.2021 04:09 0,7 C 0,0 C 96 % 1013,8 hPa 0,0 l/m 20,9 km/h (4 Bft) S-SW 202 0 min 0,0 UV-I 0 W/m 0,1 C -9,1 C 29,0 km/h (5 Bft)
12.01.2021 04:10 0,7 C 0,0 C 96 % 1013,9 hPa 0,0 l/m 19,3 km/h (3 Bft) S-SW 202 0 min 0,0 UV-I 0 W/m 0,1 C -8,4 C 25,7 km/h (4 Bft)
12.01.2021 04:11 0,7 C 0,0 C 96 % 1013,9 hPa 0,0 l/m 22,5 km/h (4 Bft) S-SW 202 0 min 0,0 UV-I 0 W/m 0,1 C -9,8 C 29,0 km/h (5 Bft)
12.01.2021 04:12 0,7 C 0,0 C 96 % 1013,8 hPa 0,0 l/m 16,1 km/h (3 Bft) S-SW 202 0 min 0,0 UV-I 0 W/m 0,1 C -6,8 C 27,4 km/h (4 Bft)
12.01.2021 04:13 0,7 C 0,0 C 96 % 1013,7 hPa 0,0 l/m 19,3 km/h (3 Bft) S-SW 202 0 min 0,0 UV-I 0 W/m 0,1 C -8,4 C 27,4 km/h (4 Bft)
12.01.2021 04:14 0,7 C 0,0 C 96 % 1013,8 hPa 0,0 l/m 14,5 km/h (3 Bft) S-SW 202 0 min 0,0 UV-I 0 W/m 0,1 C -5,8 C 24,1 km/h (4 Bft)
12.01.2021 04:15 0,7 C 0,0 C 96 % 1013,7 hPa 0,0 l/m 16,1 km/h (3 Bft) S-SW 202 0 min 0,0 UV-I 0 W/m 0,1 C -6,8 C 22,5 km/h (4 Bft)
12.01.2021 04:16 0,7 C 0,0 C 96 % 1013,7 hPa 0,0 l/m 22,5 km/h (4 Bft) S-SW 202 0 min 0,0 UV-I 0 W/m 0,1 C -9,8 C 32,2 km/h (5 Bft)
12.01.2021 04:17 0,7 C 0,0 C 96 % 1013,6 hPa 0,0 l/m 17,7 km/h (3 Bft) S-SW 202 0 min 0,0 UV-I 0 W/m 0,1 C -7,6 C 22,5 km/h (4 Bft)
12.01.2021 04:18 0,7 C 0,0 C 96 % 1013,7 hPa 0,2 l/m 20,9 km/h (4 Bft) S-SW 202 0 min 0,0 UV-I 0 W/m 0,1 C -9,1 C 29,0 km/h (5 Bft)
12.01.2021 04:19 0,7 C 0,0 C 96 % 1013,5 hPa 0,0 l/m 16,1 km/h (3 Bft) S-SW 202 0 min 0,0 UV-I 0 W/m 0,1 C -6,8 C 24,1 km/h (4 Bft)
12.01.2021 04:20 0,7 C 0,0 C 96 % 1013,5 hPa 0,0 l/m 19,3 km/h (3 Bft) S-SW 202 0 min 0,0 UV-I 0 W/m 0,1 C -8,4 C 25,7 km/h (4 Bft)
12.01.2021 04:21 0,7 C 0,0 C 96 % 1013,5 hPa 0,0 l/m 19,3 km/h (3 Bft) S-SW 202 0 min 0,0 UV-I 0 W/m 0,1 C -8,4 C 25,7 km/h (4 Bft)
12.01.2021 04:22 0,7 C 0,0 C 96 % 1013,4 hPa 0,0 l/m 16,1 km/h (3 Bft) S-SW 202 0 min 0,0 UV-I 0 W/m 0,1 C -6,8 C 22,5 km/h (4 Bft)
12.01.2021 04:23 0,7 C 0,0 C 96 % 1013,5 hPa 0,0 l/m 19,3 km/h (3 Bft) S-SW 202 0 min 0,0 UV-I 0 W/m 0,1 C -8,4 C 27,4 km/h (4 Bft)
12.01.2021 04:24 0,7 C 0,0 C 96 % 1013,5 hPa 0,0 l/m 17,7 km/h (3 Bft) S-SW 202 0 min 0,0 UV-I 0 W/m 0,1 C -7,6 C 24,1 km/h (4 Bft)
12.01.2021 04:25 0,7 C 0,0 C 96 % 1013,4 hPa 0,0 l/m 19,3 km/h (3 Bft) S-SW 202 0 min 0,0 UV-I 0 W/m 0,1 C -8,4 C 27,4 km/h (4 Bft)
12.01.2021 04:26 0,7 C 0,0 C 96 % 1013,5 hPa 0,0 l/m 17,7 km/h (3 Bft) S-SW 202 0 min 0,0 UV-I 0 W/m 0,1 C -7,6 C 22,5 km/h (4 Bft)
12.01.2021 04:27 0,7 C 0,0 C 96 % 1013,4 hPa 0,0 l/m 14,5 km/h (3 Bft) S-SW 202 0 min 0,0 UV-I 0 W/m 0,1 C -5,8 C 19,3 km/h (3 Bft)
12.01.2021 04:28 0,6 C 0,0 C 96 % 1013,4 hPa 0,0 l/m 16,1 km/h (3 Bft) S-SW 202 0 min 0,0 UV-I 0 W/m 0,0 C -6,9 C 22,5 km/h (4 Bft)
12.01.2021 04:29 0,7 C 0,0 C 96 % 1013,5 hPa 0,0 l/m 16,1 km/h (3 Bft) S-SW 202 0 min 0,0 UV-I 0 W/m 0,1 C -6,8 C 25,7 km/h (4 Bft)
12.01.2021 04:30 0,6 C 0,0 C 96 % 1013,4 hPa 0,0 l/m 16,1 km/h (3 Bft) S-SW 202 0 min 0,0 UV-I 0 W/m 0,0 C -6,9 C 24,1 km/h (4 Bft)
12.01.2021 04:31 0,6 C 0,0 C 96 % 1013,4 hPa 0,2 l/m 14,5 km/h (3 Bft) S-SW 202 0 min 0,0 UV-I 0 W/m 0,0 C -6,0 C 22,5 km/h (4 Bft)
12.01.2021 04:32 0,7 C 0,0 C 96 % 1013,4 hPa 0,0 l/m 17,7 km/h (3 Bft) S-SW 202 0 min 0,0 UV-I 0 W/m 0,1 C -7,6 C 20,9 km/h (4 Bft)
12.01.2021 04:33 0,7 C 0,0 C 96 % 1013,4 hPa 0,0 l/m 19,3 km/h (3 Bft) S-SW 202 0 min 0,0 UV-I 0 W/m 0,1 C -8,4 C 25,7 km/h (4 Bft)
12.01.2021 04:34 0,7 C 0,0 C 96 % 1013,4 hPa 0,0 l/m 20,9 km/h (4 Bft) S-SW 202 0 min 0,0 UV-I 0 W/m 0,1 C -9,1 C 27,4 km/h (4 Bft)
12.01.2021 04:35 0,6 C 0,0 C 96 % 1013,3 hPa 0,0 l/m 20,9 km/h (4 Bft) S-SW 202 0 min 0,0 UV-I 0 W/m 0,0 C -9,3 C 25,7 km/h (4 Bft)
12.01.2021 04:36 0,7 C 0,0 C 96 % 1013,4 hPa 0,0 l/m 17,7 km/h (3 Bft) S-SW 202 0 min 0,0 UV-I 0 W/m 0,1 C -7,6 C 24,1 km/h (4 Bft)
12.01.2021 04:37 0,7 C 0,0 C 96 % 1013,4 hPa 0,0 l/m 17,7 km/h (3 Bft) S-SW 202 0 min 0,0 UV-I 0 W/m 0,1 C -7,6 C 24,1 km/h (4 Bft)
12.01.2021 04:38 0,7 C 0,0 C 96 % 1013,4 hPa 0,0 l/m 14,5 km/h (3 Bft) S-SW 202 0 min 0,0 UV-I 0 W/m 0,1 C -5,8 C 20,9 km/h (4 Bft)
12.01.2021 04:39 0,6 C 0,0 C 96 % 1013,4 hPa 0,0 l/m 22,5 km/h (4 Bft) S-SW 202 0 min 0,0 UV-I 0 W/m 0,0 C -9,9 C 29,0 km/h (5 Bft)
12.01.2021 04:40 0,6 C 0,0 C 96 % 1013,4 hPa 0,0 l/m 17,7 km/h (3 Bft) S-SW 202 0 min 0,0 UV-I 0 W/m 0,0 C -7,7 C 24,1 km/h (4 Bft)
12.01.2021 04:41 0,7 C 0,0 C 96 % 1013,4 hPa 0,0 l/m 17,7 km/h (3 Bft) S-SW 202 0 min 0,0 UV-I 0 W/m 0,1 C -7,6 C 25,7 km/h (4 Bft)
12.01.2021 04:42 0,6 C 0,0 C 96 % 1013,3 hPa 0,0 l/m 20,9 km/h (4 Bft) S-SW 202 0 min 0,0 UV-I 0 W/m 0,0 C -9,3 C 25,7 km/h (4 Bft)
12.01.2021 04:43 0,7 C 0,0 C 96 % 1013,3 hPa 0,0 l/m 20,9 km/h (4 Bft) S-SW 202 0 min 0,0 UV-I 0 W/m 0,1 C -9,1 C 29,0 km/h (5 Bft)
12.01.2021 04:44 0,6 C 0,0 C 96 % 1013,3 hPa 0,0 l/m 16,1 km/h (3 Bft) S-SW 202 0 min 0,0 UV-I 0 W/m 0,0 C -6,9 C 25,7 km/h (4 Bft)
12.01.2021 04:45 0,7 C 0,0 C 96 % 1013,3 hPa 0,0 l/m 17,7 km/h (3 Bft) S-SW 202 0 min 0,0 UV-I 0 W/m 0,1 C -7,6 C 24,1 km/h (4 Bft)
12.01.2021 04:46 0,6 C 0,0 C 96 % 1013,2 hPa 0,2 l/m 17,7 km/h (3 Bft) S-SW 202 0 min 0,0 UV-I 0 W/m 0,0 C -7,7 C 30,6 km/h (5 Bft)
12.01.2021 04:47 0,6 C 0,0 C 96 % 1013,3 hPa 0,0 l/m 22,5 km/h (4 Bft) S-SW 202 0 min 0,0 UV-I 0 W/m 0,0 C -9,9 C 29,0 km/h (5 Bft)
12.01.2021 04:48 0,6 C 0,0 C 96 % 1013,2 hPa 0,0 l/m 19,3 km/h (3 Bft) S-SW 202 0 min 0,0 UV-I 0 W/m 0,0 C -8,5 C 25,7 km/h (4 Bft)
12.01.2021 04:49 0,7 C 0,0 C 96 % 1013,1 hPa 0,0 l/m 17,7 km/h (3 Bft) S-SW 202 0 min 0,0 UV-I 0 W/m 0,1 C -7,6 C 22,5 km/h (4 Bft)
12.01.2021 04:50 0,6 C 0,0 C 96 % 1013,1 hPa 0,0 l/m 16,1 km/h (3 Bft) S-SW 202 0 min 0,0 UV-I 0 W/m 0,0 C -6,9 C 29,0 km/h (5 Bft)
12.01.2021 04:51 0,6 C 0,0 C 96 % 1013,2 hPa 0,0 l/m 16,1 km/h (3 Bft) S-SW 202 0 min 0,0 UV-I 0 W/m 0,0 C -6,9 C 22,5 km/h (4 Bft)
12.01.2021 04:52 0,6 C 0,0 C 96 % 1012,9 hPa 0,2 l/m 17,7 km/h (3 Bft) S-SW 202 0 min 0,0 UV-I 0 W/m 0,0 C -7,7 C 20,9 km/h (4 Bft)
12.01.2021 04:53 0,6 C 0,0 C 96 % 1013,0 hPa 0,0 l/m 19,3 km/h (3 Bft) S-SW 202 0 min 0,0 UV-I 0 W/m 0,0 C -8,5 C 25,7 km/h (4 Bft)
12.01.2021 04:54 0,7 C 0,0 C 96 % 1013,0 hPa 0,0 l/m 22,5 km/h (4 Bft) S-SW 202 0 min 0,0 UV-I 0 W/m 0,1 C -9,8 C 29,0 km/h (5 Bft)
12.01.2021 04:55 0,7 C 0,0 C 96 % 1013,1 hPa 0,0 l/m 19,3 km/h (3 Bft) S-SW 202 0 min 0,0 UV-I 0 W/m 0,1 C -8,4 C 27,4 km/h (4 Bft)
12.01.2021 04:56 0,7 C 0,0 C 96 % 1013,1 hPa 0,0 l/m 24,1 km/h (4 Bft) S-SW 202 0 min 0,0 UV-I 0 W/m 0,1 C -10,4 C 32,2 km/h (5 Bft)
12.01.2021 04:57 0,6 C 0,0 C 96 % 1013,0 hPa 0,2 l/m 19,3 km/h (3 Bft) S-SW 202 0 min 0,0 UV-I 0 W/m 0,0 C -8,5 C 29,0 km/h (5 Bft)
12.01.2021 04:58 0,7 C 0,0 C 96 % 1013,0 hPa 0,0 l/m 19,3 km/h (3 Bft) S-SW 202 0 min 0,0 UV-I 0 W/m 0,1 C -8,4 C 24,1 km/h (4 Bft)
12.01.2021 04:59 0,6 C 0,0 C 96 % 1013,0 hPa 0,0 l/m 16,1 km/h (3 Bft) S-SW 202 0 min 0,0 UV-I 0 W/m 0,0 C -6,9 C 25,7 km/h (4 Bft)
12.01.2021 05:00 0,6 C 0,0 C 96 % 1013,0 hPa 0,0 l/m 17,7 km/h (3 Bft) S-SW 202 0 min 0,0 UV-I 0 W/m 0,0 C -7,7 C 24,1 km/h (4 Bft)
12.01.2021 05:01 0,6 C 0,0 C 96 % 1013,0 hPa 0,0 l/m 16,1 km/h (3 Bft) S-SW 202 0 min 0,0 UV-I 0 W/m 0,0 C -6,9 C 20,9 km/h (4 Bft)
12.01.2021 05:02 0,6 C 0,0 C 96 % 1013,0 hPa 0,0 l/m 17,7 km/h (3 Bft) S-SW 202 0 min 0,0 UV-I 0 W/m 0,0 C -7,7 C 22,5 km/h (4 Bft)
12.01.2021 05:03 0,6 C 0,0 C 96 % 1012,9 hPa 0,0 l/m 14,5 km/h (3 Bft) S-SW 202 0 min 0,0 UV-I 0 W/m 0,0 C -6,0 C 24,1 km/h (4 Bft)
12.01.2021 05:04 0,6 C 0,0 C 96 % 1012,9 hPa 0,0 l/m 17,7 km/h (3 Bft) S-SW 202 0 min 0,0 UV-I 0 W/m 0,0 C -7,7 C 24,1 km/h (4 Bft)
12.01.2021 05:05 0,6 C 0,0 C 96 % 1012,9 hPa 0,0 l/m 16,1 km/h (3 Bft) S-SW 202 0 min 0,0 UV-I 0 W/m 0,0 C -6,9 C 24,1 km/h (4 Bft)
12.01.2021 05:06 0,6 C 0,0 C 96 % 1012,9 hPa 0,0 l/m 17,7 km/h (3 Bft) S-SW 202 0 min 0,0 UV-I 0 W/m 0,0 C -7,7 C 24,1 km/h (4 Bft)
12.01.2021 05:07 0,6 C 0,0 C 96 % 1012,8 hPa 0,0 l/m 16,1 km/h (3 Bft) S-SW 202 0 min 0,0 UV-I 0 W/m 0,0 C -6,9 C 19,3 km/h (3 Bft)
12.01.2021 05:08 0,6 C 0,0 C 96 % 1012,9 hPa 0,0 l/m 16,1 km/h (3 Bft) S-SW 202 0 min 0,0 UV-I 0 W/m 0,0 C -6,9 C 24,1 km/h (4 Bft)
12.01.2021 05:09 0,6 C 0,0 C 96 % 1012,9 hPa 0,0 l/m 16,1 km/h (3 Bft) S-SW 202 0 min 0,0 UV-I 0 W/m 0,0 C -6,9 C 30,6 km/h (5 Bft)
12.01.2021 05:10 0,6 C 0,0 C 96 % 1012,8 hPa 0,2 l/m 19,3 km/h (3 Bft) S-SW 202 0 min 0,0 UV-I 0 W/m 0,0 C -8,5 C 25,7 km/h (4 Bft)
12.01.2021 05:11 0,6 C 0,0 C 96 % 1012,8 hPa 0,0 l/m 16,1 km/h (3 Bft) S-SW 202 0 min 0,0 UV-I 0 W/m 0,0 C -6,9 C 24,1 km/h (4 Bft)
12.01.2021 05:12 0,6 C 0,0 C 96 % 1012,8 hPa 0,0 l/m 11,3 km/h (2 Bft) S-SW 202 0 min 0,0 UV-I 0 W/m 0,0 C -3,8 C 19,3 km/h (3 Bft)
12.01.2021 05:13 0,6 C 0,0 C 96 % 1012,8 hPa 0,0 l/m 14,5 km/h (3 Bft) S-SW 202 0 min 0,0 UV-I 0 W/m 0,0 C -6,0 C 20,9 km/h (4 Bft)
12.01.2021 05:14 0,6 C 0,0 C 96 % 1012,7 hPa 0,0 l/m 17,7 km/h (3 Bft) S-SW 202 0 min 0,0 UV-I 0 W/m 0,0 C -7,7 C 22,5 km/h (4 Bft)
12.01.2021 05:15 0,6 C 0,0 C 96 % 1012,7 hPa 0,0 l/m 16,1 km/h (3 Bft) S-SW 202 0 min 0,0 UV-I 0 W/m 0,0 C -6,9 C 20,9 km/h (4 Bft)
12.01.2021 05:16 0,6 C 0,0 C 96 % 1012,6 hPa 0,2 l/m 20,9 km/h (4 Bft) S-SW 202 0 min 0,0 UV-I 0 W/m 0,0 C -9,3 C 30,6 km/h (5 Bft)
12.01.2021 05:17 0,6 C 0,0 C 96 % 1012,7 hPa 0,0 l/m 20,9 km/h (4 Bft) S-SW 202 0 min 0,0 UV-I 0 W/m 0,0 C -9,3 C 29,0 km/h (5 Bft)
12.01.2021 05:18 0,6 C 0,0 C 96 % 1012,7 hPa 0,0 l/m 17,7 km/h (3 Bft) S 180 0 min 0,0 UV-I 0 W/m 0,0 C -7,7 C 25,7 km/h (4 Bft)
12.01.2021 05:19 0,6 C 0,0 C 96 % 1012,7 hPa 0,0 l/m 17,7 km/h (3 Bft) S-SW 202 0 min 0,0 UV-I 0 W/m 0,0 C -7,7 C 22,5 km/h (4 Bft)
12.01.2021 05:20 0,6 C 0,0 C 96 % 1012,6 hPa 0,0 l/m 17,7 km/h (3 Bft) S-SW 202 0 min 0,0 UV-I 0 W/m 0,0 C -7,7 C 22,5 km/h (4 Bft)
12.01.2021 05:21 0,6 C 0,0 C 96 % 1012,6 hPa 0,0 l/m 12,9 km/h (3 Bft) S-SW 202 0 min 0,0 UV-I 0 W/m 0,0 C -4,9 C 19,3 km/h (3 Bft)
12.01.2021 05:22 0,6 C 0,0 C 96 % 1012,5 hPa 0,0 l/m 16,1 km/h (3 Bft) S-SW 202 0 min 0,0 UV-I 0 W/m 0,0 C -6,9 C 20,9 km/h (4 Bft)
12.01.2021 05:23 0,6 C 0,0 C 96 % 1012,5 hPa 0,2 l/m 16,1 km/h (3 Bft) S-SW 202 0 min 0,0 UV-I 0 W/m 0,0 C -6,9 C 22,5 km/h (4 Bft)
12.01.2021 05:24 0,6 C 0,0 C 96 % 1012,5 hPa 0,0 l/m 17,7 km/h (3 Bft) S-SW 202 0 min 0,0 UV-I 0 W/m 0,0 C -7,7 C 24,1 km/h (4 Bft)
12.01.2021 05:25 0,6 C 0,0 C 96 % 1012,6 hPa 0,0 l/m 17,7 km/h (3 Bft) S-SW 202 0 min 0,0 UV-I 0 W/m 0,0 C -7,7 C 22,5 km/h (4 Bft)
12.01.2021 05:26 0,6 C 0,0 C 96 % 1012,5 hPa 0,0 l/m 16,1 km/h (3 Bft) S-SW 202 0 min 0,0 UV-I 0 W/m 0,0 C -6,9 C 20,9 km/h (4 Bft)
12.01.2021 05:27 0,6 C 0,0 C 96 % 1012,6 hPa 0,0 l/m 11,3 km/h (2 Bft) S-SW 202 0 min 0,0 UV-I 0 W/m 0,0 C -3,8 C 19,3 km/h (3 Bft)
12.01.2021 05:28 0,6 C 0,0 C 96 % 1012,5 hPa 0,0 l/m 12,9 km/h (3 Bft) S-SW 202 0 min 0,0 UV-I 0 W/m 0,0 C -4,9 C 20,9 km/h (4 Bft)
12.01.2021 05:29 0,6 C 0,0 C 96 % 1012,5 hPa 0,0 l/m 12,9 km/h (3 Bft) SW 225 0 min 0,0 UV-I 0 W/m 0,0 C -4,9 C 17,7 km/h (3 Bft)
12.01.2021 05:30 0,6 C 0,0 C 96 % 1012,6 hPa 0,0 l/m 14,5 km/h (3 Bft) S-SW 202 0 min 0,0 UV-I 0 W/m 0,0 C -6,0 C 19,3 km/h (3 Bft)
12.01.2021 05:31 0,6 C 0,0 C 96 % 1012,5 hPa 0,0 l/m 16,1 km/h (3 Bft) S-SW 202 0 min 0,0 UV-I 0 W/m 0,0 C -6,9 C 20,9 km/h (4 Bft)
12.01.2021 05:32 0,6 C 0,0 C 96 % 1012,5 hPa 0,2 l/m 16,1 km/h (3 Bft) S-SW 202 0 min 0,0 UV-I 0 W/m 0,0 C -6,9 C 20,9 km/h (4 Bft)
12.01.2021 05:33 0,6 C 0,0 C 96 % 1012,5 hPa 0,0 l/m 14,5 km/h (3 Bft) SW 225 0 min 0,0 UV-I 0 W/m 0,0 C -6,0 C 17,7 km/h (3 Bft)
12.01.2021 05:34 0,6 C 0,0 C 96 % 1012,4 hPa 0,0 l/m 14,5 km/h (3 Bft) S-SW 202 0 min 0,0 UV-I 0 W/m 0,0 C -6,0 C 19,3 km/h (3 Bft)
12.01.2021 05:35 0,6 C 0,0 C 96 % 1012,4 hPa 0,0 l/m 17,7 km/h (3 Bft) S-SW 202 0 min 0,0 UV-I 0 W/m 0,0 C -7,7 C 25,7 km/h (4 Bft)
12.01.2021 05:36 0,6 C 0,0 C 96 % 1012,5 hPa 0,0 l/m 14,5 km/h (3 Bft) S-SW 202 0 min 0,0 UV-I 0 W/m 0,0 C -6,0 C 20,9 km/h (4 Bft)
12.01.2021 05:37 0,6 C 0,0 C 96 % 1012,4 hPa 0,0 l/m 12,9 km/h (3 Bft) S-SW 202 0 min 0,0 UV-I 0 W/m 0,0 C -4,9 C 17,7 km/h (3 Bft)
12.01.2021 05:38 0,6 C 0,0 C 96 % 1012,4 hPa 0,0 l/m 14,5 km/h (3 Bft) S-SW 202 0 min 0,0 UV-I 0 W/m 0,0 C -6,0 C 20,9 km/h (4 Bft)
12.01.2021 05:39 0,6 C 0,0 C 96 % 1012,3 hPa 0,0 l/m 12,9 km/h (3 Bft) S-SW 202 0 min 0,0 UV-I 0 W/m 0,0 C -4,9 C 17,7 km/h (3 Bft)
12.01.2021 05:40 0,6 C 0,0 C 96 % 1012,3 hPa 0,0 l/m 12,9 km/h (3 Bft) S-SW 202 0 min 0,0 UV-I 0 W/m 0,0 C -4,9 C 20,9 km/h (4 Bft)
12.01.2021 05:41 0,6 C 0,0 C 96 % 1012,3 hPa 0,0 l/m 12,9 km/h (3 Bft) S-SW 202 0 min 0,0 UV-I 0 W/m 0,0 C -4,9 C 16,1 km/h (3 Bft)
12.01.2021 05:42 0,6 C 0,0 C 96 % 1012,3 hPa 0,0 l/m 12,9 km/h (3 Bft) S-SW 202 0 min 0,0 UV-I 0 W/m 0,0 C -4,9 C 17,7 km/h (3 Bft)
12.01.2021 05:43 0,6 C 0,0 C 96 % 1012,3 hPa 0,0 l/m 12,9 km/h (3 Bft) S-SW 202 0 min 0,0 UV-I 0 W/m 0,0 C -4,9 C 17,7 km/h (3 Bft)
12.01.2021 05:44 0,6 C 0,0 C 96 % 1012,2 hPa 0,0 l/m 16,1 km/h (3 Bft) S-SW 202 0 min 0,0 UV-I 0 W/m 0,0 C -6,9 C 22,5 km/h (4 Bft)
12.01.2021 05:45 0,5 C 0,0 C 96 % 1012,2 hPa 0,0 l/m 12,9 km/h (3 Bft) S-SW 202 0 min 0,0 UV-I 0 W/m -0,1 C -5,0 C 17,7 km/h (3 Bft)
12.01.2021 05:46 0,6 C 0,0 C 96 % 1012,3 hPa 0,0 l/m 11,3 km/h (2 Bft) S-SW 202 0 min 0,0 UV-I 0 W/m 0,0 C -3,8 C 14,5 km/h (3 Bft)
12.01.2021 05:47 0,6 C 0,0 C 96 % 1012,1 hPa 0,0 l/m 17,7 km/h (3 Bft) S-SW 202 0 min 0,0 UV-I 0 W/m 0,0 C -7,7 C 25,7 km/h (4 Bft)
12.01.2021 05:48 0,6 C 0,0 C 96 % 1012,1 hPa 0,0 l/m 12,9 km/h (3 Bft) S-SW 202 0 min 0,0 UV-I 0 W/m 0,0 C -4,9 C 19,3 km/h (3 Bft)
12.01.2021 05:49 0,6 C 0,0 C 96 % 1012,1 hPa 0,2 l/m 12,9 km/h (3 Bft) S-SW 202 0 min 0,0 UV-I 0 W/m 0,0 C -4,9 C 17,7 km/h (3 Bft)
12.01.2021 05:50 0,6 C 0,0 C 96 % 1012,1 hPa 0,0 l/m 12,9 km/h (3 Bft) SW 225 0 min 0,0 UV-I 0 W/m 0,0 C -4,9 C 16,1 km/h (3 Bft)
12.01.2021 05:51 0,6 C 0,0 C 96 % 1012,0 hPa 0,0 l/m 17,7 km/h (3 Bft) S-SW 202 0 min 0,0 UV-I 0 W/m 0,0 C -7,7 C 24,1 km/h (4 Bft)
12.01.2021 05:52 0,6 C 0,0 C 96 % 1012,1 hPa 0,0 l/m 16,1 km/h (3 Bft) S-SW 202 0 min 0,0 UV-I 0 W/m 0,0 C -6,9 C 20,9 km/h (4 Bft)
12.01.2021 05:53 0,6 C 0,0 C 96 % 1012,1 hPa 0,0 l/m 14,5 km/h (3 Bft) SW 225 0 min 0,0 UV-I 0 W/m 0,0 C -6,0 C 20,9 km/h (4 Bft)
12.01.2021 05:54 0,6 C 0,0 C 96 % 1012,1 hPa 0,0 l/m 12,9 km/h (3 Bft) S-SW 202 0 min 0,0 UV-I 0 W/m 0,0 C -4,9 C 16,1 km/h (3 Bft)
12.01.2021 05:55 0,6 C 0,0 C 96 % 1012,1 hPa 0,0 l/m 14,5 km/h (3 Bft) S-SW 202 0 min 0,0 UV-I 0 W/m 0,0 C -6,0 C 19,3 km/h (3 Bft)
12.01.2021 05:56 0,6 C 0,0 C 96 % 1012,1 hPa 0,0 l/m 12,9 km/h (3 Bft) S-SW 202 0 min 0,0 UV-I 0 W/m 0,0 C -4,9 C 17,7 km/h (3 Bft)
12.01.2021 05:57 0,6 C 0,0 C 96 % 1012,1 hPa 0,0 l/m 16,1 km/h (3 Bft) S-SW 202 0 min 0,0 UV-I 0 W/m 0,0 C -6,9 C 22,5 km/h (4 Bft)
12.01.2021 05:58 0,6 C 0,0 C 96 % 1011,9 hPa 0,2 l/m 16,1 km/h (3 Bft) S-SW 202 0 min 0,0 UV-I 0 W/m 0,0 C -6,9 C 19,3 km/h (3 Bft)
12.01.2021 05:59 0,6 C 0,0 C 96 % 1012,1 hPa 0,0 l/m 16,1 km/h (3 Bft) S-SW 202 0 min 0,0 UV-I 0 W/m 0,0 C -6,9 C 20,9 km/h (4 Bft)
12.01.2021 06:00 0,6 C 0,0 C 96 % 1011,9 hPa 0,0 l/m 12,9 km/h (3 Bft) S-SW 202 0 min 0,0 UV-I 0 W/m 0,0 C -4,9 C 16,1 km/h (3 Bft)
12.01.2021 06:01 0,6 C 0,0 C 96 % 1012,1 hPa 0,0 l/m 14,5 km/h (3 Bft) SW 225 0 min 0,0 UV-I 0 W/m 0,0 C -6,0 C 19,3 km/h (3 Bft)
12.01.2021 06:02 0,6 C 0,0 C 96 % 1012,0 hPa 0,2 l/m 14,5 km/h (3 Bft) S-SW 202 0 min 0,0 UV-I 0 W/m 0,0 C -6,0 C 22,5 km/h (4 Bft)
12.01.2021 06:03 0,6 C 0,0 C 96 % 1012,1 hPa 0,0 l/m 14,5 km/h (3 Bft) S-SW 202 0 min 0,0 UV-I 0 W/m 0,0 C -6,0 C 22,5 km/h (4 Bft)
12.01.2021 06:04 0,6 C 0,0 C 96 % 1011,9 hPa 0,0 l/m 12,9 km/h (3 Bft) S-SW 202 0 min 0,0 UV-I 0 W/m 0,0 C -4,9 C 17,7 km/h (3 Bft)
12.01.2021 06:05 0,6 C 0,0 C 96 % 1012,0 hPa 0,0 l/m 12,9 km/h (3 Bft) SW 225 0 min 0,0 UV-I 0 W/m 0,0 C -4,9 C 19,3 km/h (3 Bft)
12.01.2021 06:06 0,6 C 0,0 C 96 % 1011,9 hPa 0,0 l/m 16,1 km/h (3 Bft) S-SW 202 0 min 0,0 UV-I 0 W/m 0,0 C -6,9 C 20,9 km/h (4 Bft)
12.01.2021 06:07 0,6 C 0,0 C 96 % 1011,9 hPa 0,0 l/m 12,9 km/h (3 Bft) S-SW 202 0 min 0,0 UV-I 0 W/m 0,0 C -4,9 C 19,3 km/h (3 Bft)
12.01.2021 06:08 0,6 C 0,0 C 96 % 1012,0 hPa 0,0 l/m 9,7 km/h (2 Bft) S-SW 202 0 min 0,0 UV-I 0 W/m 0,0 C -2,5 C 17,7 km/h (3 Bft)
12.01.2021 06:09 0,6 C 0,0 C 96 % 1011,9 hPa 0,0 l/m 12,9 km/h (3 Bft) S-SW 202 0 min 0,0 UV-I 0 W/m 0,0 C -4,9 C 17,7 km/h (3 Bft)
12.01.2021 06:10 0,6 C 0,0 C 96 % 1012,0 hPa 0,2 l/m 12,9 km/h (3 Bft) S-SW 202 0 min 0,0 UV-I 0 W/m 0,0 C -4,9 C 17,7 km/h (3 Bft)
12.01.2021 06:11 0,6 C 0,0 C 96 % 1012,0 hPa 0,0 l/m 16,1 km/h (3 Bft) S-SW 202 0 min 0,0 UV-I 0 W/m 0,0 C -6,9 C 19,3 km/h (3 Bft)
12.01.2021 06:12 0,6 C 0,0 C 96 % 1011,9 hPa 0,0 l/m 14,5 km/h (3 Bft) S-SW 202 0 min 0,0 UV-I 0 W/m 0,0 C -6,0 C 19,3 km/h (3 Bft)
12.01.2021 06:13 0,6 C 0,0 C 96 % 1011,9 hPa 0,0 l/m 17,7 km/h (3 Bft) S-SW 202 0 min 0,0 UV-I 0 W/m 0,0 C -7,7 C 22,5 km/h (4 Bft)
12.01.2021 06:14 0,6 C 0,0 C 96 % 1011,9 hPa 0,0 l/m 20,9 km/h (4 Bft) S-SW 202 0 min 0,0 UV-I 0 W/m 0,0 C -9,3 C 27,4 km/h (4 Bft)
12.01.2021 06:15 0,6 C 0,0 C 96 % 1011,9 hPa 0,0 l/m 16,1 km/h (3 Bft) S-SW 202 0 min 0,0 UV-I 0 W/m 0,0 C -6,9 C 20,9 km/h (4 Bft)
12.01.2021 06:16 0,6 C 0,0 C 96 % 1011,9 hPa 0,0 l/m 14,5 km/h (3 Bft) S-SW 202 0 min 0,0 UV-I 0 W/m 0,0 C -6,0 C 20,9 km/h (4 Bft)
12.01.2021 06:17 0,6 C 0,0 C 96 % 1011,7 hPa 0,0 l/m 12,9 km/h (3 Bft) SW 225 0 min 0,0 UV-I 0 W/m 0,0 C -4,9 C 17,7 km/h (3 Bft)
12.01.2021 06:18 0,6 C 0,0 C 96 % 1011,9 hPa 0,0 l/m 16,1 km/h (3 Bft) S-SW 202 0 min 0,0 UV-I 0 W/m 0,0 C -6,9 C 20,9 km/h (4 Bft)
12.01.2021 06:19 0,6 C 0,0 C 96 % 1011,8 hPa 0,2 l/m 12,9 km/h (3 Bft) SW 225 0 min 0,0 UV-I 0 W/m 0,0 C -4,9 C 17,7 km/h (3 Bft)
12.01.2021 06:20 0,6 C 0,0 C 96 % 1011,7 hPa 0,0 l/m 17,7 km/h (3 Bft) S-SW 202 0 min 0,0 UV-I 0 W/m 0,0 C -7,7 C 25,7 km/h (4 Bft)
12.01.2021 06:21 0,6 C 0,0 C 96 % 1011,9 hPa 0,0 l/m 16,1 km/h (3 Bft) S-SW 202 0 min 0,0 UV-I 0 W/m 0,0 C -6,9 C 19,3 km/h (3 Bft)
12.01.2021 06:22 0,6 C 0,0 C 96 % 1011,8 hPa 0,0 l/m 16,1 km/h (3 Bft) S-SW 202 0 min 0,0 UV-I 0 W/m 0,0 C -6,9 C 24,1 km/h (4 Bft)
12.01.2021 06:23 0,6 C 0,0 C 96 % 1011,7 hPa 0,0 l/m 14,5 km/h (3 Bft) S-SW 202 0 min 0,0 UV-I 0 W/m 0,0 C -6,0 C 19,3 km/h (3 Bft)
12.01.2021 06:24 0,6 C 0,0 C 96 % 1011,7 hPa 0,0 l/m 17,7 km/h (3 Bft) S-SW 202 0 min 0,0 UV-I 0 W/m 0,0 C -7,7 C 25,7 km/h (4 Bft)
12.01.2021 06:25 0,6 C 0,0 C 96 % 1011,6 hPa 0,0 l/m 17,7 km/h (3 Bft) S-SW 202 0 min 0,0 UV-I 0 W/m 0,0 C -7,7 C 24,1 km/h (4 Bft)
12.01.2021 06:26 0,6 C 0,0 C 96 % 1011,6 hPa 0,0 l/m 16,1 km/h (3 Bft) SW 225 0 min 0,0 UV-I 0 W/m 0,0 C -6,9 C 22,5 km/h (4 Bft)
12.01.2021 06:27 0,6 C 0,0 C 96 % 1011,7 hPa 0,0 l/m 16,1 km/h (3 Bft) S-SW 202 0 min 0,0 UV-I 0 W/m 0,0 C -6,9 C 20,9 km/h (4 Bft)
12.01.2021 06:28 0,6 C 0,0 C 96 % 1011,6 hPa 0,0 l/m 12,9 km/h (3 Bft) S-SW 202 0 min 0,0 UV-I 0 W/m 0,0 C -4,9 C 16,1 km/h (3 Bft)
12.01.2021 06:29 0,6 C 0,0 C 96 % 1011,7 hPa 0,0 l/m 17,7 km/h (3 Bft) S-SW 202 0 min 0,0 UV-I 0 W/m 0,0 C -7,7 C 24,1 km/h (4 Bft)
12.01.2021 06:30 0,6 C 0,0 C 96 % 1011,6 hPa 0,0 l/m 14,5 km/h (3 Bft) S-SW 202 0 min 0,0 UV-I 0 W/m 0,0 C -6,0 C 20,9 km/h (4 Bft)
12.01.2021 06:31 0,6 C 0,0 C 96 % 1011,6 hPa 0,0 l/m 17,7 km/h (3 Bft) S-SW 202 0 min 0,0 UV-I 0 W/m 0,0 C -7,7 C 24,1 km/h (4 Bft)
12.01.2021 06:32 0,6 C 0,0 C 96 % 1011,6 hPa 0,0 l/m 16,1 km/h (3 Bft) S-SW 202 0 min 0,0 UV-I 0 W/m 0,0 C -6,9 C 20,9 km/h (4 Bft)
12.01.2021 06:33 0,6 C 0,0 C 96 % 1011,5 hPa 0,0 l/m 17,7 km/h (3 Bft) S-SW 202 0 min 0,0 UV-I 0 W/m 0,0 C -7,7 C 20,9 km/h (4 Bft)
12.01.2021 06:34 0,6 C 0,0 C 96 % 1011,6 hPa 0,0 l/m 17,7 km/h (3 Bft) SW 225 0 min 0,0 UV-I 0 W/m 0,0 C -7,7 C 25,7 km/h (4 Bft)
12.01.2021 06:35 0,6 C 0,0 C 96 % 1011,5 hPa 0,0 l/m 12,9 km/h (3 Bft) S-SW 202 0 min 0,0 UV-I 0 W/m 0,0 C -4,9 C 17,7 km/h (3 Bft)
12.01.2021 06:36 0,6 C 0,0 C 96 % 1011,5 hPa 0,0 l/m 12,9 km/h (3 Bft) S-SW 202 0 min 0,0 UV-I 0 W/m 0,0 C -4,9 C 17,7 km/h (3 Bft)
12.01.2021 06:37 0,6 C 0,0 C 96 % 1011,5 hPa 0,2 l/m 16,1 km/h (3 Bft) S-SW 202 0 min 0,0 UV-I 0 W/m 0,0 C -6,9 C 24,1 km/h (4 Bft)
12.01.2021 06:38 0,6 C 0,0 C 96 % 1011,5 hPa 0,0 l/m 16,1 km/h (3 Bft) S-SW 202 0 min 0,0 UV-I 0 W/m 0,0 C -6,9 C 19,3 km/h (3 Bft)
12.01.2021 06:39 0,6 C 0,0 C 96 % 1011,5 hPa 0,0 l/m 16,1 km/h (3 Bft) S-SW 202 0 min 0,0 UV-I 0 W/m 0,0 C -6,9 C 20,9 km/h (4 Bft)
12.01.2021 06:40 0,6 C 0,0 C 96 % 1011,5 hPa 0,2 l/m 16,1 km/h (3 Bft) S-SW 202 0 min 0,0 UV-I 0 W/m 0,0 C -6,9 C 20,9 km/h (4 Bft)
12.01.2021 06:41 0,6 C 0,0 C 96 % 1011,4 hPa 0,0 l/m 17,7 km/h (3 Bft) S-SW 202 0 min 0,0 UV-I 0 W/m 0,0 C -7,7 C 24,1 km/h (4 Bft)
12.01.2021 06:42 0,6 C 0,0 C 96 % 1011,6 hPa 0,0 l/m 16,1 km/h (3 Bft) S-SW 202 0 min 0,0 UV-I 0 W/m 0,0 C -6,9 C 19,3 km/h (3 Bft)
12.01.2021 06:43 0,6 C 0,0 C 96 % 1011,6 hPa 0,2 l/m 12,9 km/h (3 Bft) S-SW 202 0 min 0,0 UV-I 0 W/m 0,0 C -4,9 C 16,1 km/h (3 Bft)
12.01.2021 06:44 0,6 C 0,0 C 96 % 1011,4 hPa 0,0 l/m 14,5 km/h (3 Bft) S-SW 202 0 min 0,0 UV-I 0 W/m 0,0 C -6,0 C 19,3 km/h (3 Bft)
12.01.2021 06:45 0,6 C 0,0 C 96 % 1011,5 hPa 0,0 l/m 14,5 km/h (3 Bft) S-SW 202 0 min 0,0 UV-I 0 W/m 0,0 C -6,0 C 20,9 km/h (4 Bft)
12.01.2021 06:46 0,6 C 0,0 C 96 % 1011,4 hPa 0,0 l/m 11,3 km/h (2 Bft) SW 225 0 min 0,0 UV-I 0 W/m 0,0 C -3,8 C 14,5 km/h (3 Bft)
12.01.2021 06:47 0,6 C 0,0 C 96 % 1011,4 hPa 0,2 l/m 16,1 km/h (3 Bft) SW 225 0 min 0,0 UV-I 0 W/m 0,0 C -6,9 C 19,3 km/h (3 Bft)
12.01.2021 06:48 0,6 C 0,0 C 96 % 1011,4 hPa 0,0 l/m 16,1 km/h (3 Bft) S-SW 202 0 min 0,0 UV-I 0 W/m 0,0 C -6,9 C 25,7 km/h (4 Bft)
12.01.2021 06:49 0,6 C 0,0 C 96 % 1011,4 hPa 0,0 l/m 14,5 km/h (3 Bft) S-SW 202 0 min 0,0 UV-I 0 W/m 0,0 C -6,0 C 19,3 km/h (3 Bft)
12.01.2021 06:50 0,6 C 0,0 C 96 % 1011,4 hPa 0,0 l/m 16,1 km/h (3 Bft) S-SW 202 0 min 0,0 UV-I 0 W/m 0,0 C -6,9 C 20,9 km/h (4 Bft)
12.01.2021 06:51 0,6 C 0,0 C 96 % 1011,4 hPa 0,0 l/m 16,1 km/h (3 Bft) S-SW 202 0 min 0,0 UV-I 0 W/m 0,0 C -6,9 C 22,5 km/h (4 Bft)
12.01.2021 06:52 0,6 C 0,0 C 96 % 1011,3 hPa 0,2 l/m 17,7 km/h (3 Bft) S-SW 202 0 min 0,0 UV-I 0 W/m 0,0 C -7,7 C 20,9 km/h (4 Bft)
12.01.2021 06:53 0,6 C 0,0 C 96 % 1011,4 hPa 0,0 l/m 12,9 km/h (3 Bft) S-SW 202 0 min 0,0 UV-I 0 W/m 0,0 C -4,9 C 19,3 km/h (3 Bft)
12.01.2021 06:54 0,6 C 0,0 C 96 % 1011,4 hPa 0,0 l/m 12,9 km/h (3 Bft) S-SW 202 0 min 0,0 UV-I 0 W/m 0,0 C -4,9 C 17,7 km/h (3 Bft)
12.01.2021 06:55 0,6 C 0,0 C 96 % 1011,3 hPa 0,0 l/m 16,1 km/h (3 Bft) S-SW 202 0 min 0,0 UV-I 0 W/m 0,0 C -6,9 C 19,3 km/h (3 Bft)
12.01.2021 06:56 0,6 C 0,0 C 96 % 1011,4 hPa 0,0 l/m 12,9 km/h (3 Bft) S-SW 202 0 min 0,0 UV-I 0 W/m 0,0 C -4,9 C 19,3 km/h (3 Bft)
12.01.2021 06:57 0,6 C 0,0 C 96 % 1011,2 hPa 0,0 l/m 12,9 km/h (3 Bft) S-SW 202 0 min 0,0 UV-I 0 W/m 0,0 C -4,9 C 16,1 km/h (3 Bft)
12.01.2021 06:58 0,6 C 0,0 C 96 % 1011,2 hPa 0,0 l/m 17,7 km/h (3 Bft) S-SW 202 0 min 0,0 UV-I 0 W/m 0,0 C -7,7 C 27,4 km/h (4 Bft)
12.01.2021 06:59 0,6 C 0,0 C 96 % 1011,2 hPa 0,0 l/m 16,1 km/h (3 Bft) S-SW 202 0 min 0,0 UV-I 0 W/m 0,0 C -6,9 C 24,1 km/h (4 Bft)
12.01.2021 07:00 0,6 C 0,0 C 96 % 1011,3 hPa 0,0 l/m 12,9 km/h (3 Bft) S-SW 202 0 min 0,0 UV-I 0 W/m 0,0 C -4,9 C 16,1 km/h (3 Bft)
12.01.2021 07:01 0,6 C 0,0 C 96 % 1011,1 hPa 0,2 l/m 17,7 km/h (3 Bft) S-SW 202 0 min 0,0 UV-I 0 W/m 0,0 C -7,7 C 22,5 km/h (4 Bft)
12.01.2021 07:02 0,6 C 0,0 C 96 % 1011,1 hPa 0,0 l/m 14,5 km/h (3 Bft) S-SW 202 0 min 0,0 UV-I 0 W/m 0,0 C -6,0 C 19,3 km/h (3 Bft)
12.01.2021 07:03 0,6 C 0,0 C 96 % 1011,2 hPa 0,0 l/m 14,5 km/h (3 Bft) S-SW 202 0 min 0,0 UV-I 0 W/m 0,0 C -6,0 C 17,7 km/h (3 Bft)
12.01.2021 07:04 0,6 C 0,0 C 96 % 1011,2 hPa 0,0 l/m 16,1 km/h (3 Bft) S-SW 202 0 min 0,0 UV-I 0 W/m 0,0 C -6,9 C 17,7 km/h (3 Bft)
12.01.2021 07:05 0,6 C 0,0 C 96 % 1011,1 hPa 0,0 l/m 12,9 km/h (3 Bft) SW 225 0 min 0,0 UV-I 0 W/m 0,0 C -4,9 C 16,1 km/h (3 Bft)
12.01.2021 07:06 0,6 C 0,0 C 96 % 1011,0 hPa 0,0 l/m 14,5 km/h (3 Bft) S-SW 202 0 min 0,0 UV-I 0 W/m 0,0 C -6,0 C 19,3 km/h (3 Bft)
12.01.2021 07:07 0,6 C 0,0 C 96 % 1011,1 hPa 0,0 l/m 12,9 km/h (3 Bft) S-SW 202 0 min 0,0 UV-I 0 W/m 0,0 C -4,9 C 16,1 km/h (3 Bft)
12.01.2021 07:08 0,6 C 0,0 C 96 % 1011,0 hPa 0,0 l/m 12,9 km/h (3 Bft) S-SW 202 0 min 0,0 UV-I 0 W/m 0,0 C -4,9 C 17,7 km/h (3 Bft)
12.01.2021 07:09 0,6 C 0,0 C 96 % 1011,0 hPa 0,0 l/m 14,5 km/h (3 Bft) S-SW 202 0 min 0,0 UV-I 0 W/m 0,0 C -6,0 C 19,3 km/h (3 Bft)
12.01.2021 07:10 0,6 C 0,0 C 96 % 1011,1 hPa 0,0 l/m 14,5 km/h (3 Bft) S-SW 202 0 min 0,0 UV-I 0 W/m 0,0 C -6,0 C 19,3 km/h (3 Bft)
12.01.2021 07:11 0,6 C 0,0 C 96 % 1010,9 hPa 0,0 l/m 19,3 km/h (3 Bft) S-SW 202 0 min 0,0 UV-I 0 W/m 0,0 C -8,5 C 25,7 km/h (4 Bft)
12.01.2021 07:12 0,6 C 0,0 C 96 % 1010,9 hPa 0,0 l/m 12,9 km/h (3 Bft) S-SW 202 0 min 0,0 UV-I 0 W/m 0,0 C -4,9 C 19,3 km/h (3 Bft)
12.01.2021 07:13 0,6 C 0,0 C 96 % 1010,9 hPa 0,0 l/m 16,1 km/h (3 Bft) S-SW 202 0 min 0,0 UV-I 0 W/m 0,0 C -6,9 C 22,5 km/h (4 Bft)
12.01.2021 07:14 0,6 C 0,0 C 96 % 1010,9 hPa 0,0 l/m 16,1 km/h (3 Bft) S-SW 202 0 min 0,0 UV-I 0 W/m 0,0 C -6,9 C 25,7 km/h (4 Bft)
12.01.2021 07:15 0,6 C 0,0 C 96 % 1011,0 hPa 0,2 l/m 14,5 km/h (3 Bft) S-SW 202 0 min 0,0 UV-I 0 W/m 0,0 C -6,0 C 19,3 km/h (3 Bft)
12.01.2021 07:16 0,6 C 0,0 C 96 % 1011,0 hPa 0,0 l/m 17,7 km/h (3 Bft) S-SW 202 0 min 0,0 UV-I 0 W/m 0,0 C -7,7 C 24,1 km/h (4 Bft)
12.01.2021 07:17 0,6 C 0,0 C 96 % 1010,9 hPa 0,0 l/m 14,5 km/h (3 Bft) S-SW 202 0 min 0,0 UV-I 0 W/m 0,0 C -6,0 C 20,9 km/h (4 Bft)
12.01.2021 07:18 0,6 C 0,0 C 96 % 1010,9 hPa 0,2 l/m 14,5 km/h (3 Bft) S-SW 202 0 min 0,0 UV-I 0 W/m 0,0 C -6,0 C 22,5 km/h (4 Bft)
12.01.2021 07:19 0,6 C 0,0 C 96 % 1011,0 hPa 0,0 l/m 14,5 km/h (3 Bft) S-SW 202 0 min 0,0 UV-I 0 W/m 0,0 C -6,0 C 17,7 km/h (3 Bft)
12.01.2021 07:20 0,6 C 0,0 C 96 % 1010,9 hPa 0,0 l/m 16,1 km/h (3 Bft) S-SW 202 0 min 0,0 UV-I 0 W/m 0,0 C -6,9 C 22,5 km/h (4 Bft)
12.01.2021 07:21 0,6 C 0,0 C 96 % 1010,9 hPa 0,0 l/m 14,5 km/h (3 Bft) S-SW 202 0 min 0,0 UV-I 0 W/m 0,0 C -6,0 C 19,3 km/h (3 Bft)
12.01.2021 07:22 0,6 C 0,0 C 96 % 1010,9 hPa 0,2 l/m 17,7 km/h (3 Bft) S-SW 202 0 min 0,0 UV-I 0 W/m 0,0 C -7,7 C 22,5 km/h (4 Bft)
12.01.2021 07:23 0,6 C 0,0 C 96 % 1011,0 hPa 0,0 l/m 12,9 km/h (3 Bft) S-SW 202 0 min 0,0 UV-I 0 W/m 0,0 C -4,9 C 17,7 km/h (3 Bft)
12.01.2021 07:24 0,6 C 0,0 C 96 % 1011,0 hPa 0,0 l/m 16,1 km/h (3 Bft) S-SW 202 0 min 0,0 UV-I 0 W/m 0,0 C -6,9 C 19,3 km/h (3 Bft)
12.01.2021 07:25 0,6 C 0,0 C 96 % 1010,8 hPa 0,0 l/m 19,3 km/h (3 Bft) SW 225 0 min 0,0 UV-I 0 W/m 0,0 C -8,5 C 25,7 km/h (4 Bft)
12.01.2021 07:26 0,6 C 0,0 C 96 % 1010,9 hPa 0,2 l/m 16,1 km/h (3 Bft) S-SW 202 0 min 0,0 UV-I 0 W/m 0,0 C -6,9 C 22,5 km/h (4 Bft)
12.01.2021 07:27 0,6 C 0,0 C 96 % 1010,9 hPa 0,0 l/m 16,1 km/h (3 Bft) S-SW 202 0 min 0,0 UV-I 0 W/m 0,0 C -6,9 C 24,1 km/h (4 Bft)
12.01.2021 07:28 0,6 C 0,0 C 96 % 1010,9 hPa 0,0 l/m 16,1 km/h (3 Bft) S-SW 202 0 min 0,0 UV-I 0 W/m 0,0 C -6,9 C 24,1 km/h (4 Bft)
12.01.2021 07:29 0,6 C 0,0 C 96 % 1010,9 hPa 0,0 l/m 14,5 km/h (3 Bft) S-SW 202 0 min 0,0 UV-I 0 W/m 0,0 C -6,0 C 24,1 km/h (4 Bft)
12.01.2021 07:30 0,6 C 0,0 C 96 % 1010,9 hPa 0,0 l/m 16,1 km/h (3 Bft) S-SW 202 0 min 0,0 UV-I 0 W/m 0,0 C -6,9 C 20,9 km/h (4 Bft)
12.01.2021 07:31 0,6 C 0,0 C 96 % 1010,9 hPa 0,0 l/m 17,7 km/h (3 Bft) SW 225 0 min 0,0 UV-I 0 W/m 0,0 C -7,7 C 24,1 km/h (4 Bft)
12.01.2021 07:32 0,6 C 0,0 C 96 % 1010,9 hPa 0,0 l/m 16,1 km/h (3 Bft) S-SW 202 0 min 0,0 UV-I 0 W/m 0,0 C -6,9 C 20,9 km/h (4 Bft)
12.01.2021 07:33 0,6 C 0,0 C 96 % 1010,9 hPa 0,2 l/m 17,7 km/h (3 Bft) SW 225 0 min 0,0 UV-I 0 W/m 0,0 C -7,7 C 27,4 km/h (4 Bft)
12.01.2021 07:34 0,6 C 0,0 C 96 % 1010,9 hPa 0,0 l/m 14,5 km/h (3 Bft) S-SW 202 0 min 0,0 UV-I 0 W/m 0,0 C -6,0 C 22,5 km/h (4 Bft)
12.01.2021 07:35 0,6 C 0,0 C 96 % 1010,9 hPa 0,0 l/m 17,7 km/h (3 Bft) S-SW 202 0 min 0,0 UV-I 0 W/m 0,0 C -7,7 C 22,5 km/h (4 Bft)
12.01.2021 07:36 0,6 C 0,0 C 96 % 1010,9 hPa 0,0 l/m 14,5 km/h (3 Bft) S-SW 202 0 min 0,0 UV-I 0 W/m 0,0 C -6,0 C 17,7 km/h (3 Bft)
12.01.2021 07:37 0,6 C 0,0 C 96 % 1010,8 hPa 0,0 l/m 14,5 km/h (3 Bft) SW 225 0 min 0,0 UV-I 0 W/m 0,0 C -6,0 C 17,7 km/h (3 Bft)
12.01.2021 07:38 0,6 C 0,0 C 96 % 1010,8 hPa 0,0 l/m 16,1 km/h (3 Bft) S-SW 202 0 min 0,0 UV-I 0 W/m 0,0 C -6,9 C 24,1 km/h (4 Bft)
12.01.2021 07:39 0,6 C 0,0 C 96 % 1010,9 hPa 0,0 l/m 14,5 km/h (3 Bft) SW 225 0 min 0,0 UV-I 0 W/m 0,0 C -6,0 C 19,3 km/h (3 Bft)
12.01.2021 07:40 0,6 C 0,0 C 96 % 1010,8 hPa 0,0 l/m 16,1 km/h (3 Bft) S-SW 202 0 min 0,0 UV-I 0 W/m 0,0 C -6,9 C 19,3 km/h (3 Bft)
12.01.2021 07:41 0,6 C 0,0 C 96 % 1010,8 hPa 0,0 l/m 16,1 km/h (3 Bft) S-SW 202 0 min 0,0 UV-I 0 W/m 0,0 C -6,9 C 22,5 km/h (4 Bft)
12.01.2021 07:44 0,6 C 0,0 C 96 % 1010,8 hPa 0,0 l/m 14,1 km/h (3 Bft) S-SW 207 0 min 0,0 UV-I 0 W/m 0,0 C -5,7 C 19,3 km/h (3 Bft)
12.01.2021 07:46 0,6 C 0,0 C 96 % 1010,7 hPa 0,0 l/m 15,8 km/h (3 Bft) S-SW 200 0 min 0,0 UV-I 0 W/m 0,0 C -6,7 C 22,5 km/h (4 Bft)
12.01.2021 07:48 0,6 C 0,0 C 96 % 1010,7 hPa 0,2 l/m 14,9 km/h (3 Bft) S-SW 203 0 min 0,0 UV-I 0 W/m 0,0 C -6,2 C 19,3 km/h (3 Bft)
12.01.2021 07:50 0,6 C 0,0 C 96 % 1010,7 hPa 0,0 l/m 14,9 km/h (3 Bft) S-SW 200 0 min 0,0 UV-I 0 W/m 0,0 C -6,2 C 20,9 km/h (4 Bft)
12.01.2021 07:52 0,6 C 0,0 C 96 % 1010,7 hPa 0,2 l/m 13,6 km/h (3 Bft) S-SW 207 0 min 0,0 UV-I 0 W/m 0,0 C -5,4 C 22,5 km/h (4 Bft)
12.01.2021 07:53 0,6 C 0,0 C 96 % 1010,7 hPa 0,0 l/m 12,9 km/h (3 Bft) S-SW 202 0 min 0,0 UV-I 0 W/m 0,0 C -4,9 C 16,1 km/h (3 Bft)
12.01.2021 07:54 0,6 C 0,0 C 96 % 1010,7 hPa 0,0 l/m 12,9 km/h (3 Bft) S-SW 202 0 min 0,0 UV-I 0 W/m 0,0 C -4,9 C 16,1 km/h (3 Bft)
12.01.2021 07:55 0,6 C 0,0 C 96 % 1010,7 hPa 0,0 l/m 14,5 km/h (3 Bft) S-SW 202 0 min 0,0 UV-I 0 W/m 0,0 C -6,0 C 19,3 km/h (3 Bft)
12.01.2021 07:58 0,6 C 0,0 C 96 % 1010,7 hPa 0,2 l/m 12,4 km/h (3 Bft) SW 219 0 min 0,0 UV-I 0 W/m 0,0 C -4,6 C 20,9 km/h (4 Bft)
12.01.2021 08:00 0,6 C 0,0 C 96 % 1010,7 hPa 0,0 l/m 14,1 km/h (3 Bft) SW 217 0 min 0,0 UV-I 0 W/m 0,0 C -5,7 C 20,9 km/h (4 Bft)
12.01.2021 08:02 0,6 C 0,0 C 96 % 1010,7 hPa 0,2 l/m 12,4 km/h (3 Bft) S-SW 208 0 min 0,0 UV-I 0 W/m 0,0 C -4,6 C 17,7 km/h (3 Bft)
12.01.2021 08:04 0,6 C 0,0 C 96 % 1010,7 hPa 0,0 l/m 11,3 km/h (2 Bft) SW 221 0 min 0,0 UV-I 0 W/m 0,0 C -3,8 C 16,1 km/h (3 Bft)
12.01.2021 08:06 0,6 C 0,0 C 96 % 1010,6 hPa 0,0 l/m 10,8 km/h (2 Bft) S-SW 203 0 min 0,0 UV-I 0 W/m 0,0 C -3,4 C 16,1 km/h (3 Bft)
12.01.2021 08:08 0,6 C 0,0 C 96 % 1010,5 hPa 0,0 l/m 13,5 km/h (3 Bft) SW 216 0 min 0,0 UV-I 0 W/m 0,0 C -5,3 C 19,3 km/h (3 Bft)
12.01.2021 08:10 0,6 C 0,0 C 96 % 1010,6 hPa 0,0 l/m 12,8 km/h (3 Bft) W-SW 241 0 min 0,0 UV-I 0 W/m 0,0 C -4,9 C 19,3 km/h (3 Bft)
12.01.2021 08:12 0,6 C 0,0 C 96 % 1010,6 hPa 0,0 l/m 12,0 km/h (2 Bft) S-SW 210 0 min 0,0 UV-I 0 W/m 0,0 C -4,3 C 17,7 km/h (3 Bft)
12.01.2021 08:14 0,6 C 0,0 C 96 % 1010,5 hPa 0,2 l/m 10,4 km/h (2 Bft) S-SW 198 0 min 0,0 UV-I 0 W/m 0,0 C -3,1 C 17,7 km/h (3 Bft)
12.01.2021 08:16 0,6 C 0,0 C 96 % 1010,7 hPa 0,0 l/m 11,2 km/h (2 Bft) SW 216 0 min 0,0 UV-I 0 W/m 0,0 C -3,7 C 17,7 km/h (3 Bft)
12.01.2021 08:18 0,6 C 0,0 C 96 % 1010,7 hPa 0,0 l/m 12,7 km/h (3 Bft) S-SW 205 0 min 0,0 UV-I 0 W/m 0,0 C -4,8 C 17,7 km/h (3 Bft)
12.01.2021 08:20 0,6 C 0,0 C 96 % 1010,6 hPa 0,0 l/m 11,5 km/h (2 Bft) SW 216 0 min 0,0 UV-I 0 W/m 0,0 C -3,9 C 19,3 km/h (3 Bft)
12.01.2021 08:22 0,6 C 0,0 C 96 % 1010,6 hPa 0,0 l/m 9,5 km/h (2 Bft) S-SW 211 0 min 0,0 UV-I 0 W/m 0,0 C -2,4 C 17,7 km/h (3 Bft)
12.01.2021 08:24 0,6 C 0,0 C 96 % 1010,6 hPa 0,0 l/m 9,1 km/h (2 Bft) S-SW 211 0 min 0,0 UV-I 0 W/m 0,0 C -2,0 C 12,9 km/h (3 Bft)
12.01.2021 08:26 0,6 C 0,0 C 96 % 1010,6 hPa 0,0 l/m 11,0 km/h (2 Bft) SW 221 0 min 0,0 UV-I 0 W/m 0,0 C -3,6 C 16,1 km/h (3 Bft)
12.01.2021 08:28 0,6 C 0,0 C 96 % 1010,6 hPa 0,0 l/m 11,2 km/h (2 Bft) SW 221 0 min 0,0 UV-I 0 W/m 0,0 C -3,7 C 14,5 km/h (3 Bft)
12.01.2021 08:30 0,6 C 0,0 C 96 % 1010,6 hPa 0,2 l/m 9,6 km/h (2 Bft) S-SW 211 0 min 0,0 UV-I 0 W/m 0,0 C -2,5 C 16,1 km/h (3 Bft)
12.01.2021 08:32 0,6 C 0,0 C 96 % 1010,5 hPa 0,0 l/m 11,5 km/h (2 Bft) S-SW 202 0 min 0,0 UV-I 0 W/m 0,0 C -3,9 C 14,5 km/h (3 Bft)
12.01.2021 08:34 0,5 C 0,0 C 96 % 1010,7 hPa 0,2 l/m 10,1 km/h (2 Bft) SW 217 0 min 0,0 UV-I 0 W/m -0,1 C -3,0 C 14,5 km/h (3 Bft)
12.01.2021 08:36 0,6 C 0,0 C 96 % 1010,6 hPa 0,0 l/m 10,9 km/h (2 Bft) S-SW 207 0 min 0,0 UV-I 0 W/m 0,0 C -3,5 C 16,1 km/h (3 Bft)
12.01.2021 08:38 0,5 C 0,0 C 96 % 1010,5 hPa 0,2 l/m 10,5 km/h (2 Bft) S-SW 202 0 min 0,0 UV-I 0 W/m -0,1 C -3,3 C 16,1 km/h (3 Bft)
12.01.2021 08:40 0,6 C 0,0 C 96 % 1010,6 hPa 0,0 l/m 10,6 km/h (2 Bft) W-SW 240 0 min 0,0 UV-I 0 W/m 0,0 C -3,3 C 25,7 km/h (4 Bft)
12.01.2021 08:42 0,6 C 0,0 C 96 % 1010,7 hPa 0,0 l/m 13,6 km/h (3 Bft) SW 217 0 min 0,0 UV-I 0 W/m 0,0 C -5,4 C 20,9 km/h (4 Bft)
12.01.2021 08:44 0,6 C 0,0 C 96 % 1010,5 hPa 0,0 l/m 12,8 km/h (3 Bft) S-SW 198 0 min 0,0 UV-I 0 W/m 0,0 C -4,9 C 19,3 km/h (3 Bft)
12.01.2021 08:46 0,6 C 0,0 C 96 % 1010,5 hPa 0,2 l/m 13,2 km/h (3 Bft) SW 216 0 min 0,0 UV-I 0 W/m 0,0 C -5,1 C 19,3 km/h (3 Bft)
12.01.2021 08:48 0,5 C 0,0 C 96 % 1010,5 hPa 0,0 l/m 12,1 km/h (2 Bft) SW 219 0 min 0,0 UV-I 0 W/m -0,1 C -4,5 C 16,1 km/h (3 Bft)
12.01.2021 08:50 0,5 C 0,0 C 96 % 1010,4 hPa 0,0 l/m 13,1 km/h (3 Bft) SW 221 0 min 0,0 UV-I 0 W/m -0,1 C -5,2 C 16,1 km/h (3 Bft)
12.01.2021 08:52 0,6 C 0,0 C 96 % 1010,5 hPa 0,0 l/m 13,7 km/h (3 Bft) S-SW 200 0 min 0,0 UV-I 0 W/m 0,0 C -5,5 C 20,9 km/h (4 Bft)
12.01.2021 08:54 0,6 C 0,0 C 96 % 1010,5 hPa 0,0 l/m 12,4 km/h (3 Bft) S-SW 196 0 min 0,0 UV-I 0 W/m 0,0 C -4,6 C 17,7 km/h (3 Bft)
12.01.2021 08:56 0,6 C 0,0 C 96 % 1010,5 hPa 0,0 l/m 11,6 km/h (2 Bft) S-SW 213 0 min 0,0 UV-I 0 W/m 0,0 C -4,0 C 17,7 km/h (3 Bft)
12.01.2021 08:58 0,6 C 0,0 C 96 % 1010,5 hPa 0,2 l/m 12,5 km/h (3 Bft) S-SW 192 0 min 0,0 UV-I 0 W/m 0,0 C -4,7 C 19,3 km/h (3 Bft)
12.01.2021 09:00 0,6 C 0,0 C 96 % 1010,5 hPa 0,0 l/m 12,8 km/h (3 Bft) SW 216 0 min 0,0 UV-I 0 W/m 0,0 C -4,9 C 22,5 km/h (4 Bft)
12.01.2021 09:02 0,6 C 0,0 C 96 % 1010,4 hPa 0,0 l/m 14,0 km/h (3 Bft) SW 216 0 min 0,0 UV-I 0 W/m 0,0 C -5,6 C 17,7 km/h (3 Bft)
12.01.2021 09:04 0,6 C 0,0 C 96 % 1010,5 hPa 0,0 l/m 13,0 km/h (3 Bft) SW 225 0 min 0,0 UV-I 5 W/m 0,0 C -5,0 C 20,9 km/h (4 Bft)
12.01.2021 09:06 0,6 C 0,0 C 96 % 1010,5 hPa 0,0 l/m 12,1 km/h (2 Bft) S-SW 207 0 min 0,0 UV-I 6 W/m 0,0 C -4,4 C 16,1 km/h (3 Bft)
12.01.2021 09:08 0,6 C 0,0 C 96 % 1010,4 hPa 0,0 l/m 11,4 km/h (2 Bft) S-SW 200 0 min 0,0 UV-I 7 W/m 0,0 C -3,9 C 17,7 km/h (3 Bft)
12.01.2021 09:10 0,6 C 0,0 C 96 % 1010,4 hPa 0,0 l/m 13,1 km/h (3 Bft) S-SW 195 0 min 0,0 UV-I 9 W/m 0,0 C -5,1 C 20,9 km/h (4 Bft)
12.01.2021 09:12 0,6 C 0,0 C 96 % 1010,4 hPa 0,2 l/m 13,2 km/h (3 Bft) S-SW 192 0 min 0,0 UV-I 10 W/m 0,0 C -5,1 C 17,7 km/h (3 Bft)
12.01.2021 09:14 0,6 C 0,0 C 96 % 1010,4 hPa 0,0 l/m 12,9 km/h (3 Bft) S-SW 213 0 min 0,0 UV-I 11 W/m 0,0 C -4,9 C 16,1 km/h (3 Bft)
12.01.2021 09:16 0,6 C 0,0 C 96 % 1010,4 hPa 0,2 l/m 11,6 km/h (2 Bft) S-SW 206 0 min 0,0 UV-I 12 W/m 0,0 C -4,0 C 16,1 km/h (3 Bft)
12.01.2021 09:18 0,6 C 0,0 C 96 % 1010,3 hPa 0,2 l/m 14,7 km/h (3 Bft) SW 221 0 min 0,0 UV-I 12 W/m 0,0 C -6,1 C 20,9 km/h (4 Bft)
12.01.2021 09:20 0,7 C 0,0 C 96 % 1010,3 hPa 0,0 l/m 15,9 km/h (3 Bft) S 187 0 min 0,0 UV-I 15 W/m 0,1 C -6,7 C 22,5 km/h (4 Bft)
12.01.2021 09:22 0,7 C 0,0 C 96 % 1010,2 hPa 0,0 l/m 14,4 km/h (3 Bft) S-SW 205 0 min 0,0 UV-I 20 W/m 0,1 C -5,8 C 20,9 km/h (4 Bft)
12.01.2021 09:24 0,7 C 0,0 C 96 % 1010,3 hPa 0,2 l/m 14,0 km/h (3 Bft) S 190 0 min 0,0 UV-I 21 W/m 0,1 C -5,5 C 22,5 km/h (4 Bft)
12.01.2021 09:26 0,7 C 0,0 C 96 % 1010,3 hPa 0,0 l/m 15,2 km/h (3 Bft) SW 219 0 min 0,0 UV-I 20 W/m 0,1 C -6,3 C 20,9 km/h (4 Bft)
12.01.2021 09:28 0,7 C 0,0 C 96 % 1010,2 hPa 0,0 l/m 14,3 km/h (3 Bft) SW 222 0 min 0,0 UV-I 21 W/m 0,1 C -5,7 C 19,3 km/h (3 Bft)
12.01.2021 09:30 0,7 C 0,0 C 96 % 1010,2 hPa 0,2 l/m 12,1 km/h (2 Bft) S-SW 207 0 min 0,0 UV-I 24 W/m 0,1 C -4,3 C 20,9 km/h (4 Bft)
12.01.2021 09:32 0,7 C 0,0 C 96 % 1010,3 hPa 0,0 l/m 11,0 km/h (2 Bft) SW 224 0 min 0,0 UV-I 25 W/m 0,1 C -3,5 C 16,1 km/h (3 Bft)
12.01.2021 09:34 0,7 C 0,0 C 96 % 1010,2 hPa 0,0 l/m 13,4 km/h (3 Bft) S-SW 213 0 min 0,0 UV-I 25 W/m 0,1 C -5,1 C 20,9 km/h (4 Bft)
12.01.2021 09:36 0,7 C 0,0 C 96 % 1010,3 hPa 0,2 l/m 13,3 km/h (3 Bft) S-SW 200 0 min 0,0 UV-I 26 W/m 0,1 C -5,1 C 16,1 km/h (3 Bft)
12.01.2021 09:38 0,7 C 0,0 C 96 % 1010,3 hPa 0,0 l/m 10,8 km/h (2 Bft) SW 221 0 min 0,0 UV-I 26 W/m 0,1 C -3,3 C 16,1 km/h (3 Bft)
12.01.2021 09:40 0,7 C 0,0 C 96 % 1010,3 hPa 0,2 l/m 11,8 km/h (2 Bft) S-SW 210 0 min 0,0 UV-I 29 W/m 0,1 C -4,1 C 16,1 km/h (3 Bft)
12.01.2021 09:42 0,7 C 0,0 C 96 % 1010,3 hPa 0,0 l/m 11,7 km/h (2 Bft) S-SW 211 0 min 0,0 UV-I 33 W/m 0,1 C -4,0 C 16,1 km/h (3 Bft)
12.01.2021 09:44 0,7 C 0,0 C 96 % 1010,3 hPa 0,0 l/m 11,5 km/h (2 Bft) S-SW 208 0 min 0,0 UV-I 33 W/m 0,1 C -3,8 C 20,9 km/h (4 Bft)
12.01.2021 09:46 0,7 C 0,0 C 96 % 1010,3 hPa 0,2 l/m 12,1 km/h (2 Bft) SW 226 0 min 0,0 UV-I 32 W/m 0,1 C -4,3 C 16,1 km/h (3 Bft)
12.01.2021 09:48 0,8 C 0,0 C 96 % 1010,2 hPa 0,0 l/m 11,0 km/h (2 Bft) SW 228 0 min 0,0 UV-I 32 W/m 0,2 C -3,3 C 16,1 km/h (3 Bft)
12.01.2021 09:50 0,8 C 0,0 C 96 % 1010,3 hPa 0,0 l/m 10,8 km/h (2 Bft) S-SW 198 0 min 0,0 UV-I 35 W/m 0,2 C -3,2 C 16,1 km/h (3 Bft)
12.01.2021 09:52 0,8 C 0,0 C 96 % 1010,3 hPa 0,2 l/m 10,5 km/h (2 Bft) S 186 0 min 0,0 UV-I 35 W/m 0,2 C -3,0 C 14,5 km/h (3 Bft)
12.01.2021 09:54 0,8 C 0,0 C 96 % 1010,3 hPa 0,0 l/m 11,5 km/h (2 Bft) S 183 0 min 0,0 UV-I 34 W/m 0,2 C -3,7 C 22,5 km/h (4 Bft)
12.01.2021 09:56 0,8 C 0,0 C 96 % 1010,3 hPa 0,0 l/m 12,7 km/h (3 Bft) SW 216 0 min 0,0 UV-I 35 W/m 0,2 C -4,6 C 20,9 km/h (4 Bft)
12.01.2021 09:58 0,8 C 0,0 C 96 % 1010,2 hPa 0,2 l/m 12,6 km/h (3 Bft) S-SW 204 0 min 0,0 UV-I 35 W/m 0,2 C -4,5 C 19,3 km/h (3 Bft)
12.01.2021 10:00 0,8 C 0,0 C 96 % 1010,2 hPa 0,0 l/m 12,6 km/h (3 Bft) S-SW 198 0 min 0,0 UV-I 30 W/m 0,2 C -4,5 C 20,9 km/h (4 Bft)
12.01.2021 10:02 0,8 C 0,0 C 96 % 1010,2 hPa 0,2 l/m 13,6 km/h (3 Bft) S-SW 196 0 min 0,0 UV-I 27 W/m 0,2 C -5,2 C 24,1 km/h (4 Bft)
12.01.2021 10:04 0,8 C 0,0 C 96 % 1010,3 hPa 0,0 l/m 12,0 km/h (2 Bft) SW 224 0 min 0,0 UV-I 29 W/m 0,2 C -4,1 C 20,9 km/h (4 Bft)
12.01.2021 10:06 0,8 C 0,0 C 96 % 1010,3 hPa 0,0 l/m 12,8 km/h (3 Bft) S-SW 211 0 min 0,0 UV-I 32 W/m 0,2 C -4,6 C 19,3 km/h (3 Bft)
12.01.2021 10:08 0,8 C 0,0 C 96 % 1010,4 hPa 0,0 l/m 11,6 km/h (2 Bft) S-SW 213 0 min 0,0 UV-I 33 W/m 0,2 C -3,8 C 17,7 km/h (3 Bft)
12.01.2021 10:10 0,8 C 0,0 C 96 % 1010,3 hPa 0,2 l/m 11,3 km/h (2 Bft) S-SW 208 0 min 0,0 UV-I 31 W/m 0,2 C -3,6 C 16,1 km/h (3 Bft)
12.01.2021 10:12 0,8 C 0,0 C 96 % 1010,4 hPa 0,0 l/m 11,9 km/h (2 Bft) S-SW 198 0 min 0,0 UV-I 22 W/m 0,2 C -4,0 C 16,1 km/h (3 Bft)
12.01.2021 10:14 0,8 C 0,0 C 96 % 1010,4 hPa 0,0 l/m 13,3 km/h (3 Bft) S-SW 198 0 min 0,0 UV-I 17 W/m 0,2 C -5,0 C 19,3 km/h (3 Bft)
12.01.2021 10:16 0,8 C 0,0 C 96 % 1010,3 hPa 0,2 l/m 11,9 km/h (2 Bft) SW 216 0 min 0,0 UV-I 18 W/m 0,2 C -4,0 C 14,5 km/h (3 Bft)
12.01.2021 10:18 0,8 C 0,0 C 96 % 1010,4 hPa 0,0 l/m 11,4 km/h (2 Bft) S-SW 192 0 min 0,0 UV-I 29 W/m 0,2 C -3,6 C 16,1 km/h (3 Bft)
12.01.2021 10:20 0,8 C 0,0 C 96 % 1010,4 hPa 0,0 l/m 12,5 km/h (3 Bft) S-SW 207 0 min 0,0 UV-I 45 W/m 0,2 C -4,4 C 17,7 km/h (3 Bft)
12.01.2021 10:22 0,8 C 0,0 C 96 % 1010,4 hPa 0,2 l/m 10,8 km/h (2 Bft) SW 224 0 min 0,0 UV-I 48 W/m 0,2 C -3,2 C 14,5 km/h (3 Bft)
12.01.2021 10:24 0,9 C 0,0 C 96 % 1010,4 hPa 0,0 l/m 11,4 km/h (2 Bft) S-SW 205 0 min 0,0 UV-I 46 W/m 0,3 C -3,5 C 17,7 km/h (3 Bft)
12.01.2021 10:26 0,9 C 0,0 C 96 % 1010,4 hPa 0,0 l/m 12,0 km/h (2 Bft) S-SW 196 0 min 0,0 UV-I 47 W/m 0,3 C -4,0 C 17,7 km/h (3 Bft)
12.01.2021 10:28 0,9 C 0,0 C 96 % 1010,4 hPa 0,0 l/m 10,9 km/h (2 Bft) S-SW 208 0 min 0,0 UV-I 48 W/m 0,3 C -3,2 C 17,7 km/h (3 Bft)
12.01.2021 10:30 0,9 C 0,0 C 96 % 1010,4 hPa 0,2 l/m 11,8 km/h (2 Bft) SW 215 0 min 0,0 UV-I 53 W/m 0,3 C -3,8 C 16,1 km/h (3 Bft)
12.01.2021 10:32 0,9 C 0,0 C 96 % 1010,4 hPa 0,0 l/m 10,5 km/h (2 Bft) S-SW 198 0 min 0,0 UV-I 60 W/m 0,3 C -2,9 C 14,5 km/h (3 Bft)
12.01.2021 10:34 0,9 C 0,0 C 96 % 1010,3 hPa 0,0 l/m 11,5 km/h (2 Bft) SW 217 0 min 0,0 UV-I 62 W/m 0,3 C -3,6 C 17,7 km/h (3 Bft)
12.01.2021 10:36 0,9 C 0,0 C 96 % 1010,4 hPa 0,0 l/m 11,5 km/h (2 Bft) SW 216 0 min 0,0 UV-I 63 W/m 0,3 C -3,6 C 14,5 km/h (3 Bft)
12.01.2021 10:38 0,9 C 0,0 C 96 % 1010,4 hPa 0,2 l/m 8,9 km/h (2 Bft) S-SW 207 0 min 0,0 UV-I 69 W/m 0,3 C -1,5 C 12,9 km/h (3 Bft)
12.01.2021 10:40 0,9 C 0,0 C 96 % 1010,5 hPa 0,0 l/m 8,7 km/h (2 Bft) S-SW 205 0 min 0,0 UV-I 76 W/m 0,3 C -1,3 C 12,9 km/h (3 Bft)
12.01.2021 10:42 0,9 C 0,0 C 96 % 1010,4 hPa 0,0 l/m 9,1 km/h (2 Bft) SW 226 0 min 0,0 UV-I 75 W/m 0,3 C -1,7 C 16,1 km/h (3 Bft)
12.01.2021 10:44 1,0 C 0,0 C 96 % 1010,3 hPa 0,2 l/m 12,8 km/h (3 Bft) S-SW 209 0 min 0,0 UV-I 70 W/m 0,4 C -4,4 C 19,3 km/h (3 Bft)
12.01.2021 10:46 0,9 C 0,0 C 96 % 1010,3 hPa 0,0 l/m 13,6 km/h (3 Bft) S-SW 193 0 min 0,0 UV-I 75 W/m 0,3 C -5,0 C 20,9 km/h (4 Bft)
12.01.2021 10:48 1,0 C 0,0 C 96 % 1010,3 hPa 0,0 l/m 12,6 km/h (3 Bft) S-SW 193 0 min 0,4 UV-I 82 W/m 0,4 C -4,3 C 17,7 km/h (3 Bft)
12.01.2021 10:50 1,0 C 0,0 C 96 % 1010,3 hPa 0,0 l/m 13,8 km/h (3 Bft) S-SW 213 0 min 0,5 UV-I 96 W/m 0,4 C -5,0 C 17,7 km/h (3 Bft)
12.01.2021 10:52 1,0 C 0,0 C 96 % 1010,4 hPa 0,2 l/m 15,5 km/h (3 Bft) SW 231 0 min 0,5 UV-I 104 W/m 0,4 C -6,1 C 25,7 km/h (4 Bft)
12.01.2021 10:54 1,1 C 0,0 C 96 % 1010,4 hPa 0,0 l/m 12,1 km/h (2 Bft) S-SW 208 0 min 0,5 UV-I 90 W/m 0,5 C -3,8 C 16,1 km/h (3 Bft)
12.01.2021 10:56 1,1 C 0,0 C 96 % 1010,4 hPa 0,0 l/m 14,7 km/h (3 Bft) S-SW 205 0 min 0,5 UV-I 82 W/m 0,5 C -5,5 C 17,7 km/h (3 Bft)
12.01.2021 10:58 1,1 C 0,0 C 96 % 1010,3 hPa 0,0 l/m 12,6 km/h (3 Bft) S-SW 195 0 min 0,5 UV-I 79 W/m 0,5 C -4,1 C 16,1 km/h (3 Bft)
12.01.2021 11:00 1,1 C 0,0 C 96 % 1010,4 hPa 0,0 l/m 11,5 km/h (2 Bft) S 176 0 min 0,5 UV-I 90 W/m 0,5 C -3,4 C 16,1 km/h (3 Bft)
12.01.2021 11:02 1,2 C 0,0 C 96 % 1010,4 hPa 0,2 l/m 13,0 km/h (3 Bft) S-SW 213 0 min 0,5 UV-I 102 W/m 0,6 C -4,3 C 17,7 km/h (3 Bft)
12.01.2021 11:04 1,2 C 0,0 C 96 % 1010,4 hPa 0,0 l/m 12,2 km/h (2 Bft) S-SW 211 0 min 0,5 UV-I 101 W/m 0,6 C -3,8 C 16,1 km/h (3 Bft)
12.01.2021 11:06 1,2 C 0,0 C 96 % 1010,5 hPa 0,0 l/m 11,0 km/h (2 Bft) SW 222 0 min 0,5 UV-I 97 W/m 0,6 C -2,9 C 16,1 km/h (3 Bft)
12.01.2021 11:08 1,2 C 0,0 C 96 % 1010,5 hPa 0,0 l/m 13,2 km/h (3 Bft) SW 227 0 min 0,5 UV-I 98 W/m 0,6 C -4,4 C 22,5 km/h (4 Bft)
12.01.2021 11:10 1,2 C 0,0 C 96 % 1010,4 hPa 0,0 l/m 14,6 km/h (3 Bft) S-SW 211 0 min 0,5 UV-I 112 W/m 0,6 C -5,3 C 22,5 km/h (4 Bft)
12.01.2021 11:12 1,3 C 0,0 C 96 % 1010,5 hPa 0,0 l/m 14,8 km/h (3 Bft) S-SW 210 0 min 0,5 UV-I 111 W/m 0,7 C -5,3 C 22,5 km/h (4 Bft)
12.01.2021 11:14 1,3 C 0,0 C 96 % 1010,3 hPa 0,2 l/m 11,9 km/h (2 Bft) SW 221 0 min 0,6 UV-I 121 W/m 0,7 C -3,4 C 16,1 km/h (3 Bft)
12.01.2021 11:16 1,4 C 0,0 C 96 % 1010,4 hPa 0,0 l/m 14,3 km/h (3 Bft) S-SW 213 0 min 0,5 UV-I 124 W/m 0,8 C -4,9 C 20,9 km/h (4 Bft)
12.01.2021 11:18 1,4 C 0,0 C 96 % 1010,4 hPa 0,0 l/m 14,8 km/h (3 Bft) S-SW 202 0 min 0,5 UV-I 104 W/m 0,8 C -5,2 C 19,3 km/h (3 Bft)
12.01.2021 11:20 1,4 C 0,0 C 96 % 1010,4 hPa 0,0 l/m 15,1 km/h (3 Bft) S 190 0 min 0,5 UV-I 93 W/m 0,8 C -5,3 C 22,5 km/h (4 Bft)
12.01.2021 11:22 1,4 C 0,0 C 96 % 1010,4 hPa 0,0 l/m 12,1 km/h (2 Bft) SW 218 0 min 0,5 UV-I 96 W/m 0,8 C -3,5 C 16,1 km/h (3 Bft)
12.01.2021 11:24 1,4 C 0,0 C 96 % 1010,5 hPa 0,0 l/m 10,5 km/h (2 Bft) SW 215 0 min 0,5 UV-I 82 W/m 0,8 C -2,3 C 16,1 km/h (3 Bft)
12.01.2021 11:26 1,4 C 0,0 C 96 % 1010,4 hPa 0,0 l/m 11,4 km/h (2 Bft) S-SW 209 0 min 0,2 UV-I 60 W/m 0,8 C -3,0 C 14,5 km/h (3 Bft)
12.01.2021 11:28 1,4 C 0,0 C 96 % 1010,4 hPa 0,2 l/m 13,6 km/h (3 Bft) S-SW 206 0 min 0,0 UV-I 44 W/m 0,8 C -4,4 C 20,9 km/h (4 Bft)
12.01.2021 11:30 1,4 C 0,0 C 96 % 1010,4 hPa 0,0 l/m 14,3 km/h (3 Bft) SW 221 0 min 0,0 UV-I 48 W/m 0,8 C -4,9 C 20,9 km/h (4 Bft)
12.01.2021 11:32 1,4 C 0,0 C 96 % 1010,4 hPa 0,0 l/m 14,3 km/h (3 Bft) S 189 0 min 0,0 UV-I 44 W/m 0,8 C -4,9 C 20,9 km/h (4 Bft)
12.01.2021 11:34 1,4 C 0,0 C 96 % 1010,4 hPa 0,0 l/m 10,5 km/h (2 Bft) S-SW 207 0 min 0,0 UV-I 43 W/m 0,8 C -2,3 C 16,1 km/h (3 Bft)
12.01.2021 11:36 1,4 C 0,0 C 96 % 1010,4 hPa 0,2 l/m 10,7 km/h (2 Bft) S-SW 213 0 min 0,2 UV-I 60 W/m 0,8 C -2,4 C 19,3 km/h (3 Bft)
12.01.2021 11:38 1,4 C 0,0 C 96 % 1010,4 hPa 0,0 l/m 12,0 km/h (2 Bft) S-SW 200 0 min 0,6 UV-I 91 W/m 0,8 C -3,4 C 17,7 km/h (3 Bft)
12.01.2021 11:40 1,4 C 0,0 C 96 % 1010,4 hPa 0,0 l/m 13,0 km/h (3 Bft) SW 217 0 min 0,6 UV-I 110 W/m 0,8 C -4,1 C 19,3 km/h (3 Bft)
12.01.2021 11:42 1,4 C 0,0 C 96 % 1010,4 hPa 0,0 l/m 11,8 km/h (2 Bft) S-SW 200 0 min 0,5 UV-I 94 W/m 0,8 C -3,2 C 14,5 km/h (3 Bft)
12.01.2021 11:44 1,4 C 0,0 C 96 % 1010,4 hPa 0,0 l/m 10,7 km/h (2 Bft) S-SW 207 0 min 0,5 UV-I 84 W/m 0,8 C -2,4 C 16,1 km/h (3 Bft)
12.01.2021 11:46 1,4 C 0,0 C 96 % 1010,4 hPa 0,0 l/m 11,3 km/h (2 Bft) S-SW 209 0 min 0,5 UV-I 74 W/m 0,8 C -2,9 C 14,5 km/h (3 Bft)
12.01.2021 11:48 1,4 C 0,0 C 96 % 1010,3 hPa 0,0 l/m 12,6 km/h (3 Bft) S-SW 200 0 min 0,5 UV-I 60 W/m 0,8 C -3,8 C 17,7 km/h (3 Bft)
12.01.2021 11:50 1,4 C 0,0 C 96 % 1010,3 hPa 0,0 l/m 11,9 km/h (2 Bft) S-SW 194 0 min 0,5 UV-I 64 W/m 0,8 C -3,3 C 19,3 km/h (3 Bft)
12.01.2021 11:52 1,5 C 0,0 C 96 % 1010,3 hPa 0,2 l/m 14,3 km/h (3 Bft) S-SW 200 0 min 0,5 UV-I 70 W/m 0,9 C -4,8 C 20,9 km/h (4 Bft)
12.01.2021 11:54 1,5 C 0,0 C 96 % 1010,3 hPa 0,0 l/m 11,6 km/h (2 Bft) S-SW 200 0 min 0,5 UV-I 73 W/m 0,9 C -3,0 C 16,1 km/h (3 Bft)
12.01.2021 11:56 1,5 C 0,0 C 96 % 1010,3 hPa 0,0 l/m 12,3 km/h (3 Bft) S-SW 199 0 min 0,5 UV-I 69 W/m 0,9 C -3,5 C 19,3 km/h (3 Bft)
12.01.2021 11:58 1,5 C 0,0 C 96 % 1010,3 hPa 0,0 l/m 12,9 km/h (3 Bft) SW 217 0 min 0,6 UV-I 83 W/m 0,9 C -3,9 C 19,3 km/h (3 Bft)
12.01.2021 12:00 1,6 C 0,0 C 96 % 1010,3 hPa 0,0 l/m 12,0 km/h (2 Bft) S-SW 203 0 min 0,6 UV-I 107 W/m 1,0 C -3,2 C 19,3 km/h (3 Bft)
12.01.2021 12:02 1,6 C 0,0 C 96 % 1010,4 hPa 0,0 l/m 14,1 km/h (3 Bft) S-SW 200 0 min 0,6 UV-I 102 W/m 1,0 C -4,5 C 19,3 km/h (3 Bft)
12.01.2021 12:04 1,6 C 0,0 C 96 % 1010,3 hPa 0,0 l/m 12,1 km/h (2 Bft) S-SW 207 0 min 0,6 UV-I 101 W/m 1,0 C -3,2 C 17,7 km/h (3 Bft)
12.01.2021 12:06 1,6 C 0,0 C 96 % 1010,3 hPa 0,0 l/m 11,0 km/h (2 Bft) S 190 0 min 0,6 UV-I 127 W/m 1,0 C -2,4 C 16,1 km/h (3 Bft)
12.01.2021 12:08 1,7 C 0,0 C 96 % 1010,2 hPa 0,0 l/m 12,1 km/h (2 Bft) S-SW 201 0 min 0,6 UV-I 112 W/m 1,1 C -3,1 C 19,3 km/h (3 Bft)
12.01.2021 12:10 1,6 C 0,0 C 96 % 1010,2 hPa 0,0 l/m 11,8 km/h (2 Bft) S-SW 199 0 min 0,6 UV-I 82 W/m 1,0 C -3,0 C 16,1 km/h (3 Bft)
12.01.2021 12:12 1,7 C 0,0 C 96 % 1010,1 hPa 0,0 l/m 12,3 km/h (3 Bft) S-SW 206 0 min 0,5 UV-I 73 W/m 1,1 C -3,2 C 17,7 km/h (3 Bft)
12.01.2021 12:14 1,6 C 0,0 C 96 % 1010,2 hPa 0,0 l/m 11,2 km/h (2 Bft) S-SW 207 0 min 0,5 UV-I 65 W/m 1,0 C -2,6 C 17,7 km/h (3 Bft)
12.01.2021 12:16 1,6 C 0,0 C 96 % 1010,2 hPa 0,0 l/m 11,4 km/h (2 Bft) S-SW 210 0 min 0,5 UV-I 70 W/m 1,0 C -2,7 C 17,7 km/h (3 Bft)
12.01.2021 12:18 1,7 C 0,0 C 96 % 1010,1 hPa 0,0 l/m 12,4 km/h (3 Bft) SW 219 0 min 0,6 UV-I 91 W/m 1,1 C -3,3 C 20,9 km/h (4 Bft)
12.01.2021 12:20 1,7 C 0,6 C 96 % 1010,1 hPa 0,0 l/m 11,7 km/h (2 Bft) SW 220 0 min 0,6 UV-I 110 W/m 1,1 C -2,8 C 17,7 km/h (3 Bft)
12.01.2021 12:22 1,7 C 0,6 C 96 % 1010,1 hPa 0,0 l/m 11,0 km/h (2 Bft) S 191 0 min 0,6 UV-I 122 W/m 1,1 C -2,3 C 17,7 km/h (3 Bft)
12.01.2021 12:24 1,7 C 0,6 C 96 % 1010,1 hPa 0,0 l/m 10,4 km/h (2 Bft) SW 217 0 min 0,6 UV-I 114 W/m 1,1 C -1,9 C 14,5 km/h (3 Bft)
12.01.2021 12:26 1,7 C 0,6 C 96 % 1010,2 hPa 0,0 l/m 13,9 km/h (3 Bft) W-SW 239 0 min 0,6 UV-I 97 W/m 1,1 C -4,3 C 19,3 km/h (3 Bft)
12.01.2021 12:28 1,7 C 0,6 C 96 % 1010,2 hPa 0,0 l/m 11,0 km/h (2 Bft) S-SW 213 0 min 0,6 UV-I 96 W/m 1,1 C -2,3 C 16,1 km/h (3 Bft)
12.01.2021 12:30 1,8 C 0,6 C 96 % 1010,2 hPa 0,2 l/m 12,0 km/h (2 Bft) S-SW 211 0 min 0,6 UV-I 103 W/m 1,2 C -2,9 C 16,1 km/h (3 Bft)
12.01.2021 12:32 1,8 C 0,6 C 96 % 1010,3 hPa 0,0 l/m 8,4 km/h (2 Bft) S-SW 206 0 min 0,6 UV-I 104 W/m 1,2 C -0,1 C 12,9 km/h (3 Bft)
12.01.2021 12:34 1,8 C 0,6 C 96 % 1010,4 hPa 0,0 l/m 6,5 km/h (2 Bft) SW 236 0 min 0,6 UV-I 114 W/m 1,2 C 1,7 C 9,7 km/h (2 Bft)
12.01.2021 12:36 1,8 C 0,6 C 96 % 1010,4 hPa 0,0 l/m 6,6 km/h (2 Bft) SW 223 0 min 0,6 UV-I 106 W/m 1,2 C 1,6 C 12,9 km/h (3 Bft)
12.01.2021 12:38 1,8 C 0,6 C 96 % 1010,4 hPa 0,0 l/m 5,8 km/h (2 Bft) SW 230 0 min 0,5 UV-I 94 W/m 1,2 C 1,8 C 11,3 km/h (2 Bft)
12.01.2021 12:40 1,8 C 0,6 C 96 % 1010,4 hPa 0,0 l/m 3,6 km/h (1 Bft) SW 223 0 min 0,5 UV-I 91 W/m 1,2 C 1,8 C 6,4 km/h (2 Bft)
12.01.2021 12:42 1,8 C 0,6 C 96 % 1010,5 hPa 0,0 l/m 7,0 km/h (2 Bft) W-SW 253 0 min 0,5 UV-I 89 W/m 1,2 C 1,2 C 12,9 km/h (3 Bft)
12.01.2021 12:44 1,8 C 0,6 C 96 % 1010,6 hPa 0,0 l/m 5,8 km/h (2 Bft) W 271 0 min 0,5 UV-I 86 W/m 1,2 C 1,8 C 9,7 km/h (2 Bft)
12.01.2021 12:46 1,8 C 0,6 C 96 % 1010,6 hPa 0,2 l/m 7,0 km/h (2 Bft) W 263 0 min 0,5 UV-I 82 W/m 1,2 C 1,2 C 11,3 km/h (2 Bft)
12.01.2021 12:48 1,8 C 0,6 C 96 % 1010,6 hPa 0,0 l/m 5,0 km/h (1 Bft) W-SW 248 0 min 0,5 UV-I 93 W/m 1,2 C 1,8 C 8,0 km/h (2 Bft)
12.01.2021 12:50 1,8 C 0,6 C 96 % 1010,6 hPa 0,0 l/m 6,1 km/h (2 Bft) SW 231 0 min 0,6 UV-I 95 W/m 1,2 C 1,8 C 9,7 km/h (2 Bft)
12.01.2021 12:52 1,8 C 0,6 C 96 % 1010,5 hPa 0,0 l/m 6,6 km/h (2 Bft) SW 219 0 min 0,6 UV-I 99 W/m 1,2 C 1,6 C 9,7 km/h (2 Bft)
12.01.2021 12:54 1,8 C 0,6 C 96 % 1010,4 hPa 0,0 l/m 6,4 km/h (2 Bft) SW 233 0 min 0,6 UV-I 104 W/m 1,2 C 1,8 C 8,0 km/h (2 Bft)
12.01.2021 12:56 1,8 C 0,6 C 96 % 1010,4 hPa 0,0 l/m 4,9 km/h (1 Bft) S-SW 203 0 min 0,6 UV-I 102 W/m 1,2 C 1,8 C 6,4 km/h (2 Bft)
12.01.2021 12:58 1,8 C 0,6 C 96 % 1010,4 hPa 0,0 l/m 7,0 km/h (2 Bft) S-SW 208 0 min 0,6 UV-I 109 W/m 1,2 C 1,2 C 11,3 km/h (2 Bft)
12.01.2021 13:00 1,8 C 0,6 C 96 % 1010,4 hPa 0,0 l/m 5,7 km/h (1 Bft) S-SW 210 0 min 0,6 UV-I 115 W/m 1,2 C 1,8 C 8,0 km/h (2 Bft)
12.01.2021 13:02 1,8 C 0,6 C 96 % 1010,4 hPa 0,0 l/m 6,0 km/h (2 Bft) S-SW 213 0 min 0,6 UV-I 107 W/m 1,2 C 1,8 C 8,0 km/h (2 Bft)
12.01.2021 13:04 1,8 C 0,6 C 96 % 1010,3 hPa 0,0 l/m 5,1 km/h (1 Bft) SW 214 0 min 0,6 UV-I 109 W/m 1,2 C 1,8 C 8,0 km/h (2 Bft)
12.01.2021 13:06 1,8 C 0,6 C 96 % 1010,3 hPa 0,0 l/m 3,8 km/h (1 Bft) SW 214 0 min 0,6 UV-I 105 W/m 1,2 C 1,8 C 6,4 km/h (2 Bft)
12.01.2021 13:08 1,9 C 0,6 C 96 % 1010,4 hPa 0,0 l/m 3,9 km/h (1 Bft) SW 214 0 min 0,6 UV-I 87 W/m 1,3 C 1,9 C 6,4 km/h (2 Bft)
12.01.2021 13:10 1,9 C 0,6 C 96 % 1010,3 hPa 0,0 l/m 3,0 km/h (1 Bft) SW 214 0 min 0,6 UV-I 67 W/m 1,3 C 1,9 C 4,8 km/h (1 Bft)
12.01.2021 13:12 1,9 C 0,6 C 96 % 1010,4 hPa 0,0 l/m 3,0 km/h (1 Bft) SW 214 0 min 0,6 UV-I 75 W/m 1,3 C 1,9 C 4,8 km/h (1 Bft)
12.01.2021 13:14 1,9 C 0,6 C 96 % 1010,4 hPa 0,0 l/m 3,6 km/h (1 Bft) SW 214 0 min 0,6 UV-I 80 W/m 1,3 C 1,9 C 6,4 km/h (2 Bft)
12.01.2021 13:16 1,9 C 0,6 C 96 % 1010,4 hPa 0,0 l/m 1,5 km/h (1 Bft) SW 214 0 min 0,6 UV-I 78 W/m 1,3 C 1,9 C 3,2 km/h (1 Bft)
12.01.2021 13:18 1,9 C 1,1 C 96 % 1010,4 hPa 0,0 l/m 2,7 km/h (1 Bft) SW 214 0 min 0,7 UV-I 111 W/m 1,3 C 1,9 C 4,8 km/h (1 Bft)
12.01.2021 13:20 2,0 C 1,1 C 96 % 1010,4 hPa 0,0 l/m 2,4 km/h (1 Bft) SW 214 0 min 0,7 UV-I 138 W/m 1,4 C 2,0 C 4,8 km/h (1 Bft)
12.01.2021 13:22 2,1 C 1,1 C 96 % 1010,3 hPa 0,0 l/m 2,2 km/h (1 Bft) SW 214 0 min 0,7 UV-I 116 W/m 1,5 C 2,1 C 3,2 km/h (1 Bft)
12.01.2021 13:24 2,1 C 1,1 C 96 % 1010,3 hPa 0,0 l/m 3,1 km/h (1 Bft) SW 214 0 min 0,7 UV-I 102 W/m 1,5 C 2,1 C 4,8 km/h (1 Bft)
12.01.2021 13:26 2,1 C 1,1 C 96 % 1010,3 hPa 0,0 l/m 2,7 km/h (1 Bft) SW 214 0 min 0,7 UV-I 118 W/m 1,5 C 2,1 C 4,8 km/h (1 Bft)
12.01.2021 13:28 2,1 C 1,1 C 96 % 1010,3 hPa 0,0 l/m 2,6 km/h (1 Bft) SW 214 0 min 0,7 UV-I 146 W/m 1,5 C 2,1 C 4,8 km/h (1 Bft)
12.01.2021 13:30 2,2 C 1,1 C 96 % 1010,2 hPa 0,0 l/m 2,6 km/h (1 Bft) SW 214 0 min 0,7 UV-I 150 W/m 1,6 C 2,2 C 4,8 km/h (1 Bft)
12.01.2021 13:32 2,2 C 1,1 C 96 % 1010,4 hPa 0,2 l/m 2,3 km/h (1 Bft) SW 214 0 min 0,7 UV-I 126 W/m 1,6 C 2,2 C 4,8 km/h (1 Bft)
12.01.2021 13:34 2,3 C 1,1 C 96 % 1010,3 hPa 0,0 l/m 1,7 km/h (1 Bft) SW 214 0 min 0,5 UV-I 87 W/m 1,7 C 2,3 C 3,2 km/h (1 Bft)
12.01.2021 13:36 2,2 C 1,1 C 96 % 1010,3 hPa 0,0 l/m 2,1 km/h (1 Bft) SW 214 0 min 0,5 UV-I 70 W/m 1,6 C 2,2 C 4,8 km/h (1 Bft)
12.01.2021 13:38 2,3 C 1,1 C 96 % 1010,3 hPa 0,0 l/m 3,4 km/h (1 Bft) SW 214 0 min 0,5 UV-I 69 W/m 1,7 C 2,3 C 4,8 km/h (1 Bft)
12.01.2021 13:40 2,3 C 1,1 C 96 % 1010,3 hPa 0,0 l/m 2,4 km/h (1 Bft) SW 214 0 min 0,5 UV-I 68 W/m 1,7 C 2,3 C 4,8 km/h (1 Bft)
12.01.2021 13:42 2,3 C 1,1 C 96 % 1010,3 hPa 0,0 l/m 2,7 km/h (1 Bft) SW 214 0 min 0,6 UV-I 70 W/m 1,7 C 2,3 C 4,8 km/h (1 Bft)
12.01.2021 13:44 2,3 C 1,1 C 96 % 1010,3 hPa 0,0 l/m 2,1 km/h (1 Bft) SW 214 0 min 0,6 UV-I 86 W/m 1,7 C 2,3 C 4,8 km/h (1 Bft)
12.01.2021 13:46 2,3 C 1,1 C 96 % 1010,3 hPa 0,0 l/m 0,9 km/h (0 Bft) SW 214 0 min 0,6 UV-I 89 W/m 1,7 C 2,3 C 1,6 km/h (1 Bft)
12.01.2021 13:48 2,3 C 1,1 C 96 % 1010,3 hPa 0,0 l/m 1,5 km/h (1 Bft) SW 214 0 min 0,5 UV-I 90 W/m 1,7 C 2,3 C 3,2 km/h (1 Bft)
12.01.2021 13:50 2,4 C 1,1 C 96 % 1010,3 hPa 0,0 l/m 3,3 km/h (1 Bft) SW 214 0 min 0,5 UV-I 99 W/m 1,8 C 2,4 C 6,4 km/h (2 Bft)
12.01.2021 13:52 2,4 C 1,1 C 97 % 1010,4 hPa 0,0 l/m 2,8 km/h (1 Bft) SW 215 0 min 0,5 UV-I 86 W/m 2,0 C 2,4 C 4,8 km/h (1 Bft)
12.01.2021 13:54 2,5 C 1,1 C 97 % 1010,3 hPa 0,0 l/m 5,4 km/h (1 Bft) W-SW 249 0 min 0,5 UV-I 66 W/m 2,1 C 2,5 C 8,0 km/h (2 Bft)
12.01.2021 13:56 2,6 C 1,1 C 96 % 1010,4 hPa 0,0 l/m 4,7 km/h (1 Bft) W-SW 252 0 min 0,3 UV-I 56 W/m 2,0 C 2,6 C 6,4 km/h (2 Bft)
12.01.2021 13:58 2,7 C 1,1 C 96 % 1010,5 hPa 0,0 l/m 4,3 km/h (1 Bft) W 259 0 min 0,4 UV-I 65 W/m 2,1 C 2,7 C 9,7 km/h (2 Bft)
12.01.2021 14:00 2,7 C 1,1 C 96 % 1010,4 hPa 0,0 l/m 3,9 km/h (1 Bft) W 264 0 min 0,0 UV-I 71 W/m 2,1 C 2,7 C 9,7 km/h (2 Bft)
12.01.2021 14:02 2,7 C 1,1 C 96 % 1010,5 hPa 0,0 l/m 3,5 km/h (1 Bft) W 265 0 min 0,0 UV-I 59 W/m 2,1 C 2,7 C 4,8 km/h (1 Bft)
12.01.2021 14:04 2,7 C 1,1 C 96 % 1010,5 hPa 0,0 l/m 4,7 km/h (1 Bft) W 268 0 min 0,0 UV-I 59 W/m 2,1 C 2,7 C 11,3 km/h (2 Bft)
12.01.2021 14:06 2,7 C 1,1 C 96 % 1010,4 hPa 0,0 l/m 3,2 km/h (1 Bft) W 265 0 min 0,0 UV-I 79 W/m 2,1 C 2,7 C 6,4 km/h (2 Bft)
12.01.2021 14:08 2,7 C 1,1 C 96 % 1010,5 hPa 0,0 l/m 2,4 km/h (1 Bft) W-SW 254 0 min 0,0 UV-I 72 W/m 2,1 C 2,7 C 6,4 km/h (2 Bft)
12.01.2021 14:10 2,7 C 1,1 C 96 % 1010,5 hPa 0,0 l/m 1,1 km/h (1 Bft) W-SW 254 0 min 0,1 UV-I 64 W/m 2,1 C 2,7 C 3,2 km/h (1 Bft)
12.01.2021 14:12 2,7 C 1,1 C 96 % 1010,5 hPa 0,0 l/m 2,4 km/h (1 Bft) W-SW 254 0 min 0,5 UV-I 95 W/m 2,1 C 2,7 C 4,8 km/h (1 Bft)
12.01.2021 14:14 2,7 C 1,1 C 96 % 1010,5 hPa 0,0 l/m 3,9 km/h (1 Bft) W-SW 255 0 min 0,6 UV-I 134 W/m 2,1 C 2,7 C 6,4 km/h (2 Bft)
12.01.2021 14:16 2,7 C 1,7 C 96 % 1010,5 hPa 0,0 l/m 1,9 km/h (1 Bft) W-SW 255 0 min 0,7 UV-I 133 W/m 2,1 C 2,7 C 6,4 km/h (2 Bft)
12.01.2021 14:18 2,8 C 1,7 C 96 % 1010,5 hPa 0,0 l/m 2,8 km/h (1 Bft) W-NW 301 0 min 0,6 UV-I 122 W/m 2,2 C 2,8 C 8,0 km/h (2 Bft)
12.01.2021 14:20 2,8 C 1,7 C 96 % 1010,5 hPa 0,0 l/m 3,6 km/h (1 Bft) W-NW 294 0 min 0,6 UV-I 132 W/m 2,2 C 2,8 C 6,4 km/h (2 Bft)
12.01.2021 14:22 2,9 C 1,7 C 96 % 1010,6 hPa 0,0 l/m 3,5 km/h (1 Bft) W 267 0 min 0,6 UV-I 122 W/m 2,3 C 2,9 C 12,9 km/h (3 Bft)
12.01.2021 14:24 2,8 C 1,7 C 96 % 1010,5 hPa 0,0 l/m 5,6 km/h (1 Bft) W-SW 255 0 min 0,5 UV-I 89 W/m 2,2 C 2,8 C 11,3 km/h (2 Bft)
12.01.2021 14:26 2,9 C 1,7 C 96 % 1010,5 hPa 0,0 l/m 6,0 km/h (2 Bft) W-SW 237 0 min 0,3 UV-I 78 W/m 2,3 C 2,9 C 11,3 km/h (2 Bft)
12.01.2021 14:28 2,9 C 1,7 C 96 % 1010,5 hPa 0,0 l/m 5,5 km/h (1 Bft) W-SW 242 0 min 0,0 UV-I 83 W/m 2,3 C 2,9 C 9,7 km/h (2 Bft)
12.01.2021 14:30 2,9 C 1,7 C 96 % 1010,7 hPa 0,0 l/m 6,6 km/h (2 Bft) W 261 0 min 0,0 UV-I 79 W/m 2,3 C 2,7 C 12,9 km/h (3 Bft)
12.01.2021 14:32 2,9 C 1,7 C 96 % 1010,6 hPa 0,0 l/m 8,0 km/h (2 Bft) W 268 0 min 0,0 UV-I 62 W/m 2,3 C 1,4 C 12,9 km/h (3 Bft)
12.01.2021 14:34 2,9 C 1,7 C 96 % 1010,7 hPa 0,0 l/m 9,5 km/h (2 Bft) W-SW 254 0 min 0,0 UV-I 55 W/m 2,3 C 0,1 C 17,7 km/h (3 Bft)
12.01.2021 14:36 2,9 C 1,7 C 96 % 1010,6 hPa 0,0 l/m 8,6 km/h (2 Bft) SW 236 0 min 0,0 UV-I 44 W/m 2,3 C 0,9 C 14,5 km/h (3 Bft)
12.01.2021 14:38 2,8 C 1,7 C 96 % 1010,7 hPa 0,0 l/m 6,8 km/h (2 Bft) W-SW 254 0 min 0,0 UV-I 50 W/m 2,2 C 2,4 C 12,9 km/h (3 Bft)
12.01.2021 14:40 2,8 C 1,1 C 96 % 1010,8 hPa 0,0 l/m 9,4 km/h (2 Bft) W 260 0 min 0,0 UV-I 57 W/m 2,2 C 0,1 C 14,5 km/h (3 Bft)
12.01.2021 14:42 2,8 C 1,7 C 96 % 1010,8 hPa 0,0 l/m 9,9 km/h (2 Bft) W 260 0 min 0,0 UV-I 54 W/m 2,2 C -0,3 C 14,5 km/h (3 Bft)
12.01.2021 14:44 2,8 C 1,7 C 96 % 1010,8 hPa 0,0 l/m 12,0 km/h (2 Bft) W-SW 248 0 min 0,0 UV-I 63 W/m 2,2 C -1,8 C 17,7 km/h (3 Bft)
12.01.2021 14:46 2,8 C 1,7 C 96 % 1010,9 hPa 0,0 l/m 6,3 km/h (2 Bft) W 267 0 min 0,0 UV-I 61 W/m 2,2 C 2,8 C 12,9 km/h (3 Bft)
12.01.2021 14:48 2,8 C 1,1 C 96 % 1011,1 hPa 0,0 l/m 7,5 km/h (2 Bft) W-NW 302 0 min 0,0 UV-I 70 W/m 2,2 C 1,8 C 22,5 km/h (4 Bft)
12.01.2021 14:50 2,8 C 1,1 C 96 % 1011,1 hPa 0,0 l/m 5,5 km/h (1 Bft) NW 317 0 min 0,0 UV-I 80 W/m 2,2 C 2,8 C 16,1 km/h (3 Bft)
12.01.2021 14:52 2,7 C 1,1 C 95 % 1011,2 hPa 0,0 l/m 8,1 km/h (2 Bft) NW 309 0 min 0,0 UV-I 60 W/m 2,0 C 1,1 C 14,5 km/h (3 Bft)
12.01.2021 14:54 2,7 C 1,1 C 95 % 1011,3 hPa 0,0 l/m 9,7 km/h (2 Bft) W 269 0 min 0,0 UV-I 58 W/m 2,0 C -0,2 C 19,3 km/h (3 Bft)
12.01.2021 14:56 2,6 C 1,1 C 95 % 1011,3 hPa 0,0 l/m 5,4 km/h (1 Bft) W-SW 238 0 min 0,0 UV-I 70 W/m 1,9 C 2,6 C 11,3 km/h (2 Bft)
12.01.2021 14:58 2,5 C 1,1 C 95 % 1011,4 hPa 0,0 l/m 2,7 km/h (1 Bft) SW 228 0 min 0,0 UV-I 66 W/m 1,8 C 2,5 C 8,0 km/h (2 Bft)
12.01.2021 15:00 2,5 C 1,1 C 95 % 1011,3 hPa 0,0 l/m 4,6 km/h (1 Bft) NW 312 0 min 0,0 UV-I 63 W/m 1,8 C 2,5 C 12,9 km/h (3 Bft)
12.01.2021 15:02 2,5 C 1,1 C 96 % 1011,4 hPa 0,0 l/m 6,9 km/h (2 Bft) W 277 0 min 0,0 UV-I 63 W/m 1,9 C 2,0 C 14,5 km/h (3 Bft)
12.01.2021 15:04 2,5 C 1,1 C 95 % 1011,4 hPa 0,0 l/m 7,9 km/h (2 Bft) W-SW 240 0 min 0,0 UV-I 60 W/m 1,8 C 1,1 C 16,1 km/h (3 Bft)
12.01.2021 15:06 2,4 C 1,1 C 95 % 1011,4 hPa 0,0 l/m 8,4 km/h (2 Bft) W 259 0 min 0,0 UV-I 57 W/m 1,7 C 0,5 C 16,1 km/h (3 Bft)
12.01.2021 15:08 2,4 C 1,1 C 95 % 1011,4 hPa 0,0 l/m 8,2 km/h (2 Bft) W-SW 254 0 min 0,0 UV-I 65 W/m 1,7 C 0,7 C 17,7 km/h (3 Bft)
12.01.2021 15:10 2,4 C 1,1 C 95 % 1011,5 hPa 0,0 l/m 5,1 km/h (1 Bft) SW 231 0 min 0,0 UV-I 73 W/m 1,7 C 2,4 C 16,1 km/h (3 Bft)
12.01.2021 15:12 2,4 C 1,1 C 95 % 1011,6 hPa 0,0 l/m 8,4 km/h (2 Bft) W-NW 285 0 min 0,0 UV-I 66 W/m 1,7 C 0,5 C 19,3 km/h (3 Bft)
12.01.2021 15:14 2,3 C 1,1 C 95 % 1011,6 hPa 0,0 l/m 7,3 km/h (2 Bft) W-SW 252 0 min 0,0 UV-I 53 W/m 1,6 C 1,4 C 14,5 km/h (3 Bft)
12.01.2021 15:16 2,3 C 1,1 C 95 % 1011,6 hPa 0,0 l/m 4,2 km/h (1 Bft) W 273 0 min 0,0 UV-I 60 W/m 1,6 C 2,3 C 9,7 km/h (2 Bft)
12.01.2021 15:18 2,3 C 1,1 C 95 % 1011,7 hPa 0,0 l/m 5,8 km/h (2 Bft) W 277 0 min 0,0 UV-I 67 W/m 1,6 C 2,3 C 11,3 km/h (2 Bft)
12.01.2021 15:20 2,3 C 1,1 C 95 % 1011,6 hPa 0,0 l/m 5,1 km/h (1 Bft) W-SW 250 0 min 0,0 UV-I 75 W/m 1,6 C 2,3 C 11,3 km/h (2 Bft)
12.01.2021 15:22 2,3 C 1,1 C 95 % 1011,8 hPa 0,0 l/m 5,2 km/h (1 Bft) W-SW 256 0 min 0,0 UV-I 72 W/m 1,6 C 2,3 C 12,9 km/h (3 Bft)
12.01.2021 15:24 2,3 C 1,1 C 95 % 1011,7 hPa 0,0 l/m 4,8 km/h (1 Bft) W-SW 249 0 min 0,0 UV-I 52 W/m 1,6 C 2,3 C 9,7 km/h (2 Bft)
12.01.2021 15:26 2,3 C 1,1 C 95 % 1011,8 hPa 0,0 l/m 5,0 km/h (1 Bft) W-SW 240 0 min 0,0 UV-I 47 W/m 1,6 C 2,3 C 8,0 km/h (2 Bft)
12.01.2021 15:28 2,2 C 1,1 C 95 % 1011,8 hPa 0,0 l/m 4,9 km/h (1 Bft) W-SW 241 0 min 0,0 UV-I 56 W/m 1,5 C 2,2 C 9,7 km/h (2 Bft)
12.01.2021 15:30 2,2 C 1,1 C 95 % 1011,8 hPa 0,0 l/m 4,4 km/h (1 Bft) W-SW 244 0 min 0,0 UV-I 83 W/m 1,5 C 2,2 C 11,3 km/h (2 Bft)
12.01.2021 15:32 2,2 C 1,1 C 95 % 1011,7 hPa 0,0 l/m 7,3 km/h (2 Bft) W-SW 252 0 min 0,0 UV-I 80 W/m 1,5 C 1,3 C 14,5 km/h (3 Bft)
12.01.2021 15:34 2,3 C 1,1 C 95 % 1011,9 hPa 0,0 l/m 4,0 km/h (1 Bft) W 281 0 min 0,0 UV-I 77 W/m 1,6 C 2,3 C 11,3 km/h (2 Bft)
12.01.2021 15:36 2,3 C 1,1 C 95 % 1011,9 hPa 0,0 l/m 3,8 km/h (1 Bft) W-NW 296 0 min 0,0 UV-I 70 W/m 1,6 C 2,3 C 12,9 km/h (3 Bft)
12.01.2021 15:38 2,2 C 1,1 C 95 % 1011,9 hPa 0,0 l/m 3,1 km/h (1 Bft) W 261 0 min 0,0 UV-I 67 W/m 1,5 C 2,2 C 12,9 km/h (3 Bft)
12.01.2021 15:40 2,3 C 1,1 C 95 % 1011,8 hPa 0,0 l/m 5,5 km/h (1 Bft) W-SW 241 0 min 0,0 UV-I 48 W/m 1,6 C 2,3 C 9,7 km/h (2 Bft)
12.01.2021 15:42 2,2 C 1,1 C 95 % 1011,9 hPa 0,0 l/m 6,9 km/h (2 Bft) W 277 0 min 0,0 UV-I 46 W/m 1,5 C 1,7 C 14,5 km/h (3 Bft)
12.01.2021 15:44 2,3 C 1,1 C 95 % 1012,0 hPa 0,0 l/m 7,3 km/h (2 Bft) W-SW 248 0 min 0,0 UV-I 82 W/m 1,6 C 1,4 C 14,5 km/h (3 Bft)
12.01.2021 15:46 2,3 C 1,1 C 95 % 1011,9 hPa 0,0 l/m 10,4 km/h (2 Bft) W 261 0 min 0,0 UV-I 79 W/m 1,6 C -1,2 C 16,1 km/h (3 Bft)
12.01.2021 15:48 2,3 C 1,1 C 94 % 1012,0 hPa 0,0 l/m 8,8 km/h (2 Bft) W-NW 294 0 min 0,0 UV-I 56 W/m 1,4 C 0,1 C 14,5 km/h (3 Bft)
12.01.2021 15:50 2,3 C 1,1 C 94 % 1012,1 hPa 0,0 l/m 9,1 km/h (2 Bft) W 270 0 min 0,0 UV-I 55 W/m 1,4 C -0,2 C 16,1 km/h (3 Bft)
12.01.2021 15:52 2,3 C 1,1 C 94 % 1012,1 hPa 0,0 l/m 11,0 km/h (2 Bft) W 266 0 min 0,0 UV-I 46 W/m 1,4 C -1,7 C 16,1 km/h (3 Bft)
12.01.2021 15:54 2,3 C 1,1 C 94 % 1012,2 hPa 0,0 l/m 11,2 km/h (2 Bft) W 260 0 min 0,0 UV-I 41 W/m 1,4 C -1,8 C 16,1 km/h (3 Bft)
12.01.2021 15:56 2,3 C 1,1 C 94 % 1012,2 hPa 0,2 l/m 12,8 km/h (3 Bft) W-SW 244 0 min 0,0 UV-I 36 W/m 1,4 C -2,9 C 20,9 km/h (4 Bft)
12.01.2021 15:58 2,2 C 1,1 C 94 % 1012,3 hPa 0,0 l/m 11,6 km/h (2 Bft) W-NW 288 0 min 0,0 UV-I 31 W/m 1,3 C -2,2 C 20,9 km/h (4 Bft)
12.01.2021 16:00 2,1 C 1,1 C 94 % 1012,3 hPa 0,0 l/m 8,7 km/h (2 Bft) W-SW 240 0 min 0,0 UV-I 29 W/m 1,2 C -0,1 C 16,1 km/h (3 Bft)
12.01.2021 16:02 2,1 C 1,1 C 94 % 1012,4 hPa 0,0 l/m 5,8 km/h (2 Bft) W-SW 258 0 min 0,0 UV-I 24 W/m 1,2 C 2,1 C 11,3 km/h (2 Bft)
12.01.2021 16:04 1,9 C 1,1 C 94 % 1012,6 hPa 0,0 l/m 3,2 km/h (1 Bft) W-SW 242 0 min 0,0 UV-I 21 W/m 1,0 C 1,9 C 8,0 km/h (2 Bft)
12.01.2021 16:06 1,8 C 0,6 C 94 % 1012,6 hPa 0,0 l/m 1,8 km/h (1 Bft) W-SW 248 0 min 0,0 UV-I 21 W/m 0,9 C 1,8 C 4,8 km/h (1 Bft)
12.01.2021 16:08 1,8 C 0,6 C 94 % 1012,6 hPa 0,0 l/m 2,7 km/h (1 Bft) W 267 0 min 0,0 UV-I 24 W/m 0,9 C 1,8 C 6,4 km/h (2 Bft)
12.01.2021 16:10 1,8 C 0,6 C 94 % 1012,6 hPa 0,0 l/m 3,6 km/h (1 Bft) NW 316 0 min 0,0 UV-I 25 W/m 0,9 C 1,8 C 8,0 km/h (2 Bft)
12.01.2021 16:12 1,8 C 0,6 C 94 % 1012,7 hPa 0,0 l/m 5,5 km/h (1 Bft) W-NW 284 0 min 0,0 UV-I 22 W/m 0,9 C 1,8 C 12,9 km/h (3 Bft)
12.01.2021 16:14 1,8 C 0,6 C 94 % 1012,8 hPa 0,0 l/m 4,2 km/h (1 Bft) W 267 0 min 0,0 UV-I 14 W/m 0,9 C 1,8 C 9,7 km/h (2 Bft)
12.01.2021 16:16 1,7 C 0,6 C 94 % 1012,7 hPa 0,0 l/m 6,3 km/h (2 Bft) NW 310 0 min 0,0 UV-I 12 W/m 0,8 C 1,7 C 14,5 km/h (3 Bft)
12.01.2021 16:18 1,7 C 0,6 C 94 % 1012,7 hPa 0,0 l/m 6,5 km/h (2 Bft) W-NW 284 0 min 0,0 UV-I 12 W/m 0,8 C 1,6 C 12,9 km/h (3 Bft)
12.01.2021 16:20 1,7 C 0,6 C 94 % 1012,8 hPa 0,0 l/m 4,2 km/h (1 Bft) NW 324 0 min 0,0 UV-I 18 W/m 0,8 C 1,7 C 20,9 km/h (4 Bft)
12.01.2021 16:22 1,7 C 0,6 C 94 % 1012,7 hPa 0,0 l/m 12,4 km/h (3 Bft) W-SW 257 0 min 0,0 UV-I 25 W/m 0,8 C -3,3 C 20,9 km/h (4 Bft)
12.01.2021 16:24 1,7 C 0,6 C 94 % 1012,8 hPa 0,0 l/m 8,6 km/h (2 Bft) W 279 0 min 0,0 UV-I 25 W/m 0,8 C -0,4 C 14,5 km/h (3 Bft)
12.01.2021 16:26 1,7 C 0,6 C 94 % 1012,8 hPa 0,0 l/m 5,1 km/h (1 Bft) W-NW 290 0 min 0,0 UV-I 23 W/m 0,8 C 1,7 C 14,5 km/h (3 Bft)
12.01.2021 16:28 1,7 C 0,6 C 94 % 1012,8 hPa 0,0 l/m 6,4 km/h (2 Bft) N-NW 340 0 min 0,0 UV-I 19 W/m 0,8 C 1,7 C 14,5 km/h (3 Bft)
12.01.2021 16:30 1,7 C 0,6 C 94 % 1012,8 hPa 0,0 l/m 6,3 km/h (2 Bft) W 278 0 min 0,0 UV-I 14 W/m 0,8 C 1,7 C 16,1 km/h (3 Bft)
12.01.2021 16:32 1,7 C 0,6 C 94 % 1012,8 hPa 0,0 l/m 7,8 km/h (2 Bft) W-NW 287 0 min 0,0 UV-I 12 W/m 0,8 C 0,3 C 19,3 km/h (3 Bft)
12.01.2021 16:34 1,7 C 0,6 C 94 % 1013,0 hPa 0,0 l/m 7,9 km/h (2 Bft) W-NW 283 0 min 0,0 UV-I 10 W/m 0,8 C 0,2 C 16,1 km/h (3 Bft)
12.01.2021 16:36 1,7 C 0,6 C 94 % 1013,0 hPa 0,0 l/m 12,0 km/h (2 Bft) W 272 0 min 0,0 UV-I 10 W/m 0,8 C -3,0 C 19,3 km/h (3 Bft)
12.01.2021 16:38 1,7 C 0,6 C 94 % 1013,0 hPa 0,0 l/m 4,7 km/h (1 Bft) W-SW 237 0 min 0,0 UV-I 10 W/m 0,8 C 1,7 C 9,7 km/h (2 Bft)
12.01.2021 16:40 1,7 C 0,6 C 94 % 1013,1 hPa 0,0 l/m 6,3 km/h (2 Bft) W-NW 286 0 min 0,0 UV-I 9 W/m 0,8 C 1,7 C 14,5 km/h (3 Bft)
12.01.2021 16:42 1,6 C 0,6 C 94 % 1013,1 hPa 0,0 l/m 9,5 km/h (2 Bft) N 355 0 min 0,0 UV-I 10 W/m 0,7 C -1,3 C 17,7 km/h (3 Bft)
12.01.2021 16:44 1,6 C 0,6 C 94 % 1013,1 hPa 0,0 l/m 11,3 km/h (2 Bft) N-NW 340 0 min 0,0 UV-I 7 W/m 0,7 C -2,7 C 24,1 km/h (4 Bft)
12.01.2021 16:46 1,6 C 0,6 C 94 % 1013,2 hPa 0,0 l/m 5,6 km/h (1 Bft) W-NW 290 0 min 0,0 UV-I 5 W/m 0,7 C 1,6 C 16,1 km/h (3 Bft)
12.01.2021 16:48 1,6 C 0,6 C 94 % 1013,2 hPa 0,0 l/m 4,4 km/h (1 Bft) W-NW 293 0 min 0,0 UV-I 4 W/m 0,7 C 1,6 C 9,7 km/h (2 Bft)
12.01.2021 16:50 1,6 C 0,6 C 94 % 1013,2 hPa 0,0 l/m 4,9 km/h (1 Bft) O-NO 69 0 min 0,0 UV-I 0 W/m 0,7 C 1,6 C 11,3 km/h (2 Bft)
12.01.2021 16:52 1,6 C 0,6 C 94 % 1013,4 hPa 0,0 l/m 5,2 km/h (1 Bft) W-NW 298 0 min 0,0 UV-I 0 W/m 0,7 C 1,6 C 9,7 km/h (2 Bft)
12.01.2021 16:54 1,6 C 0,6 C 94 % 1013,5 hPa 0,0 l/m 5,9 km/h (2 Bft) W 281 0 min 0,0 UV-I 0 W/m 0,7 C 1,6 C 16,1 km/h (3 Bft)
12.01.2021 16:56 1,6 C 0,6 C 94 % 1013,6 hPa 0,0 l/m 5,7 km/h (1 Bft) N-NW 338 0 min 0,0 UV-I 0 W/m 0,7 C 1,6 C 14,5 km/h (3 Bft)
12.01.2021 16:58 1,6 C 0,6 C 93 % 1013,5 hPa 0,0 l/m 17,3 km/h (3 Bft) NW 313 0 min 0,0 UV-I 0 W/m 0,6 C -6,3 C 32,2 km/h (5 Bft)
12.01.2021 17:00 1,5 C 0,0 C 93 % 1013,6 hPa 0,0 l/m 9,5 km/h (2 Bft) W-NW 298 0 min 0,0 UV-I 0 W/m 0,5 C -1,4 C 19,3 km/h (3 Bft)
12.01.2021 17:02 1,4 C 0,0 C 93 % 1013,6 hPa 0,0 l/m 7,5 km/h (2 Bft) W 267 0 min 0,0 UV-I 0 W/m 0,4 C 0,3 C 14,5 km/h (3 Bft)
12.01.2021 17:04 1,4 C 0,0 C 93 % 1013,6 hPa 0,0 l/m 9,6 km/h (2 Bft) W-NW 295 0 min 0,0 UV-I 0 W/m 0,4 C -1,6 C 27,4 km/h (4 Bft)
12.01.2021 17:06 1,4 C 0,6 C 93 % 1013,7 hPa 0,0 l/m 13,6 km/h (3 Bft) NW 313 0 min 0,0 UV-I 0 W/m 0,4 C -4,4 C 24,1 km/h (4 Bft)
12.01.2021 17:08 1,4 C 0,0 C 93 % 1013,8 hPa 0,0 l/m 10,9 km/h (2 Bft) W-NW 297 0 min 0,0 UV-I 0 W/m 0,4 C -2,6 C 19,3 km/h (3 Bft)
12.01.2021 17:10 1,3 C 0,0 C 93 % 1013,8 hPa 0,0 l/m 11,4 km/h (2 Bft) N-NW 336 0 min 0,0 UV-I 0 W/m 0,3 C -3,1 C 17,7 km/h (3 Bft)
12.01.2021 17:12 1,3 C 0,0 C 93 % 1013,9 hPa 0,0 l/m 9,0 km/h (2 Bft) NW 312 0 min 0,0 UV-I 0 W/m 0,3 C -1,2 C 24,1 km/h (4 Bft)
12.01.2021 17:14 1,3 C 0,0 C 93 % 1014,0 hPa 0,0 l/m 8,3 km/h (2 Bft) W 278 0 min 0,0 UV-I 0 W/m 0,3 C -0,6 C 16,1 km/h (3 Bft)
12.01.2021 17:16 1,3 C 0,0 C 93 % 1013,9 hPa 0,0 l/m 9,1 km/h (2 Bft) W-NW 292 0 min 0,0 UV-I 0 W/m 0,3 C -1,3 C 19,3 km/h (3 Bft)
12.01.2021 17:18 1,3 C 0,0 C 93 % 1014,0 hPa 0,0 l/m 6,4 km/h (2 Bft) N-NW 333 0 min 0,0 UV-I 0 W/m 0,3 C 1,3 C 14,5 km/h (3 Bft)
12.01.2021 17:20 1,2 C 0,0 C 93 % 1014,0 hPa 0,0 l/m 6,5 km/h (2 Bft) W-NW 287 0 min 0,0 UV-I 0 W/m 0,2 C 1,1 C 19,3 km/h (3 Bft)
12.01.2021 17:22 1,3 C 0,0 C 92 % 1014,0 hPa 0,0 l/m 14,0 km/h (3 Bft) W-NW 286 0 min 0,0 UV-I 0 W/m 0,1 C -4,8 C 30,6 km/h (5 Bft)
12.01.2021 17:24 1,2 C 0,0 C 92 % 1014,1 hPa 0,0 l/m 5,8 km/h (2 Bft) S-SW 209 0 min 0,0 UV-I 0 W/m 0,0 C 1,2 C 17,7 km/h (3 Bft)
12.01.2021 17:26 1,2 C 0,0 C 93 % 1014,0 hPa 0,0 l/m 10,9 km/h (2 Bft) N-NW 336 0 min 0,0 UV-I 0 W/m 0,2 C -2,8 C 24,1 km/h (4 Bft)
12.01.2021 17:28 1,2 C 0,0 C 92 % 1014,0 hPa 0,0 l/m 8,1 km/h (2 Bft) W-NW 285 0 min 0,0 UV-I 0 W/m 0,0 C -0,5 C 16,1 km/h (3 Bft)
12.01.2021 17:30 1,1 C 0,0 C 92 % 1014,0 hPa 0,0 l/m 8,3 km/h (2 Bft) NW 306 0 min 0,0 UV-I 0 W/m -0,1 C -0,8 C 17,7 km/h (3 Bft)
12.01.2021 17:32 1,1 C 0,0 C 92 % 1014,1 hPa 0,0 l/m 9,3 km/h (2 Bft) N-NW 328 0 min 0,0 UV-I 0 W/m -0,1 C -1,7 C 14,5 km/h (3 Bft)
12.01.2021 17:34 1,1 C 0,0 C 92 % 1014,1 hPa 0,0 l/m 7,6 km/h (2 Bft) W-NW 301 0 min 0,0 UV-I 0 W/m -0,1 C -0,1 C 14,5 km/h (3 Bft)
12.01.2021 17:36 1,1 C 0,0 C 92 % 1014,2 hPa 0,0 l/m 7,3 km/h (2 Bft) W 261 0 min 0,0 UV-I 0 W/m -0,1 C 0,2 C 14,5 km/h (3 Bft)
12.01.2021 17:38 1,1 C 0,0 C 92 % 1014,2 hPa 0,0 l/m 7,2 km/h (2 Bft) SW 217 0 min 0,0 UV-I 0 W/m -0,1 C 0,3 C 14,5 km/h (3 Bft)
12.01.2021 17:40 1,1 C 0,0 C 92 % 1014,2 hPa 0,0 l/m 8,6 km/h (2 Bft) W-NW 289 0 min 0,0 UV-I 0 W/m -0,1 C -1,0 C 14,5 km/h (3 Bft)
12.01.2021 17:42 1,0 C 0,0 C 92 % 1014,2 hPa 0,0 l/m 6,5 km/h (2 Bft) SW 221 0 min 0,0 UV-I 0 W/m -0,2 C 0,9 C 14,5 km/h (3 Bft)
12.01.2021 17:44 0,9 C 0,0 C 92 % 1014,2 hPa 0,0 l/m 4,2 km/h (1 Bft) W 264 0 min 0,0 UV-I 0 W/m -0,2 C 0,9 C 17,7 km/h (3 Bft)
12.01.2021 17:46 0,9 C 0,0 C 92 % 1014,3 hPa 0,0 l/m 8,7 km/h (2 Bft) NW 325 0 min 0,0 UV-I 0 W/m -0,2 C -1,3 C 16,1 km/h (3 Bft)
12.01.2021 17:48 0,9 C 0,0 C 92 % 1014,5 hPa 0,0 l/m 10,4 km/h (2 Bft) W 271 0 min 0,0 UV-I 0 W/m -0,2 C -2,8 C 16,1 km/h (3 Bft)
12.01.2021 17:50 0,9 C 0,0 C 92 % 1014,5 hPa 0,0 l/m 9,7 km/h (2 Bft) W 262 0 min 0,0 UV-I 0 W/m -0,2 C -2,2 C 17,7 km/h (3 Bft)
12.01.2021 17:52 0,9 C 0,0 C 92 % 1014,4 hPa 0,0 l/m 5,7 km/h (1 Bft) S-SW 196 0 min 0,0 UV-I 0 W/m -0,2 C 0,9 C 16,1 km/h (3 Bft)
12.01.2021 17:54 0,9 C 0,0 C 92 % 1014,5 hPa 0,0 l/m 6,6 km/h (2 Bft) W-NW 296 0 min 0,0 UV-I 0 W/m -0,2 C 0,7 C 19,3 km/h (3 Bft)
12.01.2021 17:56 0,9 C 0,0 C 91 % 1014,6 hPa 0,0 l/m 8,4 km/h (2 Bft) W-NW 291 0 min 0,0 UV-I 0 W/m -0,4 C -1,1 C 16,1 km/h (3 Bft)
12.01.2021 17:58 0,8 C 0,0 C 91 % 1014,6 hPa 0,0 l/m 6,2 km/h (2 Bft) W 269 0 min 0,0 UV-I 0 W/m -0,5 C 0,8 C 14,5 km/h (3 Bft)
12.01.2021 18:00 0,8 C 0,0 C 91 % 1014,7 hPa 0,0 l/m 7,8 km/h (2 Bft) NW 324 0 min 0,0 UV-I 0 W/m -0,5 C -0,6 C 27,4 km/h (4 Bft)
12.01.2021 18:02 0,8 C 0,0 C 91 % 1014,7 hPa 0,0 l/m 6,7 km/h (2 Bft) W-NW 299 0 min 0,0 UV-I 0 W/m -0,5 C 0,5 C 16,1 km/h (3 Bft)
12.01.2021 18:04 0,8 C 0,0 C 91 % 1014,6 hPa 0,0 l/m 8,8 km/h (2 Bft) W 269 0 min 0,0 UV-I 0 W/m -0,5 C -1,5 C 19,3 km/h (3 Bft)
12.01.2021 18:06 0,8 C 0,0 C 91 % 1014,8 hPa 0,0 l/m 6,3 km/h (2 Bft) W-NW 293 0 min 0,0 UV-I 0 W/m -0,5 C 0,8 C 12,9 km/h (3 Bft)
12.01.2021 18:08 0,8 C 0,0 C 91 % 1014,8 hPa 0,0 l/m 7,0 km/h (2 Bft) SW 217 0 min 0,0 UV-I 0 W/m -0,5 C 0,2 C 19,3 km/h (3 Bft)
12.01.2021 18:10 0,8 C 0,0 C 91 % 1014,9 hPa 0,0 l/m 3,5 km/h (1 Bft) N-NW 330 0 min 0,0 UV-I 0 W/m -0,5 C 0,8 C 12,9 km/h (3 Bft)
12.01.2021 18:12 0,7 C 0,0 C 91 % 1014,9 hPa 0,0 l/m 7,2 km/h (2 Bft) N-NW 348 0 min 0,0 UV-I 0 W/m -0,6 C -0,1 C 17,7 km/h (3 Bft)
12.01.2021 18:14 0,7 C 0,0 C 91 % 1014,9 hPa 0,0 l/m 11,5 km/h (2 Bft) NW 314 0 min 0,0 UV-I 0 W/m -0,6 C -3,8 C 19,3 km/h (3 Bft)
12.01.2021 18:16 0,7 C 0,0 C 91 % 1014,9 hPa 0,0 l/m 4,9 km/h (1 Bft) W-NW 287 0 min 0,0 UV-I 0 W/m -0,6 C 0,7 C 12,9 km/h (3 Bft)
12.01.2021 18:18 0,7 C -0,6 C 91 % 1014,9 hPa 0,0 l/m 4,8 km/h (1 Bft) NW 306 0 min 0,0 UV-I 0 W/m -0,6 C 0,7 C 11,3 km/h (2 Bft)
12.01.2021 18:20 0,7 C -0,6 C 91 % 1014,9 hPa 0,0 l/m 4,6 km/h (1 Bft) S-SW 209 0 min 0,0 UV-I 0 W/m -0,6 C 0,7 C 12,9 km/h (3 Bft)
12.01.2021 18:22 0,7 C -0,6 C 91 % 1014,9 hPa 0,0 l/m 6,2 km/h (2 Bft) SW 223 0 min 0,0 UV-I 0 W/m -0,6 C 0,7 C 9,7 km/h (2 Bft)
12.01.2021 18:24 0,7 C -0,6 C 91 % 1014,9 hPa 0,0 l/m 9,9 km/h (2 Bft) W 271 0 min 0,0 UV-I 0 W/m -0,6 C -2,6 C 17,7 km/h (3 Bft)
12.01.2021 18:26 0,6 C -0,6 C 91 % 1014,9 hPa 0,0 l/m 8,4 km/h (2 Bft) W 277 0 min 0,0 UV-I 0 W/m -0,7 C -1,4 C 16,1 km/h (3 Bft)
12.01.2021 18:28 0,6 C -0,6 C 91 % 1015,0 hPa 0,0 l/m 3,4 km/h (1 Bft) SW 233 0 min 0,0 UV-I 0 W/m -0,7 C 0,6 C 8,0 km/h (2 Bft)
12.01.2021 18:30 0,6 C -0,6 C 91 % 1015,0 hPa 0,0 l/m 2,1 km/h (1 Bft) SW 229 0 min 0,0 UV-I 0 W/m -0,7 C 0,6 C 6,4 km/h (2 Bft)
12.01.2021 18:32 0,6 C -0,6 C 91 % 1014,9 hPa 0,0 l/m 5,8 km/h (2 Bft) SW 236 0 min 0,0 UV-I 0 W/m -0,7 C 0,6 C 14,5 km/h (3 Bft)
12.01.2021 18:34 0,5 C -0,6 C 90 % 1015,0 hPa 0,0 l/m 5,3 km/h (1 Bft) SW 232 0 min 0,0 UV-I 0 W/m -0,9 C 0,5 C 12,9 km/h (3 Bft)
12.01.2021 18:36 0,5 C -0,6 C 90 % 1015,0 hPa 0,0 l/m 5,8 km/h (2 Bft) W-NW 287 0 min 0,0 UV-I 0 W/m -0,9 C 0,5 C 14,5 km/h (3 Bft)
12.01.2021 18:38 0,5 C -0,6 C 90 % 1014,9 hPa 0,0 l/m 5,4 km/h (1 Bft) W 274 0 min 0,0 UV-I 0 W/m -0,9 C 0,5 C 11,3 km/h (2 Bft)
12.01.2021 18:40 0,4 C -0,6 C 90 % 1015,0 hPa 0,0 l/m 3,7 km/h (1 Bft) W-SW 239 0 min 0,0 UV-I 0 W/m -1,0 C 0,4 C 8,0 km/h (2 Bft)
12.01.2021 18:42 0,4 C -0,6 C 90 % 1014,9 hPa 0,0 l/m 4,5 km/h (1 Bft) W 259 0 min 0,0 UV-I 0 W/m -1,0 C 0,4 C 11,3 km/h (2 Bft)
12.01.2021 18:44 0,4 C -0,6 C 90 % 1015,0 hPa 0,0 l/m 3,2 km/h (1 Bft) W 271 0 min 0,0 UV-I 0 W/m -1,0 C 0,4 C 8,0 km/h (2 Bft)
12.01.2021 18:46 0,4 C -0,6 C 90 % 1015,1 hPa 0,0 l/m 4,5 km/h (1 Bft) NW 310 0 min 0,0 UV-I 0 W/m -1,0 C 0,4 C 12,9 km/h (3 Bft)
12.01.2021 18:48 0,3 C -0,6 C 90 % 1015,1 hPa 0,0 l/m 3,8 km/h (1 Bft) SW 234 0 min 0,0 UV-I 0 W/m -1,1 C 0,3 C 6,4 km/h (2 Bft)
12.01.2021 18:50 0,3 C -0,6 C 90 % 1015,0 hPa 0,0 l/m 2,8 km/h (1 Bft) W-SW 251 0 min 0,0 UV-I 0 W/m -1,1 C 0,3 C 11,3 km/h (2 Bft)
12.01.2021 18:52 0,3 C -1,1 C 90 % 1015,0 hPa 0,0 l/m 6,7 km/h (2 Bft) NW 312 0 min 0,0 UV-I 0 W/m -1,1 C 0,0 C 14,5 km/h (3 Bft)
12.01.2021 18:54 0,3 C -1,1 C 90 % 1015,2 hPa 0,0 l/m 5,1 km/h (1 Bft) W-SW 242 0 min 0,0 UV-I 0 W/m -1,1 C 0,3 C 14,5 km/h (3 Bft)
12.01.2021 18:56 0,3 C -1,1 C 90 % 1015,2 hPa 0,0 l/m 3,1 km/h (1 Bft) W-SW 247 0 min 0,0 UV-I 0 W/m -1,1 C 0,3 C 4,8 km/h (1 Bft)
12.01.2021 18:58 0,2 C -1,1 C 90 % 1015,3 hPa 0,0 l/m 4,0 km/h (1 Bft) W-SW 257 0 min 0,0 UV-I 0 W/m -1,2 C 0,2 C 11,3 km/h (2 Bft)
12.01.2021 19:00 0,2 C -1,1 C 90 % 1015,3 hPa 0,0 l/m 4,1 km/h (1 Bft) W 268 0 min 0,0 UV-I 0 W/m -1,2 C 0,2 C 9,7 km/h (2 Bft)
12.01.2021 19:02 0,2 C -1,1 C 90 % 1015,3 hPa 0,0 l/m 3,6 km/h (1 Bft) W-SW 246 0 min 0,0 UV-I 0 W/m -1,2 C 0,2 C 8,0 km/h (2 Bft)
12.01.2021 19:04 0,2 C -1,1 C 90 % 1015,3 hPa 0,0 l/m 2,6 km/h (1 Bft) S-SW 210 0 min 0,0 UV-I 0 W/m -1,2 C 0,2 C 4,8 km/h (1 Bft)
12.01.2021 19:06 0,1 C -1,1 C 90 % 1015,3 hPa 0,0 l/m 3,2 km/h (1 Bft) W-SW 251 0 min 0,0 UV-I 0 W/m -1,3 C 0,1 C 6,4 km/h (2 Bft)
12.01.2021 19:08 0,1 C -1,1 C 90 % 1015,4 hPa 0,0 l/m 3,1 km/h (1 Bft) W 261 0 min 0,0 UV-I 0 W/m -1,3 C 0,1 C 6,4 km/h (2 Bft)
12.01.2021 19:10 0,1 C -1,1 C 90 % 1015,4 hPa 0,0 l/m 4,8 km/h (1 Bft) SW 227 0 min 0,0 UV-I 0 W/m -1,3 C 0,1 C 9,7 km/h (2 Bft)
12.01.2021 19:12 0,1 C -1,1 C 90 % 1015,4 hPa 0,0 l/m 3,3 km/h (1 Bft) W-SW 255 0 min 0,0 UV-I 0 W/m -1,3 C 0,1 C 8,0 km/h (2 Bft)
12.01.2021 19:14 0,1 C -1,1 C 90 % 1015,4 hPa 0,0 l/m 4,1 km/h (1 Bft) W-NW 302 0 min 0,0 UV-I 0 W/m -1,3 C 0,1 C 11,3 km/h (2 Bft)
12.01.2021 19:16 0,1 C -1,1 C 90 % 1015,5 hPa 0,0 l/m 5,7 km/h (1 Bft) W 278 0 min 0,0 UV-I 0 W/m -1,3 C 0,1 C 16,1 km/h (3 Bft)
12.01.2021 19:18 0,1 C -1,1 C 90 % 1015,5 hPa 0,0 l/m 3,1 km/h (1 Bft) W 276 0 min 0,0 UV-I 0 W/m -1,3 C 0,1 C 6,4 km/h (2 Bft)
12.01.2021 19:20 0,0 C -1,1 C 90 % 1015,6 hPa 0,0 l/m 5,0 km/h (1 Bft) W-NW 284 0 min 0,0 UV-I 0 W/m -1,4 C 0,0 C 12,9 km/h (3 Bft)
12.01.2021 19:22 0,1 C -1,1 C 90 % 1015,7 hPa 0,0 l/m 6,2 km/h (2 Bft) W-SW 254 0 min 0,0 UV-I 0 W/m -1,3 C 0,1 C 11,3 km/h (2 Bft)
12.01.2021 19:24 0,0 C -1,1 C 90 % 1015,7 hPa 0,0 l/m 4,5 km/h (1 Bft) W-SW 248 0 min 0,0 UV-I 0 W/m -1,4 C 0,0 C 6,4 km/h (2 Bft)
12.01.2021 19:26 0,0 C -1,1 C 90 % 1015,7 hPa 0,0 l/m 6,0 km/h (2 Bft) W-SW 248 0 min 0,0 UV-I 0 W/m -1,4 C 0,0 C 11,3 km/h (2 Bft)
12.01.2021 19:28 0,0 C -1,1 C 91 % 1015,7 hPa 0,0 l/m 6,4 km/h (2 Bft) W 263 0 min 0,0 UV-I 0 W/m -1,3 C 0,0 C 11,3 km/h (2 Bft)
12.01.2021 19:30 0,0 C -1,1 C 91 % 1015,8 hPa 0,0 l/m 9,3 km/h (2 Bft) W-SW 238 0 min 0,0 UV-I 0 W/m -1,3 C -2,9 C 16,1 km/h (3 Bft)
12.01.2021 19:32 0,1 C -0,6 C 91 % 1015,7 hPa 0,0 l/m 5,7 km/h (1 Bft) W-SW 258 0 min 0,0 UV-I 0 W/m -1,2 C 0,1 C 11,3 km/h (2 Bft)
12.01.2021 19:34 0,1 C -0,6 C 91 % 1015,9 hPa 0,0 l/m 8,2 km/h (2 Bft) W 278 0 min 0,0 UV-I 0 W/m -1,2 C -1,7 C 19,3 km/h (3 Bft)
12.01.2021 19:36 0,1 C -0,6 C 91 % 1015,8 hPa 0,0 l/m 9,1 km/h (2 Bft) W-SW 252 0 min 0,0 UV-I 0 W/m -1,2 C -2,6 C 17,7 km/h (3 Bft)
12.01.2021 19:38 0,2 C -0,6 C 91 % 1015,9 hPa 0,0 l/m 8,5 km/h (2 Bft) W-NW 284 0 min 0,0 UV-I 0 W/m -1,1 C -1,9 C 16,1 km/h (3 Bft)
12.01.2021 19:40 0,2 C -0,6 C 91 % 1015,8 hPa 0,0 l/m 7,2 km/h (2 Bft) W-NW 290 0 min 0,0 UV-I 0 W/m -1,1 C -0,6 C 12,9 km/h (3 Bft)
12.01.2021 19:42 0,2 C -0,6 C 91 % 1015,9 hPa 0,0 l/m 7,2 km/h (2 Bft) W-SW 257 0 min 0,0 UV-I 0 W/m -1,1 C -0,6 C 12,9 km/h (3 Bft)
12.01.2021 19:44 0,3 C -0,6 C 91 % 1015,9 hPa 0,0 l/m 8,0 km/h (2 Bft) SW 231 0 min 0,0 UV-I 0 W/m -1,0 C -1,3 C 14,5 km/h (3 Bft)
12.01.2021 19:46 0,3 C -0,6 C 91 % 1015,9 hPa 0,0 l/m 11,9 km/h (2 Bft) W 264 0 min 0,0 UV-I 0 W/m -1,0 C -4,6 C 17,7 km/h (3 Bft)
12.01.2021 19:48 0,3 C 0,0 C 91 % 1016,0 hPa 0,0 l/m 9,6 km/h (2 Bft) W 277 0 min 0,0 UV-I 0 W/m -1,0 C -2,8 C 16,1 km/h (3 Bft)
12.01.2021 19:50 0,4 C 0,0 C 91 % 1016,0 hPa 0,0 l/m 5,3 km/h (1 Bft) W 280 0 min 0,0 UV-I 0 W/m -0,9 C 0,4 C 11,3 km/h (2 Bft)
12.01.2021 19:52 0,3 C 0,0 C 91 % 1016,0 hPa 0,0 l/m 7,4 km/h (2 Bft) W-SW 252 0 min 0,0 UV-I 0 W/m -1,0 C -0,7 C 12,9 km/h (3 Bft)
12.01.2021 19:54 0,4 C 0,0 C 91 % 1016,1 hPa 0,0 l/m 5,3 km/h (1 Bft) W 262 0 min 0,0 UV-I 0 W/m -0,9 C 0,4 C 12,9 km/h (3 Bft)
12.01.2021 19:56 0,4 C 0,0 C 90 % 1016,1 hPa 0,0 l/m 8,9 km/h (2 Bft) W-SW 239 0 min 0,0 UV-I 0 W/m -1,0 C -2,1 C 16,1 km/h (3 Bft)
12.01.2021 19:58 0,4 C 0,0 C 90 % 1016,2 hPa 0,0 l/m 7,2 km/h (2 Bft) W 269 0 min 0,0 UV-I 0 W/m -1,0 C -0,4 C 11,3 km/h (2 Bft)
12.01.2021 20:00 0,4 C -0,6 C 90 % 1016,3 hPa 0,0 l/m 10,5 km/h (2 Bft) W 274 0 min 0,0 UV-I 0 W/m -1,0 C -3,4 C 19,3 km/h (3 Bft)
12.01.2021 20:02 0,4 C -0,6 C 90 % 1016,4 hPa 0,0 l/m 10,8 km/h (2 Bft) W-SW 247 0 min 0,0 UV-I 0 W/m -1,0 C -3,6 C 16,1 km/h (3 Bft)
12.01.2021 20:04 0,4 C 0,0 C 90 % 1016,4 hPa 0,0 l/m 9,2 km/h (2 Bft) W 267 0 min 0,0 UV-I 0 W/m -1,0 C -2,3 C 14,5 km/h (3 Bft)
12.01.2021 20:06 0,5 C 0,0 C 90 % 1016,4 hPa 0,0 l/m 8,0 km/h (2 Bft) W 266 0 min 0,0 UV-I 0 W/m -0,9 C -1,1 C 12,9 km/h (3 Bft)
12.01.2021 20:08 0,5 C 0,0 C 90 % 1016,5 hPa 0,0 l/m 7,5 km/h (2 Bft) W 261 0 min 0,0 UV-I 0 W/m -0,9 C -0,6 C 14,5 km/h (3 Bft)
12.01.2021 20:10 0,5 C -0,6 C 90 % 1016,4 hPa 0,0 l/m 6,8 km/h (2 Bft) W-SW 242 0 min 0,0 UV-I 0 W/m -0,9 C 0,1 C 11,3 km/h (2 Bft)
12.01.2021 20:12 0,5 C -0,6 C 90 % 1016,4 hPa 0,0 l/m 6,9 km/h (2 Bft) W 271 0 min 0,0 UV-I 0 W/m -0,9 C -0,0 C 14,5 km/h (3 Bft)
12.01.2021 20:14 0,5 C -0,6 C 89 % 1016,4 hPa 0,0 l/m 12,6 km/h (3 Bft) W 263 0 min 0,0 UV-I 0 W/m -1,1 C -4,8 C 19,3 km/h (3 Bft)
12.01.2021 20:16 0,5 C -0,6 C 89 % 1016,5 hPa 0,0 l/m 8,1 km/h (2 Bft) W 269 0 min 0,0 UV-I 0 W/m -1,1 C -1,2 C 14,5 km/h (3 Bft)
12.01.2021 20:18 0,4 C -0,6 C 89 % 1016,4 hPa 0,0 l/m 9,8 km/h (2 Bft) W-NW 284 0 min 0,0 UV-I 0 W/m -1,2 C -2,8 C 16,1 km/h (3 Bft)
12.01.2021 20:20 0,4 C -0,6 C 89 % 1016,4 hPa 0,0 l/m 6,4 km/h (2 Bft) W-SW 255 0 min 0,0 UV-I 0 W/m -1,2 C 0,4 C 12,9 km/h (3 Bft)
12.01.2021 20:22 0,4 C -0,6 C 89 % 1016,4 hPa 0,0 l/m 10,9 km/h (2 Bft) W 267 0 min 0,0 UV-I 0 W/m -1,2 C -3,7 C 17,7 km/h (3 Bft)
12.01.2021 20:24 0,4 C -0,6 C 89 % 1016,5 hPa 0,0 l/m 12,5 km/h (3 Bft) W-SW 252 0 min 0,0 UV-I 0 W/m -1,2 C -4,9 C 20,9 km/h (4 Bft)
12.01.2021 20:26 0,4 C -0,6 C 89 % 1016,4 hPa 0,0 l/m 10,2 km/h (2 Bft) W 265 0 min 0,0 UV-I 0 W/m -1,2 C -3,2 C 16,1 km/h (3 Bft)
12.01.2021 20:28 0,4 C -0,6 C 89 % 1016,4 hPa 0,0 l/m 11,3 km/h (2 Bft) W 265 0 min 0,0 UV-I 0 W/m -1,2 C -4,0 C 19,3 km/h (3 Bft)
12.01.2021 20:30 0,4 C -0,6 C 89 % 1016,5 hPa 0,0 l/m 11,7 km/h (2 Bft) W 265 0 min 0,0 UV-I 0 W/m -1,2 C -4,3 C 14,5 km/h (3 Bft)
12.01.2021 20:32 0,4 C -1,1 C 89 % 1016,5 hPa 0,0 l/m 11,9 km/h (2 Bft) W-NW 284 0 min 0,0 UV-I 0 W/m -1,2 C -4,5 C 17,7 km/h (3 Bft)
12.01.2021 20:34 0,4 C -1,1 C 89 % 1016,5 hPa 0,0 l/m 8,5 km/h (2 Bft) W 273 0 min 0,0 UV-I 0 W/m -1,2 C -1,7 C 16,1 km/h (3 Bft)
12.01.2021 20:36 0,4 C -1,1 C 89 % 1016,5 hPa 0,0 l/m 8,8 km/h (2 Bft) W-SW 257 0 min 0,0 UV-I 0 W/m -1,2 C -2,0 C 11,3 km/h (2 Bft)
12.01.2021 20:38 0,4 C -1,1 C 89 % 1016,6 hPa 0,0 l/m 9,0 km/h (2 Bft) W-SW 255 0 min 0,0 UV-I 0 W/m -1,2 C -2,2 C 12,9 km/h (3 Bft)
12.01.2021 20:40 0,4 C -0,6 C 89 % 1016,6 hPa 0,0 l/m 7,9 km/h (2 Bft) W-SW 255 0 min 0,0 UV-I 0 W/m -1,2 C -1,1 C 14,5 km/h (3 Bft)
12.01.2021 20:42 0,4 C -0,6 C 89 % 1016,6 hPa 0,0 l/m 9,1 km/h (2 Bft) W 269 0 min 0,0 UV-I 0 W/m -1,2 C -2,2 C 16,1 km/h (3 Bft)
12.01.2021 20:44 0,4 C -0,6 C 89 % 1016,7 hPa 0,0 l/m 11,0 km/h (2 Bft) SW 225 0 min 0,0 UV-I 0 W/m -1,2 C -3,8 C 20,9 km/h (4 Bft)
12.01.2021 20:46 0,4 C 0,0 C 89 % 1016,6 hPa 0,0 l/m 9,2 km/h (2 Bft) SW 219 0 min 0,0 UV-I 0 W/m -1,2 C -2,3 C 16,1 km/h (3 Bft)
12.01.2021 20:48 0,4 C 0,0 C 90 % 1016,7 hPa 0,0 l/m 8,4 km/h (2 Bft) W-SW 253 0 min 0,0 UV-I 0 W/m -1,0 C -1,6 C 16,1 km/h (3 Bft)
12.01.2021 20:50 0,3 C 0,0 C 90 % 1016,8 hPa 0,0 l/m 8,7 km/h (2 Bft) W-SW 242 0 min 0,0 UV-I 0 W/m -1,1 C -2,0 C 14,5 km/h (3 Bft)
12.01.2021 20:52 0,4 C 0,0 C 90 % 1016,8 hPa 0,0 l/m 8,3 km/h (2 Bft) W 269 0 min 0,0 UV-I 0 W/m -1,0 C -1,5 C 12,9 km/h (3 Bft)
12.01.2021 20:54 0,4 C 0,0 C 90 % 1016,8 hPa 0,0 l/m 11,0 km/h (2 Bft) W-NW 292 0 min 0,0 UV-I 0 W/m -1,0 C -3,8 C 19,3 km/h (3 Bft)
12.01.2021 20:56 0,3 C 0,0 C 90 % 1016,9 hPa 0,0 l/m 11,6 km/h (2 Bft) W 265 0 min 0,0 UV-I 0 W/m -1,1 C -4,4 C 16,1 km/h (3 Bft)
12.01.2021 20:58 0,3 C 0,0 C 90 % 1016,9 hPa 0,0 l/m 11,1 km/h (2 Bft) W-SW 252 0 min 0,0 UV-I 0 W/m -1,1 C -4,0 C 17,7 km/h (3 Bft)
12.01.2021 21:00 0,3 C 0,0 C 90 % 1017,0 hPa 0,0 l/m 10,1 km/h (2 Bft) W-SW 254 0 min 0,0 UV-I 0 W/m -1,1 C -3,2 C 14,5 km/h (3 Bft)
12.01.2021 21:02 0,3 C 0,0 C 90 % 1016,9 hPa 0,0 l/m 10,4 km/h (2 Bft) W-SW 255 0 min 0,0 UV-I 0 W/m -1,1 C -3,4 C 17,7 km/h (3 Bft)
12.01.2021 21:03 0,3 C 0,0 C 90 % 1017,0 hPa 0,0 l/m 8,0 km/h (2 Bft) W-SW 247 0 min 0,0 UV-I 0 W/m -1,1 C -1,3 C 14,5 km/h (3 Bft)
12.01.2021 21:04 0,3 C 0,0 C 90 % 1017,0 hPa 0,0 l/m 11,3 km/h (2 Bft) W 270 0 min 0,0 UV-I 0 W/m -1,1 C -4,1 C 19,3 km/h (3 Bft)
12.01.2021 21:05 0,3 C 0,0 C 90 % 1017,0 hPa 0,0 l/m 12,9 km/h (3 Bft) W 270 0 min 0,0 UV-I 0 W/m -1,1 C -5,3 C 20,9 km/h (4 Bft)
12.01.2021 21:06 0,3 C -0,6 C 90 % 1017,0 hPa 0,0 l/m 9,7 km/h (2 Bft) W-SW 247 0 min 0,0 UV-I 0 W/m -1,1 C -2,9 C 16,1 km/h (3 Bft)
12.01.2021 21:07 0,3 C -0,6 C 90 % 1017,0 hPa 0,0 l/m 11,3 km/h (2 Bft) W 270 0 min 0,0 UV-I 0 W/m -1,1 C -4,1 C 16,1 km/h (3 Bft)
12.01.2021 21:08 0,3 C -0,6 C 90 % 1016,9 hPa 0,0 l/m 1,6 km/h (1 Bft) W-SW 252 0 min 0,0 UV-I 0 W/m -1,1 C 0,3 C 1,6 km/h (1 Bft)
12.01.2021 21:10 0,3 C -0,6 C 90 % 1017,1 hPa 0,0 l/m 6,4 km/h (2 Bft) W-SW 258 0 min 0,0 UV-I 0 W/m -1,1 C 0,3 C 11,3 km/h (2 Bft)
12.01.2021 21:12 0,3 C -0,6 C 90 % 1017,1 hPa 0,0 l/m 12,3 km/h (3 Bft) W-SW 252 0 min 0,0 UV-I 0 W/m -1,1 C -4,9 C 19,3 km/h (3 Bft)
12.01.2021 21:14 0,3 C -0,6 C 90 % 1017,2 hPa 0,0 l/m 9,1 km/h (2 Bft) W-SW 248 0 min 0,0 UV-I 0 W/m -1,1 C -2,4 C 16,1 km/h (3 Bft)
12.01.2021 21:16 0,3 C -0,6 C 90 % 1017,1 hPa 0,0 l/m 8,5 km/h (2 Bft) W 273 0 min 0,0 UV-I 0 W/m -1,1 C -1,8 C 14,5 km/h (3 Bft)
12.01.2021 21:18 0,3 C -0,6 C 90 % 1017,1 hPa 0,0 l/m 9,8 km/h (2 Bft) W 273 0 min 0,0 UV-I 0 W/m -1,1 C -3,0 C 14,5 km/h (3 Bft)
12.01.2021 21:20 0,3 C -0,6 C 90 % 1017,2 hPa 0,0 l/m 8,3 km/h (2 Bft) W 277 0 min 0,0 UV-I 0 W/m -1,1 C -1,6 C 14,5 km/h (3 Bft)
12.01.2021 21:22 0,3 C -0,6 C 91 % 1017,1 hPa 0,0 l/m 12,0 km/h (2 Bft) W 281 0 min 0,0 UV-I 0 W/m -1,0 C -4,7 C 24,1 km/h (4 Bft)
12.01.2021 21:24 0,3 C -0,6 C 91 % 1017,1 hPa 0,0 l/m 9,8 km/h (2 Bft) W 260 0 min 0,0 UV-I 0 W/m -1,0 C -3,0 C 16,1 km/h (3 Bft)
12.01.2021 21:26 0,3 C -0,6 C 91 % 1017,2 hPa 0,0 l/m 9,7 km/h (2 Bft) W-SW 256 0 min 0,0 UV-I 0 W/m -1,0 C -2,9 C 14,5 km/h (3 Bft)
12.01.2021 21:28 0,3 C -0,6 C 91 % 1017,1 hPa 0,0 l/m 6,7 km/h (2 Bft) W-SW 256 0 min 0,0 UV-I 0 W/m -1,0 C 0,0 C 12,9 km/h (3 Bft)
12.01.2021 21:30 0,3 C -0,6 C 91 % 1017,3 hPa 0,0 l/m 8,8 km/h (2 Bft) W-SW 248 0 min 0,0 UV-I 0 W/m -1,0 C -2,1 C 16,1 km/h (3 Bft)
12.01.2021 21:32 0,3 C -0,6 C 91 % 1017,2 hPa 0,0 l/m 7,3 km/h (2 Bft) W 263 0 min 0,0 UV-I 0 W/m -1,0 C -0,6 C 12,9 km/h (3 Bft)
12.01.2021 21:34 0,3 C -0,6 C 91 % 1017,3 hPa 0,0 l/m 8,9 km/h (2 Bft) W 261 0 min 0,0 UV-I 0 W/m -1,0 C -2,2 C 12,9 km/h (3 Bft)
12.01.2021 21:36 0,3 C 0,0 C 91 % 1017,3 hPa 0,0 l/m 5,0 km/h (1 Bft) W 272 0 min 0,0 UV-I 0 W/m -1,0 C 0,3 C 9,7 km/h (2 Bft)
12.01.2021 21:38 0,3 C 0,0 C 91 % 1017,3 hPa 0,0 l/m 5,0 km/h (1 Bft) W 273 0 min 0,0 UV-I 0 W/m -1,0 C 0,3 C 9,7 km/h (2 Bft)
12.01.2021 21:40 0,3 C 0,0 C 91 % 1017,4 hPa 0,0 l/m 2,6 km/h (1 Bft) W 270 0 min 0,0 UV-I 0 W/m -1,0 C 0,3 C 6,4 km/h (2 Bft)
12.01.2021 21:42 0,3 C 0,0 C 91 % 1017,3 hPa 0,0 l/m 4,3 km/h (1 Bft) W 269 0 min 0,0 UV-I 0 W/m -1,0 C 0,3 C 6,4 km/h (2 Bft)
12.01.2021 21:44 0,3 C 0,0 C 92 % 1017,4 hPa 0,0 l/m 5,2 km/h (1 Bft) W-SW 255 0 min 0,0 UV-I 0 W/m -0,8 C 0,3 C 9,7 km/h (2 Bft)
12.01.2021 21:46 0,3 C 0,0 C 92 % 1017,4 hPa 0,0 l/m 3,4 km/h (1 Bft) W 269 0 min 0,0 UV-I 0 W/m -0,8 C 0,3 C 6,4 km/h (2 Bft)
12.01.2021 21:48 0,3 C 0,0 C 92 % 1017,5 hPa 0,0 l/m 4,8 km/h (1 Bft) W-NW 297 0 min 0,0 UV-I 0 W/m -0,8 C 0,3 C 14,5 km/h (3 Bft)
12.01.2021 21:50 0,3 C 0,0 C 92 % 1017,5 hPa 0,0 l/m 3,4 km/h (1 Bft) W-NW 297 0 min 0,0 UV-I 0 W/m -0,8 C 0,3 C 6,4 km/h (2 Bft)
12.01.2021 21:52 0,3 C 0,0 C 92 % 1017,5 hPa 0,0 l/m 3,5 km/h (1 Bft) W-NW 297 0 min 0,0 UV-I 0 W/m -0,8 C 0,3 C 8,0 km/h (2 Bft)
12.01.2021 21:54 0,3 C 0,0 C 92 % 1017,5 hPa 0,0 l/m 4,1 km/h (1 Bft) W-NW 296 0 min 0,0 UV-I 0 W/m -0,8 C 0,3 C 11,3 km/h (2 Bft)
12.01.2021 21:56 0,3 C 0,0 C 92 % 1017,6 hPa 0,0 l/m 3,5 km/h (1 Bft) W-NW 296 0 min 0,0 UV-I 0 W/m -0,8 C 0,3 C 6,4 km/h (2 Bft)
12.01.2021 21:58 0,3 C -0,6 C 92 % 1017,5 hPa 0,0 l/m 5,2 km/h (1 Bft) W-SW 252 0 min 0,0 UV-I 0 W/m -0,8 C 0,3 C 11,3 km/h (2 Bft)
12.01.2021 22:00 0,3 C -0,6 C 92 % 1017,6 hPa 0,2 l/m 4,6 km/h (1 Bft) W 269 0 min 0,0 UV-I 0 W/m -0,8 C 0,3 C 11,3 km/h (2 Bft)
12.01.2021 22:02 0,3 C 0,0 C 92 % 1017,5 hPa 0,0 l/m 3,4 km/h (1 Bft) W 269 0 min 0,0 UV-I 0 W/m -0,8 C 0,3 C 6,4 km/h (2 Bft)
12.01.2021 22:04 0,3 C 0,0 C 92 % 1017,6 hPa 0,0 l/m 2,4 km/h (1 Bft) W 269 0 min 0,0 UV-I 0 W/m -0,8 C 0,3 C 4,8 km/h (1 Bft)
12.01.2021 22:06 0,3 C -0,6 C 92 % 1017,6 hPa 0,0 l/m 2,7 km/h (1 Bft) W 268 0 min 0,0 UV-I 0 W/m -0,8 C 0,3 C 6,4 km/h (2 Bft)
12.01.2021 22:08 0,3 C 0,0 C 92 % 1017,7 hPa 0,0 l/m 1,9 km/h (1 Bft) W 268 0 min 0,0 UV-I 0 W/m -0,8 C 0,3 C 4,8 km/h (1 Bft)
12.01.2021 22:10 0,3 C 0,0 C 92 % 1017,7 hPa 0,0 l/m 1,5 km/h (1 Bft) W 268 0 min 0,0 UV-I 0 W/m -0,8 C 0,3 C 4,8 km/h (1 Bft)
12.01.2021 22:12 0,3 C 0,0 C 93 % 1017,8 hPa 0,0 l/m 1,0 km/h (0 Bft) W 268 0 min 0,0 UV-I 0 W/m -0,7 C 0,3 C 3,2 km/h (1 Bft)
12.01.2021 22:14 0,3 C 0,0 C 93 % 1018,0 hPa 0,0 l/m 3,3 km/h (1 Bft) W 268 0 min 0,0 UV-I 0 W/m -0,7 C 0,3 C 6,4 km/h (2 Bft)
12.01.2021 22:16 0,3 C 0,0 C 92 % 1017,9 hPa 0,0 l/m 3,6 km/h (1 Bft) W-NW 298 0 min 0,0 UV-I 0 W/m -0,8 C 0,3 C 8,0 km/h (2 Bft)
12.01.2021 22:18 0,3 C 0,0 C 93 % 1017,9 hPa 0,0 l/m 6,2 km/h (2 Bft) W-NW 299 0 min 0,0 UV-I 0 W/m -0,7 C 0,3 C 14,5 km/h (3 Bft)
12.01.2021 22:20 0,2 C -0,6 C 92 % 1017,9 hPa 0,0 l/m 5,9 km/h (2 Bft) W-NW 299 0 min 0,0 UV-I 0 W/m -0,9 C 0,2 C 12,9 km/h (3 Bft)
12.01.2021 22:22 0,2 C -0,6 C 92 % 1017,9 hPa 0,0 l/m 7,4 km/h (2 Bft) W-SW 245 0 min 0,0 UV-I 0 W/m -0,9 C -0,8 C 14,5 km/h (3 Bft)
12.01.2021 22:24 0,2 C -0,6 C 93 % 1018,0 hPa 0,0 l/m 3,6 km/h (1 Bft) W-SW 250 0 min 0,0 UV-I 0 W/m -0,8 C 0,2 C 6,4 km/h (2 Bft)
12.01.2021 22:26 0,2 C -0,6 C 93 % 1017,9 hPa 0,0 l/m 3,5 km/h (1 Bft) W-SW 250 0 min 0,0 UV-I 0 W/m -0,8 C 0,2 C 6,4 km/h (2 Bft)
12.01.2021 22:28 0,2 C -0,6 C 92 % 1017,9 hPa 0,0 l/m 1,2 km/h (1 Bft) W-SW 250 0 min 0,0 UV-I 0 W/m -0,9 C 0,2 C 3,2 km/h (1 Bft)
12.01.2021 22:30 0,1 C -0,6 C 92 % 1018,0 hPa 0,0 l/m 2,1 km/h (1 Bft) W-SW 250 0 min 0,0 UV-I 0 W/m -1,0 C 0,1 C 4,8 km/h (1 Bft)
12.01.2021 22:32 0,1 C -1,1 C 93 % 1018,0 hPa 0,0 l/m 3,1 km/h (1 Bft) W-SW 250 0 min 0,0 UV-I 0 W/m -0,9 C 0,1 C 4,8 km/h (1 Bft)
12.01.2021 22:34 0,1 C -1,1 C 93 % 1018,1 hPa 0,0 l/m 5,7 km/h (1 Bft) W-SW 251 0 min 0,0 UV-I 0 W/m -0,9 C 0,1 C 8,0 km/h (2 Bft)
12.01.2021 22:36 0,1 C -1,1 C 93 % 1018,0 hPa 0,0 l/m 3,7 km/h (1 Bft) W-SW 251 0 min 0,0 UV-I 0 W/m -0,9 C 0,1 C 6,4 km/h (2 Bft)
12.01.2021 22:38 0,0 C -1,1 C 93 % 1018,0 hPa 0,0 l/m 3,4 km/h (1 Bft) W-SW 251 0 min 0,0 UV-I 0 W/m -1,0 C 0,0 C 6,4 km/h (2 Bft)
12.01.2021 22:40 0,0 C -1,1 C 93 % 1018,0 hPa 0,0 l/m 6,1 km/h (2 Bft) W-SW 246 0 min 0,0 UV-I 0 W/m -1,0 C 0,0 C 11,3 km/h (2 Bft)
12.01.2021 22:42 -0,1 C -1,1 C 93 % 1018,0 hPa 0,0 l/m 6,2 km/h (2 Bft) W-SW 254 0 min 0,0 UV-I 0 W/m -1,1 C -0,1 C 11,3 km/h (2 Bft)
12.01.2021 22:44 -0,1 C -1,1 C 93 % 1018,1 hPa 0,0 l/m 4,4 km/h (1 Bft) W-SW 254 0 min 0,0 UV-I 0 W/m -1,1 C -0,1 C 8,0 km/h (2 Bft)
12.01.2021 22:46 -0,1 C -1,1 C 93 % 1018,1 hPa 0,0 l/m 4,5 km/h (1 Bft) W-SW 254 0 min 0,0 UV-I 0 W/m -1,1 C -0,1 C 6,4 km/h (2 Bft)
12.01.2021 22:48 -0,1 C -1,1 C 93 % 1018,1 hPa 0,0 l/m 4,8 km/h (1 Bft) W-SW 254 0 min 0,0 UV-I 0 W/m -1,1 C -0,1 C 8,0 km/h (2 Bft)
12.01.2021 22:50 -0,1 C -1,1 C 93 % 1018,1 hPa 0,0 l/m 5,1 km/h (1 Bft) W-SW 248 0 min 0,0 UV-I 0 W/m -1,1 C -0,1 C 8,0 km/h (2 Bft)
12.01.2021 22:52 -0,1 C -1,1 C 93 % 1018,1 hPa 0,0 l/m 6,3 km/h (2 Bft) W-SW 249 0 min 0,0 UV-I 0 W/m -1,1 C -0,1 C 8,0 km/h (2 Bft)
12.01.2021 22:54 -0,1 C -1,1 C 93 % 1018,2 hPa 0,0 l/m 5,5 km/h (1 Bft) W-SW 255 0 min 0,0 UV-I 0 W/m -1,1 C -0,1 C 8,0 km/h (2 Bft)
12.01.2021 22:56 -0,1 C -1,1 C 93 % 1018,1 hPa 0,0 l/m 5,3 km/h (1 Bft) W-SW 250 0 min 0,0 UV-I 0 W/m -1,1 C -0,1 C 12,9 km/h (3 Bft)
12.01.2021 22:58 -0,1 C -1,1 C 93 % 1018,2 hPa 0,0 l/m 7,7 km/h (2 Bft) W-SW 255 0 min 0,0 UV-I 0 W/m -1,1 C -1,5 C 11,3 km/h (2 Bft)
12.01.2021 23:00 -0,1 C -1,1 C 93 % 1018,2 hPa 0,0 l/m 8,3 km/h (2 Bft) W 260 0 min 0,0 UV-I 0 W/m -1,1 C -2,0 C 16,1 km/h (3 Bft)
12.01.2021 23:02 -0,1 C -1,1 C 93 % 1018,2 hPa 0,0 l/m 5,6 km/h (1 Bft) W 261 0 min 0,0 UV-I 0 W/m -1,1 C -0,1 C 11,3 km/h (2 Bft)
12.01.2021 23:04 -0,1 C -1,1 C 93 % 1018,2 hPa 0,0 l/m 4,4 km/h (1 Bft) W 261 0 min 0,0 UV-I 0 W/m -1,1 C -0,1 C 6,4 km/h (2 Bft)
12.01.2021 23:06 -0,1 C -1,1 C 93 % 1018,2 hPa 0,0 l/m 5,7 km/h (1 Bft) W 261 0 min 0,0 UV-I 0 W/m -1,1 C -0,1 C 9,7 km/h (2 Bft)
12.01.2021 23:08 -0,1 C -1,1 C 93 % 1018,2 hPa 0,0 l/m 4,8 km/h (1 Bft) W 261 0 min 0,0 UV-I 0 W/m -1,1 C -0,1 C 12,9 km/h (3 Bft)
12.01.2021 23:10 -0,1 C -1,1 C 93 % 1018,2 hPa 0,0 l/m 10,8 km/h (2 Bft) W-SW 244 0 min 0,0 UV-I 0 W/m -1,1 C -4,2 C 19,3 km/h (3 Bft)
12.01.2021 23:12 -0,1 C -1,1 C 93 % 1018,3 hPa 0,0 l/m 7,2 km/h (2 Bft) W-SW 256 0 min 0,0 UV-I 0 W/m -1,1 C -0,9 C 19,3 km/h (3 Bft)
12.01.2021 23:14 -0,1 C -1,1 C 93 % 1018,4 hPa 0,0 l/m 5,9 km/h (2 Bft) W-SW 242 0 min 0,0 UV-I 0 W/m -1,1 C -0,1 C 11,3 km/h (2 Bft)
12.01.2021 23:16 -0,1 C -1,1 C 93 % 1018,3 hPa 0,0 l/m 3,5 km/h (1 Bft) W-SW 243 0 min 0,0 UV-I 0 W/m -1,1 C -0,1 C 6,4 km/h (2 Bft)
12.01.2021 23:18 -0,2 C -1,1 C 93 % 1018,3 hPa 0,0 l/m 6,1 km/h (2 Bft) W 261 0 min 0,0 UV-I 0 W/m -1,2 C -0,2 C 11,3 km/h (2 Bft)
12.01.2021 23:20 -0,2 C -1,1 C 93 % 1018,3 hPa 0,0 l/m 4,2 km/h (1 Bft) W 261 0 min 0,0 UV-I 0 W/m -1,2 C -0,2 C 6,4 km/h (2 Bft)
12.01.2021 23:22 -0,2 C -1,1 C 92 % 1018,5 hPa 0,0 l/m 2,2 km/h (1 Bft) W 261 0 min 0,0 UV-I 0 W/m -1,3 C -0,2 C 6,4 km/h (2 Bft)
12.01.2021 23:24 -0,2 C -1,1 C 92 % 1018,4 hPa 0,0 l/m 5,8 km/h (2 Bft) W 271 0 min 0,0 UV-I 0 W/m -1,3 C -0,2 C 12,9 km/h (3 Bft)
12.01.2021 23:26 -0,2 C -1,1 C 92 % 1018,5 hPa 0,0 l/m 5,2 km/h (1 Bft) W 270 0 min 0,0 UV-I 0 W/m -1,3 C -0,2 C 11,3 km/h (2 Bft)
12.01.2021 23:28 -0,2 C -1,7 C 92 % 1018,4 hPa 0,0 l/m 4,0 km/h (1 Bft) W 270 0 min 0,0 UV-I 0 W/m -1,3 C -0,2 C 6,4 km/h (2 Bft)
12.01.2021 23:30 -0,2 C -1,7 C 92 % 1018,5 hPa 0,0 l/m 3,7 km/h (1 Bft) W 270 0 min 0,0 UV-I 0 W/m -1,3 C -0,2 C 6,4 km/h (2 Bft)
12.01.2021 23:32 -0,3 C -1,7 C 92 % 1018,4 hPa 0,0 l/m 4,2 km/h (1 Bft) W 270 0 min 0,0 UV-I 0 W/m -1,4 C -0,3 C 6,4 km/h (2 Bft)
12.01.2021 23:34 -0,3 C -1,7 C 92 % 1018,5 hPa 0,0 l/m 3,4 km/h (1 Bft) W 270 0 min 0,0 UV-I 0 W/m -1,4 C -0,3 C 6,4 km/h (2 Bft)
12.01.2021 23:36 -0,3 C -1,7 C 92 % 1018,5 hPa 0,0 l/m 3,2 km/h (1 Bft) W 270 0 min 0,0 UV-I 0 W/m -1,4 C -0,3 C 4,8 km/h (1 Bft)
12.01.2021 23:38 -0,3 C -1,7 C 92 % 1018,4 hPa 0,0 l/m 4,1 km/h (1 Bft) W 270 0 min 0,0 UV-I 0 W/m -1,4 C -0,3 C 9,7 km/h (2 Bft)
12.01.2021 23:40 -0,3 C -1,7 C 92 % 1018,6 hPa 0,0 l/m 4,6 km/h (1 Bft) W 270 0 min 0,0 UV-I 0 W/m -1,4 C -0,3 C 6,4 km/h (2 Bft)
12.01.2021 23:42 -0,3 C -1,7 C 92 % 1018,6 hPa 0,0 l/m 2,7 km/h (1 Bft) W 270 0 min 0,0 UV-I 0 W/m -1,4 C -0,3 C 4,8 km/h (1 Bft)
12.01.2021 23:44 -0,3 C -1,7 C 92 % 1018,6 hPa 0,0 l/m 3,5 km/h (1 Bft) W 270 0 min 0,0 UV-I 0 W/m -1,4 C -0,3 C 4,8 km/h (1 Bft)
12.01.2021 23:46 -0,3 C -1,7 C 92 % 1018,7 hPa 0,0 l/m 3,4 km/h (1 Bft) W 270 0 min 0,0 UV-I 0 W/m -1,4 C -0,3 C 6,4 km/h (2 Bft)
12.01.2021 23:48 -0,3 C -1,7 C 92 % 1018,7 hPa 0,0 l/m 5,2 km/h (1 Bft) W 270 0 min 0,0 UV-I 0 W/m -1,4 C -0,3 C 9,7 km/h (2 Bft)
12.01.2021 23:50 -0,4 C -1,7 C 92 % 1018,8 hPa 0,0 l/m 5,5 km/h (1 Bft) W 270 0 min 0,0 UV-I 0 W/m -1,5 C -0,4 C 12,9 km/h (3 Bft)
12.01.2021 23:52 -0,4 C -1,7 C 92 % 1018,7 hPa 0,0 l/m 4,4 km/h (1 Bft) W 270 0 min 0,0 UV-I 0 W/m -1,5 C -0,4 C 9,7 km/h (2 Bft)
12.01.2021 23:54 -0,4 C -1,7 C 92 % 1018,7 hPa 0,0 l/m 3,8 km/h (1 Bft) W 270 0 min 0,0 UV-I 0 W/m -1,5 C -0,4 C 9,7 km/h (2 Bft)
12.01.2021 23:56 -0,4 C -2,2 C 92 % 1018,7 hPa 0,0 l/m 5,3 km/h (1 Bft) W 270 0 min 0,0 UV-I 0 W/m -1,5 C -0,4 C 9,7 km/h (2 Bft)
12.01.2021 23:58 -0,4 C -2,2 C 92 % 1018,7 hPa 0,0 l/m 5,4 km/h (1 Bft) W 270 0 min 0,0 UV-I 0 W/m -1,5 C -0,4 C 9,7 km/h (2 Bft)
12.01.2021 23:59 -0,4 C -2,2 C 92 % 1018,7 hPa 0,0 l/m 4,8 km/h (1 Bft) W 270 0 min 0,0 UV-I 0 W/m -1,5 C -0,4 C 9,7 km/h (2 Bft)
_ Min-Zeit 23:50 23:56 20:14 12:12 - 13:46 - - - - - 23:50 02:05 13:46
Minimum _ -0,4 C -2,2 C 89 % 1010,1 hPa - 0,9 km/h (0 Bft) - - - - - -1,5 C -13,2 C 1,6 km/h (1 Bft)
_ Max-Zeit 14:22 14:16 13:52 23:50 03:03 02:05 - - 00:00 13:18 13:30 14:22 14:22 01:51
Maximum _ 2,9 C 1,7 C 97 % 1018,8 hPa 0,2 l/m 32,2 km/h
SW (5 Bft)
- - 0 min 0,7 UV-I 150 W/m 2,3 C 2,9 C 46,7 km/h
S-SW (6 Bft)
Durchschnitt _ 0,9 C 0,0 C 94 % 1013,5 hPa #13,8 l/m 11,6 km/h (2 Bft) S-SW - #0 min. 0,5 UV-I 65 W/m 0,1 C -3,4 C 18,0 km/h (3 Bft)